Wetterdaten: Mittwoch, 16.11.2022
Datum Zeit Temp. I. Temp. A. Feuchte I. Feuchte A. Luftdruck Regen Wind Richtung Richtung Sonnenschein Solar Taupunkt Windchill Windböen
16.11.2022 00:00 22,2 °C 6,7 °C 56 % 94 % 1006,5 hPa 0,0 l/m² 0,0 km/h (0 Bft) O-NO 69 ° 0 min 0 W/m² 5,8 °C 6,7 °C 0,0 km/h (0 Bft)
16.11.2022 00:02 22,2 °C 6,7 °C 56 % 94 % 1006,4 hPa 0,0 l/m² 0,0 km/h (0 Bft) O-NO 69 ° 0 min 0 W/m² 5,8 °C 6,7 °C 0,0 km/h (0 Bft)
16.11.2022 00:03 22,2 °C 6,7 °C 56 % 94 % 1006,4 hPa 0,0 l/m² 0,0 km/h (0 Bft) O-NO 68 ° 0 min 0 W/m² 5,8 °C 6,7 °C 0,0 km/h (0 Bft)
16.11.2022 00:05 22,1 °C 6,7 °C 56 % 94 % 1006,4 hPa 0,0 l/m² 0,1 km/h (0 Bft) O-NO 69 ° 0 min 0 W/m² 5,8 °C 6,7 °C 1,6 km/h (1 Bft)
16.11.2022 00:07 22,2 °C 6,7 °C 56 % 94 % 1006,4 hPa 0,0 l/m² 1,9 km/h (1 Bft) O-NO 69 ° 0 min 0 W/m² 5,8 °C 6,7 °C 3,2 km/h (1 Bft)
16.11.2022 00:09 22,2 °C 6,7 °C 56 % 94 % 1006,3 hPa 0,0 l/m² 2,6 km/h (1 Bft) O-NO 69 ° 0 min 0 W/m² 5,8 °C 6,7 °C 4,8 km/h (1 Bft)
16.11.2022 00:11 22,2 °C 6,7 °C 56 % 94 % 1006,4 hPa 0,0 l/m² 2,1 km/h (1 Bft) O-NO 68 ° 0 min 0 W/m² 5,8 °C 6,7 °C 3,2 km/h (1 Bft)
16.11.2022 00:12 22,2 °C 6,7 °C 56 % 94 % 1006,4 hPa 0,0 l/m² 3,5 km/h (1 Bft) O-NO 69 ° 0 min 0 W/m² 5,8 °C 6,7 °C 4,8 km/h (1 Bft)
16.11.2022 00:13 22,1 °C 6,7 °C 56 % 94 % 1006,3 hPa 0,0 l/m² 3,2 km/h (1 Bft) O-NO 68 ° 0 min 0 W/m² 5,8 °C 6,7 °C 4,8 km/h (1 Bft)
16.11.2022 00:15 22,2 °C 6,7 °C 56 % 94 % 1006,4 hPa 0,0 l/m² 2,9 km/h (1 Bft) O-NO 68 ° 0 min 0 W/m² 5,8 °C 6,7 °C 4,8 km/h (1 Bft)
16.11.2022 00:17 22,1 °C 6,6 °C 56 % 94 % 1006,3 hPa 0,0 l/m² 3,6 km/h (1 Bft) O-NO 69 ° 0 min 0 W/m² 5,7 °C 6,6 °C 4,8 km/h (1 Bft)
16.11.2022 00:19 22,1 °C 6,6 °C 56 % 94 % 1006,2 hPa 0,0 l/m² 3,7 km/h (1 Bft) O-NO 69 ° 0 min 0 W/m² 5,7 °C 6,6 °C 4,8 km/h (1 Bft)
16.11.2022 00:21 22,1 °C 6,6 °C 56 % 94 % 1006,3 hPa 0,0 l/m² 2,7 km/h (1 Bft) O-NO 69 ° 0 min 0 W/m² 5,7 °C 6,6 °C 4,8 km/h (1 Bft)
16.11.2022 00:22 22,2 °C 6,7 °C 56 % 94 % 1006,3 hPa 0,0 l/m² 0,8 km/h (0 Bft) O-NO 68 ° 0 min 0 W/m² 5,8 °C 6,7 °C 3,2 km/h (1 Bft)
16.11.2022 00:23 22,2 °C 6,6 °C 56 % 94 % 1006,2 hPa 0,0 l/m² 0,4 km/h (0 Bft) O-NO 69 ° 0 min 0 W/m² 5,7 °C 6,6 °C 1,6 km/h (1 Bft)
16.11.2022 00:25 22,1 °C 6,6 °C 56 % 94 % 1006,3 hPa 0,0 l/m² 0,2 km/h (0 Bft) O-NO 68 ° 0 min 0 W/m² 5,7 °C 6,6 °C 1,6 km/h (1 Bft)
16.11.2022 00:27 22,1 °C 6,6 °C 56 % 94 % 1006,3 hPa 0,0 l/m² 0,0 km/h (0 Bft) O-NO 69 ° 0 min 0 W/m² 5,7 °C 6,6 °C 0,0 km/h (0 Bft)
16.11.2022 00:29 22,1 °C 6,6 °C 56 % 94 % 1006,3 hPa 0,0 l/m² 1,8 km/h (1 Bft) O-NO 69 ° 0 min 0 W/m² 5,7 °C 6,6 °C 4,8 km/h (1 Bft)
16.11.2022 00:31 22,1 °C 6,6 °C 56 % 94 % 1006,2 hPa 0,0 l/m² 2,0 km/h (1 Bft) O-NO 68 ° 0 min 0 W/m² 5,7 °C 6,6 °C 4,8 km/h (1 Bft)
16.11.2022 00:32 22,1 °C 6,6 °C 56 % 94 % 1006,2 hPa 0,0 l/m² 4,0 km/h (1 Bft) O-NO 68 ° 0 min 0 W/m² 5,7 °C 6,6 °C 4,8 km/h (1 Bft)
16.11.2022 00:34 22,2 °C 6,6 °C 56 % 94 % 1006,2 hPa 0,0 l/m² 4,3 km/h (1 Bft) NO 55 ° 0 min 0 W/m² 5,7 °C 6,6 °C 8,0 km/h (2 Bft)
16.11.2022 00:36 22,1 °C 6,5 °C 56 % 94 % 1006,0 hPa 0,0 l/m² 5,7 km/h (2 Bft) NO 44 ° 0 min 0 W/m² 5,6 °C 6,5 °C 9,7 km/h (2 Bft)
16.11.2022 00:38 22,2 °C 6,6 °C 56 % 94 % 1006,0 hPa 0,0 l/m² 3,8 km/h (1 Bft) NO 43 ° 0 min 0 W/m² 5,7 °C 6,6 °C 6,4 km/h (2 Bft)
16.11.2022 00:40 22,1 °C 6,5 °C 56 % 94 % 1006,0 hPa 0,0 l/m² 3,5 km/h (1 Bft) NO 44 ° 0 min 0 W/m² 5,6 °C 6,5 °C 6,4 km/h (2 Bft)
16.11.2022 00:42 22,2 °C 6,5 °C 56 % 94 % 1006,0 hPa 0,0 l/m² 1,6 km/h (1 Bft) NO 44 ° 0 min 0 W/m² 5,6 °C 6,5 °C 6,4 km/h (2 Bft)
16.11.2022 00:43 22,1 °C 6,5 °C 56 % 94 % 1005,9 hPa 0,0 l/m² 3,0 km/h (1 Bft) NO 55 ° 0 min 0 W/m² 5,6 °C 6,5 °C 8,0 km/h (2 Bft)
16.11.2022 00:46 22,2 °C 6,5 °C 56 % 94 % 1006,0 hPa 0,0 l/m² 2,8 km/h (1 Bft) NO 55 ° 0 min 0 W/m² 5,6 °C 6,5 °C 4,8 km/h (1 Bft)
16.11.2022 00:48 22,1 °C 6,4 °C 56 % 94 % 1006,0 hPa 0,0 l/m² 0,0 km/h (0 Bft) NO 55 ° 0 min 0 W/m² 5,5 °C 6,4 °C 0,0 km/h (0 Bft)
16.11.2022 00:50 22,2 °C 6,5 °C 56 % 94 % 1006,0 hPa 0,0 l/m² 0,5 km/h (0 Bft) NO 55 ° 0 min 0 W/m² 5,6 °C 6,5 °C 3,2 km/h (1 Bft)
16.11.2022 00:52 22,1 °C 6,5 °C 56 % 94 % 1005,9 hPa 0,0 l/m² 1,5 km/h (1 Bft) NO 55 ° 0 min 0 W/m² 5,6 °C 6,5 °C 4,8 km/h (1 Bft)
16.11.2022 00:53 22,1 °C 6,5 °C 56 % 94 % 1006,0 hPa 0,0 l/m² 0,4 km/h (0 Bft) NO 55 ° 0 min 0 W/m² 5,6 °C 6,5 °C 3,2 km/h (1 Bft)
16.11.2022 00:54 22,1 °C 6,4 °C 56 % 94 % 1005,9 hPa 0,0 l/m² 3,0 km/h (1 Bft) NO 55 ° 0 min 0 W/m² 5,5 °C 6,4 °C 4,8 km/h (1 Bft)
16.11.2022 00:56 22,2 °C 6,4 °C 56 % 94 % 1005,9 hPa 0,0 l/m² 2,3 km/h (1 Bft) NO 55 ° 0 min 0 W/m² 5,5 °C 6,4 °C 4,8 km/h (1 Bft)
16.11.2022 00:58 22,2 °C 6,4 °C 56 % 94 % 1005,8 hPa 0,0 l/m² 1,0 km/h (0 Bft) NO 55 ° 0 min 0 W/m² 5,5 °C 6,4 °C 3,2 km/h (1 Bft)
16.11.2022 01:00 22,2 °C 6,5 °C 56 % 94 % 1005,8 hPa 0,0 l/m² 1,2 km/h (1 Bft) NO 55 ° 0 min 0 W/m² 5,6 °C 6,5 °C 3,2 km/h (1 Bft)
16.11.2022 01:02 22,2 °C 6,4 °C 56 % 93 % 1005,7 hPa 0,0 l/m² 3,0 km/h (1 Bft) NO 55 ° 0 min 0 W/m² 5,4 °C 6,4 °C 4,8 km/h (1 Bft)
16.11.2022 01:03 22,1 °C 6,4 °C 56 % 94 % 1005,7 hPa 0,0 l/m² 3,2 km/h (1 Bft) NO 55 ° 0 min 0 W/m² 5,5 °C 6,4 °C 4,8 km/h (1 Bft)
16.11.2022 01:04 22,2 °C 6,4 °C 56 % 94 % 1005,6 hPa 0,0 l/m² 3,4 km/h (1 Bft) NO 55 ° 0 min 0 W/m² 5,5 °C 6,4 °C 4,8 km/h (1 Bft)
16.11.2022 01:06 22,2 °C 6,4 °C 56 % 94 % 1005,6 hPa 0,0 l/m² 1,5 km/h (1 Bft) NO 55 ° 0 min 0 W/m² 5,5 °C 6,4 °C 4,8 km/h (1 Bft)
16.11.2022 01:07 22,2 °C 6,4 °C 56 % 94 % 1005,6 hPa 0,0 l/m² 2,5 km/h (1 Bft) NO 55 ° 0 min 0 W/m² 5,5 °C 6,4 °C 4,8 km/h (1 Bft)
16.11.2022 01:09 22,2 °C 6,4 °C 56 % 94 % 1005,6 hPa 0,0 l/m² 4,7 km/h (1 Bft) NO 55 ° 0 min 0 W/m² 5,5 °C 6,4 °C 6,4 km/h (2 Bft)
16.11.2022 01:11 22,2 °C 6,4 °C 56 % 94 % 1005,5 hPa 0,0 l/m² 5,1 km/h (1 Bft) O-NO 71 ° 0 min 0 W/m² 5,5 °C 6,4 °C 6,4 km/h (2 Bft)
16.11.2022 01:12 22,2 °C 6,4 °C 56 % 94 % 1005,5 hPa 0,0 l/m² 5,9 km/h (2 Bft) O-NO 74 ° 0 min 0 W/m² 5,5 °C 6,4 °C 8,0 km/h (2 Bft)
16.11.2022 01:13 22,2 °C 6,4 °C 56 % 94 % 1005,5 hPa 0,0 l/m² 5,9 km/h (2 Bft) O-NO 72 ° 0 min 0 W/m² 5,5 °C 6,4 °C 8,0 km/h (2 Bft)
16.11.2022 01:15 22,2 °C 6,3 °C 56 % 94 % 1005,4 hPa 0,0 l/m² 5,6 km/h (2 Bft) O-NO 74 ° 0 min 0 W/m² 5,4 °C 6,3 °C 8,0 km/h (2 Bft)
16.11.2022 01:17 22,2 °C 6,3 °C 56 % 94 % 1005,5 hPa 0,0 l/m² 5,4 km/h (2 Bft) O-NO 74 ° 0 min 0 W/m² 5,4 °C 6,3 °C 8,0 km/h (2 Bft)
16.11.2022 01:19 22,2 °C 6,3 °C 56 % 94 % 1005,5 hPa 0,0 l/m² 6,5 km/h (2 Bft) O 81 ° 0 min 0 W/m² 5,4 °C 6,2 °C 11,3 km/h (2 Bft)
16.11.2022 01:21 22,2 °C 6,3 °C 56 % 94 % 1005,5 hPa 0,0 l/m² 5,8 km/h (2 Bft) O-NO 75 ° 0 min 0 W/m² 5,4 °C 6,3 °C 8,0 km/h (2 Bft)
16.11.2022 01:22 22,2 °C 6,3 °C 56 % 94 % 1005,5 hPa 0,0 l/m² 5,8 km/h (2 Bft) O-NO 71 ° 0 min 0 W/m² 5,4 °C 6,3 °C 8,0 km/h (2 Bft)
16.11.2022 01:23 22,2 °C 6,3 °C 56 % 94 % 1005,6 hPa 0,0 l/m² 4,9 km/h (1 Bft) O-NO 71 ° 0 min 0 W/m² 5,4 °C 6,3 °C 6,4 km/h (2 Bft)
16.11.2022 01:25 22,1 °C 6,3 °C 56 % 93 % 1005,5 hPa 0,0 l/m² 3,7 km/h (1 Bft) O-NO 74 ° 0 min 0 W/m² 5,3 °C 6,3 °C 6,4 km/h (2 Bft)
16.11.2022 01:27 22,2 °C 6,3 °C 56 % 94 % 1005,6 hPa 0,0 l/m² 4,4 km/h (1 Bft) O-NO 74 ° 0 min 0 W/m² 5,4 °C 6,3 °C 8,0 km/h (2 Bft)
16.11.2022 01:29 22,2 °C 6,3 °C 56 % 94 % 1005,6 hPa 0,0 l/m² 4,5 km/h (1 Bft) O-NO 74 ° 0 min 0 W/m² 5,4 °C 6,3 °C 6,4 km/h (2 Bft)
16.11.2022 01:31 22,2 °C 6,3 °C 56 % 93 % 1005,6 hPa 0,0 l/m² 3,6 km/h (1 Bft) O-NO 74 ° 0 min 0 W/m² 5,3 °C 6,3 °C 6,4 km/h (2 Bft)
16.11.2022 01:32 22,1 °C 6,3 °C 56 % 94 % 1005,6 hPa 0,0 l/m² 2,3 km/h (1 Bft) O-NO 74 ° 0 min 0 W/m² 5,4 °C 6,3 °C 3,2 km/h (1 Bft)
16.11.2022 01:33 22,1 °C 6,3 °C 56 % 94 % 1005,6 hPa 0,0 l/m² 1,2 km/h (1 Bft) O-NO 74 ° 0 min 0 W/m² 5,4 °C 6,3 °C 4,8 km/h (1 Bft)
16.11.2022 01:35 22,2 °C 6,3 °C 56 % 94 % 1005,6 hPa 0,0 l/m² 1,1 km/h (1 Bft) O-NO 74 ° 0 min 0 W/m² 5,4 °C 6,3 °C 4,8 km/h (1 Bft)
16.11.2022 01:37 22,2 °C 6,2 °C 56 % 93 % 1005,6 hPa 0,0 l/m² 3,0 km/h (1 Bft) O-NO 75 ° 0 min 0 W/m² 5,2 °C 6,2 °C 4,8 km/h (1 Bft)
16.11.2022 01:39 22,2 °C 6,2 °C 56 % 93 % 1005,7 hPa 0,0 l/m² 1,7 km/h (1 Bft) O-NO 75 ° 0 min 0 W/m² 5,2 °C 6,2 °C 3,2 km/h (1 Bft)
16.11.2022 01:41 22,2 °C 6,2 °C 56 % 93 % 1005,6 hPa 0,0 l/m² 0,0 km/h (0 Bft) O-NO 75 ° 0 min 0 W/m² 5,2 °C 6,2 °C 1,6 km/h (1 Bft)
16.11.2022 01:42 22,2 °C 6,2 °C 56 % 93 % 1005,6 hPa 0,0 l/m² 0,0 km/h (0 Bft) O-NO 75 ° 0 min 0 W/m² 5,2 °C 6,2 °C 0,0 km/h (0 Bft)
16.11.2022 01:43 22,2 °C 6,2 °C 56 % 93 % 1005,6 hPa 0,0 l/m² 0,0 km/h (0 Bft) O-NO 75 ° 0 min 0 W/m² 5,2 °C 6,2 °C 0,0 km/h (0 Bft)
16.11.2022 01:45 22,2 °C 6,2 °C 56 % 93 % 1005,6 hPa 0,0 l/m² 0,2 km/h (0 Bft) O-NO 75 ° 0 min 0 W/m² 5,2 °C 6,2 °C 1,6 km/h (1 Bft)
16.11.2022 01:47 22,2 °C 6,1 °C 56 % 93 % 1005,5 hPa 0,0 l/m² 1,6 km/h (1 Bft) O-NO 75 ° 0 min 0 W/m² 5,1 °C 6,1 °C 3,2 km/h (1 Bft)
16.11.2022 01:49 22,2 °C 6,1 °C 56 % 93 % 1005,5 hPa 0,0 l/m² 2,9 km/h (1 Bft) O-NO 75 ° 0 min 0 W/m² 5,1 °C 6,1 °C 4,8 km/h (1 Bft)
16.11.2022 01:51 22,2 °C 6,1 °C 56 % 93 % 1005,4 hPa 0,0 l/m² 4,5 km/h (1 Bft) O-NO 61 ° 0 min 0 W/m² 5,1 °C 6,1 °C 6,4 km/h (2 Bft)
16.11.2022 01:52 22,2 °C 6,1 °C 56 % 93 % 1005,4 hPa 0,0 l/m² 6,0 km/h (2 Bft) O-NO 57 ° 0 min 0 W/m² 5,1 °C 6,1 °C 8,0 km/h (2 Bft)
16.11.2022 01:54 22,2 °C 6,1 °C 56 % 93 % 1005,4 hPa 0,0 l/m² 4,3 km/h (1 Bft) NO 56 ° 0 min 0 W/m² 5,1 °C 6,1 °C 6,4 km/h (2 Bft)
16.11.2022 01:56 22,2 °C 6,2 °C 56 % 93 % 1005,4 hPa 0,0 l/m² 4,0 km/h (1 Bft) O-NO 68 ° 0 min 0 W/m² 5,2 °C 6,2 °C 9,7 km/h (2 Bft)
16.11.2022 01:58 22,1 °C 6,1 °C 56 % 93 % 1005,4 hPa 0,0 l/m² 6,2 km/h (2 Bft) O-NO 71 ° 0 min 0 W/m² 5,1 °C 6,1 °C 8,0 km/h (2 Bft)
16.11.2022 02:00 22,2 °C 6,1 °C 56 % 93 % 1005,4 hPa 0,0 l/m² 5,8 km/h (2 Bft) O-NO 74 ° 0 min 0 W/m² 5,1 °C 6,1 °C 11,3 km/h (2 Bft)
16.11.2022 02:02 22,2 °C 6,1 °C 56 % 93 % 1005,4 hPa 0,0 l/m² 6,2 km/h (2 Bft) O-NO 74 ° 0 min 0 W/m² 5,1 °C 6,1 °C 8,0 km/h (2 Bft)
16.11.2022 02:03 22,2 °C 6,2 °C 56 % 93 % 1005,4 hPa 0,0 l/m² 4,7 km/h (1 Bft) O-NO 75 ° 0 min 0 W/m² 5,2 °C 6,2 °C 8,0 km/h (2 Bft)
16.11.2022 02:04 22,2 °C 6,1 °C 56 % 93 % 1005,4 hPa 0,0 l/m² 4,3 km/h (1 Bft) O-NO 75 ° 0 min 0 W/m² 5,1 °C 6,1 °C 6,4 km/h (2 Bft)
16.11.2022 02:06 22,2 °C 6,1 °C 56 % 93 % 1005,4 hPa 0,0 l/m² 3,7 km/h (1 Bft) O-NO 75 ° 0 min 0 W/m² 5,1 °C 6,1 °C 4,8 km/h (1 Bft)
16.11.2022 02:08 22,2 °C 6,1 °C 56 % 93 % 1005,5 hPa 0,0 l/m² 3,3 km/h (1 Bft) O-NO 75 ° 0 min 0 W/m² 5,1 °C 6,1 °C 6,4 km/h (2 Bft)
16.11.2022 02:10 22,2 °C 6,1 °C 56 % 93 % 1005,4 hPa 0,0 l/m² 3,1 km/h (1 Bft) O-NO 75 ° 0 min 0 W/m² 5,1 °C 6,1 °C 4,8 km/h (1 Bft)
16.11.2022 02:12 22,2 °C 6,1 °C 56 % 93 % 1005,4 hPa 0,0 l/m² 4,5 km/h (1 Bft) O-NO 75 ° 0 min 0 W/m² 5,1 °C 6,1 °C 6,4 km/h (2 Bft)
16.11.2022 02:13 22,2 °C 6,1 °C 56 % 93 % 1005,4 hPa 0,0 l/m² 4,4 km/h (1 Bft) O-NO 75 ° 0 min 0 W/m² 5,1 °C 6,1 °C 6,4 km/h (2 Bft)
16.11.2022 02:14 22,1 °C 6,1 °C 56 % 93 % 1005,4 hPa 0,0 l/m² 5,3 km/h (1 Bft) O-NO 75 ° 0 min 0 W/m² 5,1 °C 6,1 °C 8,0 km/h (2 Bft)
16.11.2022 02:16 22,2 °C 6,0 °C 56 % 93 % 1005,3 hPa 0,0 l/m² 5,6 km/h (2 Bft) O-NO 70 ° 0 min 0 W/m² 5,0 °C 6,0 °C 9,7 km/h (2 Bft)
16.11.2022 02:18 22,1 °C 6,1 °C 56 % 93 % 1005,2 hPa 0,0 l/m² 6,7 km/h (2 Bft) O-NO 72 ° 0 min 0 W/m² 5,1 °C 5,9 °C 11,3 km/h (2 Bft)
16.11.2022 02:20 22,1 °C 6,0 °C 56 % 93 % 1005,2 hPa 0,0 l/m² 8,3 km/h (2 Bft) O-NO 68 ° 0 min 0 W/m² 5,0 °C 4,4 °C 11,3 km/h (2 Bft)
16.11.2022 02:22 22,2 °C 6,0 °C 56 % 93 % 1005,1 hPa 0,0 l/m² 8,5 km/h (2 Bft) O-NO 78 ° 0 min 0 W/m² 5,0 °C 4,3 °C 14,5 km/h (3 Bft)
16.11.2022 02:23 22,2 °C 6,1 °C 56 % 93 % 1005,1 hPa 0,0 l/m² 10,8 km/h (2 Bft) O-NO 73 ° 0 min 0 W/m² 5,1 °C 2,8 °C 14,5 km/h (3 Bft)
16.11.2022 02:24 22,1 °C 6,1 °C 56 % 93 % 1005,1 hPa 0,0 l/m² 11,4 km/h (2 Bft) O 84 ° 0 min 0 W/m² 5,1 °C 2,4 °C 14,5 km/h (3 Bft)
16.11.2022 02:26 22,1 °C 6,1 °C 56 % 93 % 1005,0 hPa 0,0 l/m² 12,8 km/h (3 Bft) O-NO 64 ° 0 min 0 W/m² 5,1 °C 1,6 °C 16,1 km/h (3 Bft)
16.11.2022 02:28 22,2 °C 6,1 °C 56 % 93 % 1005,0 hPa 0,0 l/m² 10,9 km/h (2 Bft) O 79 ° 0 min 0 W/m² 5,1 °C 2,7 °C 16,1 km/h (3 Bft)
16.11.2022 02:30 22,1 °C 6,1 °C 56 % 93 % 1005,0 hPa 0,0 l/m² 11,1 km/h (2 Bft) O-NO 74 ° 0 min 0 W/m² 5,1 °C 2,6 °C 14,5 km/h (3 Bft)
16.11.2022 02:32 22,1 °C 6,1 °C 56 % 93 % 1005,0 hPa 0,0 l/m² 10,7 km/h (2 Bft) O-NO 65 ° 0 min 0 W/m² 5,1 °C 2,8 °C 16,1 km/h (3 Bft)
16.11.2022 02:33 22,1 °C 6,1 °C 56 % 93 % 1005,0 hPa 0,0 l/m² 12,5 km/h (2 Bft) O-NO 69 ° 0 min 0 W/m² 5,1 °C 1,7 °C 16,1 km/h (3 Bft)
16.11.2022 02:34 22,1 °C 6,1 °C 56 % 93 % 1004,9 hPa 0,0 l/m² 8,0 km/h (2 Bft) O-NO 73 ° 0 min 0 W/m² 5,1 °C 4,8 °C 12,9 km/h (3 Bft)
16.11.2022 02:36 22,1 °C 6,1 °C 56 % 93 % 1004,8 hPa 0,0 l/m² 9,3 km/h (2 Bft) O-NO 65 ° 0 min 0 W/m² 5,1 °C 3,8 °C 16,1 km/h (3 Bft)
16.11.2022 02:38 22,2 °C 6,1 °C 56 % 93 % 1004,7 hPa 0,0 l/m² 10,3 km/h (2 Bft) O-NO 71 ° 0 min 0 W/m² 5,1 °C 3,1 °C 17,7 km/h (3 Bft)
16.11.2022 02:40 22,1 °C 6,2 °C 56 % 93 % 1004,7 hPa 0,0 l/m² 11,3 km/h (2 Bft) O-NO 78 ° 0 min 0 W/m² 5,2 °C 2,6 °C 19,3 km/h (3 Bft)
16.11.2022 02:42 22,1 °C 6,1 °C 56 % 93 % 1004,6 hPa 0,0 l/m² 11,0 km/h (2 Bft) O-NO 70 ° 0 min 0 W/m² 5,1 °C 2,6 °C 16,1 km/h (3 Bft)
16.11.2022 02:43 22,1 °C 6,1 °C 56 % 93 % 1004,6 hPa 0,0 l/m² 11,8 km/h (2 Bft) O-NO 65 ° 0 min 0 W/m² 5,1 °C 2,1 °C 14,5 km/h (3 Bft)
16.11.2022 02:44 22,1 °C 6,1 °C 56 % 93 % 1004,6 hPa 0,0 l/m² 8,6 km/h (2 Bft) O-NO 74 ° 0 min 0 W/m² 5,1 °C 4,3 °C 16,1 km/h (3 Bft)
16.11.2022 02:46 22,1 °C 6,1 °C 56 % 93 % 1004,6 hPa 0,0 l/m² 11,6 km/h (2 Bft) O-NO 61 ° 0 min 0 W/m² 5,1 °C 2,3 °C 17,7 km/h (3 Bft)
16.11.2022 02:48 22,1 °C 6,1 °C 56 % 93 % 1004,6 hPa 0,0 l/m² 13,3 km/h (3 Bft) O-NO 69 ° 0 min 0 W/m² 5,1 °C 1,3 °C 17,7 km/h (3 Bft)
16.11.2022 02:50 22,1 °C 6,1 °C 56 % 92 % 1004,6 hPa 0,0 l/m² 8,7 km/h (2 Bft) O 85 ° 0 min 0 W/m² 4,9 °C 4,2 °C 14,5 km/h (3 Bft)
16.11.2022 02:52 22,1 °C 6,1 °C 56 % 92 % 1004,5 hPa 0,0 l/m² 12,6 km/h (3 Bft) O-NO 74 ° 0 min 0 W/m² 4,9 °C 1,7 °C 16,1 km/h (3 Bft)
16.11.2022 02:53 22,1 °C 6,1 °C 56 % 92 % 1004,5 hPa 0,0 l/m² 9,8 km/h (2 Bft) O 80 ° 0 min 0 W/m² 4,9 °C 3,4 °C 11,3 km/h (2 Bft)
16.11.2022 02:54 22,1 °C 6,1 °C 56 % 92 % 1004,6 hPa 0,0 l/m² 10,3 km/h (2 Bft) O-NO 76 ° 0 min 0 W/m² 4,9 °C 3,1 °C 14,5 km/h (3 Bft)
16.11.2022 02:56 22,1 °C 6,1 °C 56 % 92 % 1004,4 hPa 0,0 l/m² 11,4 km/h (2 Bft) NO 42 ° 0 min 0 W/m² 4,9 °C 2,4 °C 16,1 km/h (3 Bft)
16.11.2022 02:58 22,1 °C 6,1 °C 56 % 92 % 1004,5 hPa 0,0 l/m² 12,7 km/h (3 Bft) O-NO 71 ° 0 min 0 W/m² 4,9 °C 1,6 °C 17,7 km/h (3 Bft)
16.11.2022 03:00 22,1 °C 6,1 °C 56 % 92 % 1004,4 hPa 0,0 l/m² 10,4 km/h (2 Bft) O-NO 64 ° 0 min 0 W/m² 4,9 °C 3,0 °C 14,5 km/h (3 Bft)
16.11.2022 03:01 22,1 °C 6,0 °C 56 % 92 % 1004,5 hPa 0,0 l/m² 11,3 km/h (2 Bft) O-NO 67 ° 0 min 0 W/m² 4,8 °C 2,3 °C 14,5 km/h (3 Bft)
16.11.2022 03:08 22,1 °C 6,0 °C 56 % 92 % 1004,6 hPa 0,0 l/m² 12,8 km/h (3 Bft) O-NO 73 ° 0 min 0 W/m² 4,8 °C 1,4 °C 16,1 km/h (3 Bft)
16.11.2022 03:10 22,1 °C 6,0 °C 56 % 92 % 1004,6 hPa 0,0 l/m² 13,4 km/h (3 Bft) O-NO 72 ° 0 min 0 W/m² 4,8 °C 1,1 °C 16,1 km/h (3 Bft)
16.11.2022 03:11 22,1 °C 5,9 °C 56 % 92 % 1004,6 hPa 0,0 l/m² 8,6 km/h (2 Bft) O 84 ° 0 min 0 W/m² 4,7 °C 4,1 °C 12,9 km/h (3 Bft)
16.11.2022 03:13 22,1 °C 5,9 °C 56 % 92 % 1004,5 hPa 0,0 l/m² 11,1 km/h (2 Bft) O-NO 72 ° 0 min 0 W/m² 4,7 °C 2,3 °C 14,5 km/h (3 Bft)
16.11.2022 03:15 22,1 °C 5,9 °C 56 % 92 % 1004,6 hPa 0,0 l/m² 9,7 km/h (2 Bft) O 85 ° 0 min 0 W/m² 4,7 °C 3,3 °C 16,1 km/h (3 Bft)
16.11.2022 03:17 22,1 °C 5,9 °C 56 % 91 % 1004,6 hPa 0,0 l/m² 10,9 km/h (2 Bft) O-NO 65 ° 0 min 0 W/m² 4,5 °C 2,5 °C 16,1 km/h (3 Bft)
16.11.2022 03:19 22,1 °C 5,9 °C 56 % 91 % 1004,6 hPa 0,0 l/m² 10,8 km/h (2 Bft) O-NO 71 ° 0 min 0 W/m² 4,5 °C 2,5 °C 17,7 km/h (3 Bft)
16.11.2022 03:20 22,1 °C 5,9 °C 56 % 91 % 1004,7 hPa 0,0 l/m² 10,3 km/h (2 Bft) O-NO 73 ° 0 min 0 W/m² 4,5 °C 2,9 °C 14,5 km/h (3 Bft)
16.11.2022 03:22 22,1 °C 5,9 °C 56 % 91 % 1004,7 hPa 0,0 l/m² 11,8 km/h (2 Bft) O 80 ° 0 min 0 W/m² 4,5 °C 1,9 °C 16,1 km/h (3 Bft)
16.11.2022 03:23 22,1 °C 5,9 °C 56 % 91 % 1004,7 hPa 0,0 l/m² 10,6 km/h (2 Bft) O-NO 61 ° 0 min 0 W/m² 4,5 °C 2,7 °C 14,5 km/h (3 Bft)
16.11.2022 03:25 22,1 °C 5,9 °C 56 % 91 % 1004,7 hPa 0,0 l/m² 11,8 km/h (2 Bft) O 80 ° 0 min 0 W/m² 4,5 °C 1,9 °C 16,1 km/h (3 Bft)
16.11.2022 03:27 22,1 °C 5,9 °C 56 % 91 % 1004,7 hPa 0,0 l/m² 11,6 km/h (2 Bft) O-NO 70 ° 0 min 0 W/m² 4,5 °C 2,0 °C 16,1 km/h (3 Bft)
16.11.2022 03:29 22,1 °C 5,9 °C 56 % 91 % 1004,7 hPa 0,0 l/m² 10,1 km/h (2 Bft) O-NO 62 ° 0 min 0 W/m² 4,5 °C 3,0 °C 16,1 km/h (3 Bft)
16.11.2022 03:30 22,1 °C 5,9 °C 56 % 91 % 1004,7 hPa 0,0 l/m² 7,4 km/h (2 Bft) O-NO 74 ° 0 min 0 W/m² 4,5 °C 5,0 °C 11,3 km/h (2 Bft)
16.11.2022 03:32 22,1 °C 5,9 °C 56 % 91 % 1004,6 hPa 0,0 l/m² 10,3 km/h (2 Bft) O 79 ° 0 min 0 W/m² 4,5 °C 2,9 °C 14,5 km/h (3 Bft)
16.11.2022 03:33 22,1 °C 5,9 °C 56 % 91 % 1004,6 hPa 0,0 l/m² 10,8 km/h (2 Bft) O-NO 74 ° 0 min 0 W/m² 4,5 °C 2,5 °C 12,9 km/h (3 Bft)
16.11.2022 03:35 22,1 °C 5,9 °C 56 % 91 % 1004,7 hPa 0,0 l/m² 9,6 km/h (2 Bft) O 88 ° 0 min 0 W/m² 4,5 °C 3,3 °C 14,5 km/h (3 Bft)
16.11.2022 03:37 22,1 °C 5,9 °C 56 % 91 % 1004,6 hPa 0,0 l/m² 8,9 km/h (2 Bft) O 84 ° 0 min 0 W/m² 4,5 °C 3,9 °C 12,9 km/h (3 Bft)
16.11.2022 03:39 22,1 °C 5,8 °C 56 % 91 % 1004,6 hPa 0,0 l/m² 9,6 km/h (2 Bft) O-NO 71 ° 0 min 0 W/m² 4,4 °C 3,2 °C 14,5 km/h (3 Bft)
16.11.2022 03:40 22,1 °C 5,8 °C 56 % 91 % 1004,6 hPa 0,0 l/m² 10,0 km/h (2 Bft) O-NO 73 ° 0 min 0 W/m² 4,4 °C 3,0 °C 12,9 km/h (3 Bft)
16.11.2022 03:42 22,1 °C 5,8 °C 56 % 91 % 1004,5 hPa 0,0 l/m² 8,0 km/h (2 Bft) O-NO 77 ° 0 min 0 W/m² 4,4 °C 4,4 °C 12,9 km/h (3 Bft)
16.11.2022 03:43 22,1 °C 5,8 °C 56 % 91 % 1004,5 hPa 0,0 l/m² 8,2 km/h (2 Bft) O-NO 76 ° 0 min 0 W/m² 4,4 °C 4,3 °C 11,3 km/h (2 Bft)
16.11.2022 03:45 22,1 °C 5,8 °C 56 % 91 % 1004,6 hPa 0,0 l/m² 7,3 km/h (2 Bft) O-NO 71 ° 0 min 0 W/m² 4,4 °C 5,0 °C 12,9 km/h (3 Bft)
16.11.2022 03:47 22,1 °C 5,7 °C 56 % 91 % 1004,6 hPa 0,0 l/m² 6,7 km/h (2 Bft) O-NO 60 ° 0 min 0 W/m² 4,3 °C 5,5 °C 11,3 km/h (2 Bft)
16.11.2022 03:48 22,1 °C 5,7 °C 56 % 91 % 1004,5 hPa 0,0 l/m² 6,7 km/h (2 Bft) O-NO 77 ° 0 min 0 W/m² 4,3 °C 5,5 °C 9,7 km/h (2 Bft)
16.11.2022 03:50 22,0 °C 5,7 °C 56 % 91 % 1004,5 hPa 0,0 l/m² 6,7 km/h (2 Bft) O 84 ° 0 min 0 W/m² 4,3 °C 5,5 °C 11,3 km/h (2 Bft)
16.11.2022 03:51 22,0 °C 5,7 °C 56 % 91 % 1004,5 hPa 0,0 l/m² 9,3 km/h (2 Bft) O-NO 72 ° 0 min 0 W/m² 4,3 °C 3,3 °C 12,9 km/h (3 Bft)
16.11.2022 03:52 22,1 °C 5,7 °C 56 % 91 % 1004,5 hPa 0,0 l/m² 6,4 km/h (2 Bft) O-NO 77 ° 0 min 0 W/m² 4,3 °C 5,7 °C 11,3 km/h (2 Bft)
16.11.2022 03:54 22,1 °C 5,7 °C 56 % 91 % 1004,5 hPa 0,0 l/m² 6,2 km/h (2 Bft) O 82 ° 0 min 0 W/m² 4,3 °C 5,7 °C 9,7 km/h (2 Bft)
16.11.2022 03:55 22,1 °C 5,7 °C 56 % 91 % 1004,5 hPa 0,0 l/m² 5,5 km/h (2 Bft) O-NO 61 ° 0 min 0 W/m² 4,3 °C 5,7 °C 8,0 km/h (2 Bft)
16.11.2022 03:56 22,1 °C 5,7 °C 56 % 91 % 1004,5 hPa 0,0 l/m² 6,7 km/h (2 Bft) O-NO 67 ° 0 min 0 W/m² 4,3 °C 5,5 °C 9,7 km/h (2 Bft)
16.11.2022 03:58 22,1 °C 5,7 °C 56 % 91 % 1004,6 hPa 0,0 l/m² 6,2 km/h (2 Bft) O 84 ° 0 min 0 W/m² 4,3 °C 5,7 °C 11,3 km/h (2 Bft)
16.11.2022 04:00 22,0 °C 5,6 °C 56 % 91 % 1004,4 hPa 0,0 l/m² 5,5 km/h (2 Bft) O-NO 74 ° 0 min 0 W/m² 4,2 °C 5,6 °C 8,0 km/h (2 Bft)
16.11.2022 04:01 22,0 °C 5,6 °C 56 % 91 % 1004,5 hPa 0,0 l/m² 7,2 km/h (2 Bft) O-NO 75 ° 0 min 0 W/m² 4,2 °C 4,9 °C 11,3 km/h (2 Bft)
16.11.2022 04:02 22,1 °C 5,6 °C 56 % 91 % 1004,5 hPa 0,0 l/m² 5,6 km/h (2 Bft) NO 55 ° 0 min 0 W/m² 4,2 °C 5,6 °C 8,0 km/h (2 Bft)
16.11.2022 04:04 22,0 °C 5,6 °C 56 % 91 % 1004,5 hPa 0,0 l/m² 7,4 km/h (2 Bft) O-NO 69 ° 0 min 0 W/m² 4,2 °C 4,7 °C 11,3 km/h (2 Bft)
16.11.2022 04:06 22,0 °C 5,6 °C 56 % 91 % 1004,5 hPa 0,0 l/m² 6,2 km/h (2 Bft) O-NO 74 ° 0 min 0 W/m² 4,2 °C 5,6 °C 11,3 km/h (2 Bft)
16.11.2022 04:08 22,0 °C 5,6 °C 56 % 91 % 1004,6 hPa 0,0 l/m² 4,9 km/h (1 Bft) NO 55 ° 0 min 0 W/m² 4,2 °C 5,6 °C 9,7 km/h (2 Bft)
16.11.2022 04:10 22,0 °C 5,5 °C 56 % 91 % 1004,5 hPa 0,0 l/m² 7,8 km/h (2 Bft) O-NO 71 ° 0 min 0 W/m² 4,2 °C 4,3 °C 14,5 km/h (3 Bft)
16.11.2022 04:11 22,0 °C 5,5 °C 56 % 91 % 1004,4 hPa 0,0 l/m² 7,8 km/h (2 Bft) N-NO 29 ° 0 min 0 W/m² 4,2 °C 4,3 °C 11,3 km/h (2 Bft)
16.11.2022 04:12 22,0 °C 5,5 °C 56 % 91 % 1004,4 hPa 0,0 l/m² 10,9 km/h (2 Bft) NO 42 ° 0 min 0 W/m² 4,2 °C 2,0 °C 17,7 km/h (3 Bft)
16.11.2022 04:14 22,0 °C 5,5 °C 56 % 91 % 1004,5 hPa 0,0 l/m² 7,0 km/h (2 Bft) NO 55 ° 0 min 0 W/m² 4,2 °C 5,0 °C 12,9 km/h (3 Bft)
16.11.2022 04:16 22,0 °C 5,5 °C 56 % 90 % 1004,4 hPa 0,0 l/m² 5,9 km/h (2 Bft) NO 53 ° 0 min 0 W/m² 4,0 °C 5,5 °C 12,9 km/h (3 Bft)
16.11.2022 04:18 22,0 °C 5,4 °C 56 % 91 % 1004,4 hPa 0,0 l/m² 5,6 km/h (2 Bft) NO 48 ° 0 min 0 W/m² 4,1 °C 5,4 °C 11,3 km/h (2 Bft)
16.11.2022 04:20 22,0 °C 5,4 °C 56 % 91 % 1004,4 hPa 0,0 l/m² 3,9 km/h (1 Bft) NO 55 ° 0 min 0 W/m² 4,1 °C 5,4 °C 9,7 km/h (2 Bft)
16.11.2022 04:21 22,0 °C 5,4 °C 56 % 90 % 1004,5 hPa 0,0 l/m² 5,5 km/h (2 Bft) O-NO 63 ° 0 min 0 W/m² 3,9 °C 5,4 °C 9,7 km/h (2 Bft)
16.11.2022 04:22 22,0 °C 5,4 °C 56 % 90 % 1004,4 hPa 0,0 l/m² 5,0 km/h (1 Bft) NO 53 ° 0 min 0 W/m² 3,9 °C 5,4 °C 8,0 km/h (2 Bft)
16.11.2022 04:24 22,0 °C 5,4 °C 56 % 90 % 1004,5 hPa 0,0 l/m² 6,6 km/h (2 Bft) NO 48 ° 0 min 0 W/m² 3,9 °C 5,2 °C 11,3 km/h (2 Bft)
16.11.2022 04:26 22,0 °C 5,4 °C 56 % 90 % 1004,5 hPa 0,0 l/m² 6,3 km/h (2 Bft) NO 39 ° 0 min 0 W/m² 3,9 °C 5,4 °C 14,5 km/h (3 Bft)
16.11.2022 04:28 22,0 °C 5,3 °C 56 % 90 % 1004,5 hPa 0,0 l/m² 7,8 km/h (2 Bft) NO 45 ° 0 min 0 W/m² 3,8 °C 4,1 °C 12,9 km/h (3 Bft)
16.11.2022 04:30 22,0 °C 5,3 °C 56 % 90 % 1004,4 hPa 0,0 l/m² 8,7 km/h (2 Bft) NO 34 ° 0 min 0 W/m² 3,8 °C 3,4 °C 14,5 km/h (3 Bft)
16.11.2022 04:31 21,9 °C 5,3 °C 56 % 90 % 1004,4 hPa 0,0 l/m² 6,4 km/h (2 Bft) O-NO 64 ° 0 min 0 W/m² 3,8 °C 5,3 °C 12,9 km/h (3 Bft)
16.11.2022 04:32 22,0 °C 5,3 °C 56 % 90 % 1004,4 hPa 0,0 l/m² 7,2 km/h (2 Bft) NO 46 ° 0 min 0 W/m² 3,8 °C 4,6 °C 14,5 km/h (3 Bft)
16.11.2022 04:33 22,0 °C 5,3 °C 56 % 90 % 1004,5 hPa 0,0 l/m² 7,6 km/h (2 Bft) NO 52 ° 0 min 0 W/m² 3,8 °C 4,3 °C 11,3 km/h (2 Bft)
16.11.2022 04:35 22,0 °C 5,3 °C 56 % 91 % 1004,5 hPa 0,0 l/m² 7,2 km/h (2 Bft) NO 55 ° 0 min 0 W/m² 4,0 °C 4,6 °C 12,9 km/h (3 Bft)
16.11.2022 04:37 22,0 °C 5,3 °C 56 % 91 % 1004,4 hPa 0,0 l/m² 6,8 km/h (2 Bft) O-NO 57 ° 0 min 0 W/m² 4,0 °C 5,0 °C 16,1 km/h (3 Bft)
16.11.2022 04:39 22,0 °C 5,2 °C 55 % 91 % 1004,5 hPa 0,0 l/m² 6,5 km/h (2 Bft) O-NO 74 ° 0 min 0 W/m² 3,9 °C 5,1 °C 11,3 km/h (2 Bft)
16.11.2022 04:40 21,9 °C 5,2 °C 55 % 91 % 1004,5 hPa 0,0 l/m² 9,5 km/h (2 Bft) O-NO 75 ° 0 min 0 W/m² 3,9 °C 2,7 °C 16,1 km/h (3 Bft)
16.11.2022 04:42 21,9 °C 5,2 °C 55 % 91 % 1004,5 hPa 0,0 l/m² 7,5 km/h (2 Bft) O-NO 76 ° 0 min 0 W/m² 3,9 °C 4,2 °C 16,1 km/h (3 Bft)
16.11.2022 04:43 21,9 °C 5,2 °C 55 % 91 % 1004,5 hPa 0,0 l/m² 12,5 km/h (2 Bft) O-NO 73 ° 0 min 0 W/m² 3,9 °C 0,7 °C 16,1 km/h (3 Bft)
16.11.2022 04:45 22,0 °C 5,2 °C 55 % 91 % 1004,6 hPa 0,0 l/m² 9,1 km/h (2 Bft) O 80 ° 0 min 0 W/m² 3,9 °C 2,9 °C 14,5 km/h (3 Bft)
16.11.2022 04:47 22,0 °C 5,2 °C 55 % 91 % 1004,6 hPa 0,0 l/m² 6,4 km/h (2 Bft) NO 48 ° 0 min 0 W/m² 3,9 °C 5,2 °C 16,1 km/h (3 Bft)
16.11.2022 04:49 21,9 °C 5,2 °C 56 % 91 % 1004,7 hPa 0,0 l/m² 8,6 km/h (2 Bft) O 82 ° 0 min 0 W/m² 3,9 °C 3,3 °C 14,5 km/h (3 Bft)
16.11.2022 04:51 22,0 °C 5,2 °C 55 % 91 % 1004,7 hPa 0,0 l/m² 3,8 km/h (1 Bft) O-NO 69 ° 0 min 0 W/m² 3,9 °C 5,2 °C 6,4 km/h (2 Bft)
16.11.2022 04:52 21,9 °C 5,1 °C 56 % 91 % 1004,8 hPa 0,0 l/m² 4,7 km/h (1 Bft) O 79 ° 0 min 0 W/m² 3,8 °C 5,1 °C 8,0 km/h (2 Bft)
16.11.2022 04:53 22,0 °C 5,1 °C 55 % 91 % 1004,8 hPa 0,0 l/m² 6,7 km/h (2 Bft) O-NO 65 ° 0 min 0 W/m² 3,8 °C 4,9 °C 8,0 km/h (2 Bft)
16.11.2022 04:55 22,0 °C 5,1 °C 56 % 90 % 1004,8 hPa 0,0 l/m² 5,0 km/h (1 Bft) O-NO 57 ° 0 min 0 W/m² 3,6 °C 5,1 °C 9,7 km/h (2 Bft)
16.11.2022 04:57 21,9 °C 5,1 °C 56 % 90 % 1004,8 hPa 0,0 l/m² 6,4 km/h (2 Bft) O 82 ° 0 min 0 W/m² 3,6 °C 5,1 °C 11,3 km/h (2 Bft)
16.11.2022 04:59 22,0 °C 5,1 °C 56 % 90 % 1004,7 hPa 0,0 l/m² 9,1 km/h (2 Bft) O-NO 59 ° 0 min 0 W/m² 3,6 °C 2,8 °C 14,5 km/h (3 Bft)
16.11.2022 05:01 21,9 °C 5,0 °C 56 % 90 % 1004,8 hPa 0,0 l/m² 7,2 km/h (2 Bft) O-NO 59 ° 0 min 0 W/m² 3,5 °C 4,3 °C 12,9 km/h (3 Bft)
16.11.2022 05:02 22,0 °C 5,0 °C 56 % 90 % 1004,7 hPa 0,0 l/m² 9,2 km/h (2 Bft) O-NO 74 ° 0 min 0 W/m² 3,5 °C 2,7 °C 14,5 km/h (3 Bft)
16.11.2022 05:03 22,0 °C 5,0 °C 56 % 91 % 1004,7 hPa 0,0 l/m² 7,7 km/h (2 Bft) O-NO 71 ° 0 min 0 W/m² 3,7 °C 3,9 °C 12,9 km/h (3 Bft)
16.11.2022 05:05 22,0 °C 5,0 °C 56 % 90 % 1004,6 hPa 0,0 l/m² 9,7 km/h (2 Bft) O-NO 78 ° 0 min 0 W/m² 3,5 °C 2,3 °C 14,5 km/h (3 Bft)
16.11.2022 05:07 22,0 °C 4,9 °C 56 % 91 % 1004,5 hPa 0,0 l/m² 8,5 km/h (2 Bft) O-NO 61 ° 0 min 0 W/m² 3,6 °C 3,1 °C 16,1 km/h (3 Bft)
16.11.2022 05:09 21,9 °C 4,9 °C 56 % 91 % 1004,5 hPa 0,0 l/m² 9,3 km/h (2 Bft) O-NO 71 ° 0 min 0 W/m² 3,6 °C 2,5 °C 14,5 km/h (3 Bft)
16.11.2022 05:11 22,0 °C 4,9 °C 56 % 91 % 1004,5 hPa 0,0 l/m² 10,2 km/h (2 Bft) NO 44 ° 0 min 0 W/m² 3,6 °C 1,8 °C 17,7 km/h (3 Bft)
16.11.2022 05:12 22,0 °C 4,9 °C 56 % 91 % 1004,4 hPa 0,0 l/m² 9,1 km/h (2 Bft) O-NO 59 ° 0 min 0 W/m² 3,6 °C 2,6 °C 16,1 km/h (3 Bft)
16.11.2022 05:13 22,0 °C 4,9 °C 56 % 91 % 1004,4 hPa 0,0 l/m² 12,5 km/h (2 Bft) NO 49 ° 0 min 0 W/m² 3,6 °C 0,3 °C 17,7 km/h (3 Bft)
16.11.2022 05:15 22,0 °C 4,9 °C 56 % 91 % 1004,4 hPa 0,0 l/m² 7,1 km/h (2 Bft) NO 41 ° 0 min 0 W/m² 3,6 °C 4,3 °C 14,5 km/h (3 Bft)
16.11.2022 05:17 22,0 °C 4,8 °C 56 % 91 % 1004,4 hPa 0,0 l/m² 5,3 km/h (1 Bft) O-NO 63 ° 0 min 0 W/m² 3,5 °C 4,8 °C 9,7 km/h (2 Bft)
16.11.2022 05:19 22,0 °C 4,8 °C 56 % 91 % 1004,5 hPa 0,0 l/m² 9,0 km/h (2 Bft) O 80 ° 0 min 0 W/m² 3,5 °C 2,6 °C 17,7 km/h (3 Bft)
16.11.2022 05:21 22,0 °C 4,8 °C 56 % 91 % 1004,6 hPa 0,0 l/m² 9,9 km/h (2 Bft) O-NO 67 ° 0 min 0 W/m² 3,5 °C 1,9 °C 16,1 km/h (3 Bft)
16.11.2022 05:22 22,0 °C 4,8 °C 56 % 91 % 1004,4 hPa 0,0 l/m² 6,1 km/h (2 Bft) O-NO 67 ° 0 min 0 W/m² 3,5 °C 4,8 °C 14,5 km/h (3 Bft)
16.11.2022 05:23 22,0 °C 4,8 °C 56 % 91 % 1004,4 hPa 0,0 l/m² 11,3 km/h (2 Bft) O 88 ° 0 min 0 W/m² 3,5 °C 1,0 °C 17,7 km/h (3 Bft)
16.11.2022 05:25 22,0 °C 4,8 °C 56 % 91 % 1004,5 hPa 0,0 l/m² 9,6 km/h (2 Bft) O 82 ° 0 min 0 W/m² 3,5 °C 2,1 °C 19,3 km/h (3 Bft)
16.11.2022 05:27 22,0 °C 4,8 °C 56 % 91 % 1004,4 hPa 0,0 l/m² 10,7 km/h (2 Bft) O-NO 78 ° 0 min 0 W/m² 3,5 °C 1,4 °C 19,3 km/h (3 Bft)
16.11.2022 05:29 22,0 °C 4,8 °C 56 % 91 % 1004,5 hPa 0,0 l/m² 9,8 km/h (2 Bft) O-NO 69 ° 0 min 0 W/m² 3,5 °C 2,0 °C 20,9 km/h (4 Bft)
16.11.2022 05:31 22,0 °C 4,8 °C 56 % 91 % 1004,4 hPa 0,0 l/m² 11,8 km/h (2 Bft) O-NO 62 ° 0 min 0 W/m² 3,5 °C 0,7 °C 20,9 km/h (4 Bft)
16.11.2022 05:32 22,0 °C 4,8 °C 56 % 91 % 1004,5 hPa 0,0 l/m² 14,5 km/h (3 Bft) O-NO 75 ° 0 min 0 W/m² 3,5 °C -0,9 °C 19,3 km/h (3 Bft)
16.11.2022 05:33 22,0 °C 4,8 °C 56 % 91 % 1004,5 hPa 0,0 l/m² 13,9 km/h (3 Bft) O 83 ° 0 min 0 W/m² 3,5 °C -0,6 °C 22,5 km/h (4 Bft)
16.11.2022 05:35 22,0 °C 4,8 °C 56 % 91 % 1004,4 hPa 0,0 l/m² 12,6 km/h (3 Bft) O-NO 63 ° 0 min 0 W/m² 3,5 °C 0,2 °C 19,3 km/h (3 Bft)
16.11.2022 05:37 22,0 °C 4,8 °C 56 % 91 % 1004,5 hPa 0,0 l/m² 10,8 km/h (2 Bft) O-NO 73 ° 0 min 0 W/m² 3,5 °C 1,3 °C 19,3 km/h (3 Bft)
16.11.2022 05:39 22,0 °C 4,8 °C 56 % 91 % 1004,5 hPa 0,0 l/m² 10,3 km/h (2 Bft) O 90 ° 0 min 0 W/m² 3,5 °C 1,6 °C 17,7 km/h (3 Bft)
16.11.2022 05:41 22,0 °C 4,8 °C 56 % 91 % 1004,5 hPa 0,0 l/m² 9,5 km/h (2 Bft) O 82 ° 0 min 0 W/m² 3,5 °C 2,2 °C 14,5 km/h (3 Bft)
16.11.2022 05:43 22,0 °C 4,8 °C 56 % 91 % 1004,6 hPa 0,0 l/m² 11,8 km/h (2 Bft) O-NO 78 ° 0 min 0 W/m² 3,5 °C 0,7 °C 19,3 km/h (3 Bft)
16.11.2022 05:44 22,0 °C 4,8 °C 56 % 91 % 1004,6 hPa 0,0 l/m² 12,0 km/h (2 Bft) O 86 ° 0 min 0 W/m² 3,5 °C 0,5 °C 19,3 km/h (3 Bft)
16.11.2022 05:46 22,0 °C 4,8 °C 56 % 91 % 1004,6 hPa 0,0 l/m² 8,4 km/h (2 Bft) O 87 ° 0 min 0 W/m² 3,5 °C 3,1 °C 14,5 km/h (3 Bft)
16.11.2022 05:48 22,0 °C 4,8 °C 56 % 91 % 1004,5 hPa 0,0 l/m² 9,3 km/h (2 Bft) O-NO 67 ° 0 min 0 W/m² 3,5 °C 2,4 °C 16,1 km/h (3 Bft)
16.11.2022 05:50 22,0 °C 4,8 °C 56 % 91 % 1004,6 hPa 0,0 l/m² 11,3 km/h (2 Bft) O-NO 72 ° 0 min 0 W/m² 3,5 °C 1,0 °C 17,7 km/h (3 Bft)
16.11.2022 05:51 21,9 °C 4,8 °C 56 % 91 % 1004,5 hPa 0,0 l/m² 10,1 km/h (2 Bft) O-NO 65 ° 0 min 0 W/m² 3,5 °C 1,8 °C 14,5 km/h (3 Bft)
16.11.2022 05:52 22,0 °C 4,8 °C 56 % 91 % 1004,5 hPa 0,0 l/m² 6,0 km/h (2 Bft) O-NO 61 ° 0 min 0 W/m² 3,5 °C 4,8 °C 8,0 km/h (2 Bft)
16.11.2022 05:53 22,0 °C 4,8 °C 56 % 91 % 1004,5 hPa 0,0 l/m² 10,0 km/h (2 Bft) NO 48 ° 0 min 0 W/m² 3,5 °C 1,9 °C 16,1 km/h (3 Bft)
16.11.2022 05:54 21,9 °C 4,8 °C 56 % 91 % 1004,5 hPa 0,0 l/m² 11,3 km/h (2 Bft) O-NO 78 ° 0 min 0 W/m² 3,5 °C 1,0 °C 20,9 km/h (4 Bft)
16.11.2022 05:55 21,9 °C 4,8 °C 56 % 91 % 1004,6 hPa 0,0 l/m² 6,6 km/h (2 Bft) O-NO 74 ° 0 min 0 W/m² 3,5 °C 4,6 °C 14,5 km/h (3 Bft)
16.11.2022 05:57 21,9 °C 4,8 °C 56 % 91 % 1004,6 hPa 0,0 l/m² 9,2 km/h (2 Bft) NO 55 ° 0 min 0 W/m² 3,5 °C 2,4 °C 17,7 km/h (3 Bft)
16.11.2022 05:59 21,9 °C 4,8 °C 56 % 91 % 1004,5 hPa 0,0 l/m² 11,5 km/h (2 Bft) O-NO 72 ° 0 min 0 W/m² 3,5 °C 0,8 °C 20,9 km/h (4 Bft)
16.11.2022 06:01 22,0 °C 4,8 °C 56 % 91 % 1004,5 hPa 0,0 l/m² 12,8 km/h (3 Bft) O-NO 73 ° 0 min 0 W/m² 3,5 °C 0,0 °C 20,9 km/h (4 Bft)
16.11.2022 06:02 21,9 °C 4,8 °C 56 % 91 % 1004,5 hPa 0,0 l/m² 10,5 km/h (2 Bft) O-NO 77 ° 0 min 0 W/m² 3,5 °C 1,5 °C 16,1 km/h (3 Bft)
16.11.2022 06:03 21,9 °C 4,8 °C 56 % 91 % 1004,5 hPa 0,0 l/m² 11,2 km/h (2 Bft) O-NO 76 ° 0 min 0 W/m² 3,5 °C 1,0 °C 16,1 km/h (3 Bft)
16.11.2022 06:05 21,9 °C 4,8 °C 56 % 91 % 1004,4 hPa 0,0 l/m² 10,2 km/h (2 Bft) NO 52 ° 0 min 0 W/m² 3,5 °C 1,7 °C 17,7 km/h (3 Bft)
16.11.2022 06:07 21,9 °C 4,8 °C 56 % 91 % 1004,4 hPa 0,0 l/m² 11,7 km/h (2 Bft) O-NO 74 ° 0 min 0 W/m² 3,5 °C 0,7 °C 20,9 km/h (4 Bft)
16.11.2022 06:09 21,9 °C 4,8 °C 56 % 91 % 1004,5 hPa 0,0 l/m² 11,8 km/h (2 Bft) NO 52 ° 0 min 0 W/m² 3,5 °C 0,7 °C 17,7 km/h (3 Bft)
16.11.2022 06:11 22,0 °C 4,8 °C 56 % 91 % 1004,4 hPa 0,0 l/m² 8,1 km/h (2 Bft) NO 51 ° 0 min 0 W/m² 3,5 °C 3,3 °C 17,7 km/h (3 Bft)
16.11.2022 06:12 21,9 °C 4,8 °C 56 % 91 % 1004,4 hPa 0,0 l/m² 11,1 km/h (2 Bft) O-NO 74 ° 0 min 0 W/m² 3,5 °C 1,1 °C 17,7 km/h (3 Bft)
16.11.2022 06:13 22,0 °C 4,8 °C 56 % 91 % 1004,4 hPa 0,0 l/m² 12,6 km/h (3 Bft) O 86 ° 0 min 0 W/m² 3,5 °C 0,2 °C 17,7 km/h (3 Bft)
16.11.2022 06:15 21,9 °C 4,8 °C 56 % 91 % 1004,3 hPa 0,0 l/m² 12,7 km/h (3 Bft) NO 36 ° 0 min 0 W/m² 3,5 °C 0,1 °C 19,3 km/h (3 Bft)
16.11.2022 06:17 21,9 °C 4,8 °C 56 % 91 % 1004,3 hPa 0,0 l/m² 12,2 km/h (2 Bft) O 94 ° 0 min 0 W/m² 3,5 °C 0,4 °C 22,5 km/h (4 Bft)
16.11.2022 06:19 22,0 °C 4,8 °C 56 % 91 % 1004,4 hPa 0,0 l/m² 11,4 km/h (2 Bft) O 93 ° 0 min 0 W/m² 3,5 °C 0,9 °C 16,1 km/h (3 Bft)
16.11.2022 06:21 21,9 °C 4,9 °C 56 % 91 % 1004,5 hPa 0,0 l/m² 10,3 km/h (2 Bft) O 83 ° 0 min 0 W/m² 3,6 °C 1,8 °C 14,5 km/h (3 Bft)
16.11.2022 06:22 21,9 °C 4,8 °C 56 % 91 % 1004,5 hPa 0,0 l/m² 12,2 km/h (2 Bft) O 96 ° 0 min 0 W/m² 3,5 °C 0,4 °C 19,3 km/h (3 Bft)
16.11.2022 06:23 22,0 °C 4,9 °C 56 % 91 % 1004,5 hPa 0,0 l/m² 14,6 km/h (3 Bft) NO 51 ° 0 min 0 W/m² 3,6 °C -0,8 °C 19,3 km/h (3 Bft)
16.11.2022 06:25 22,0 °C 4,8 °C 56 % 91 % 1004,5 hPa 0,0 l/m² 5,6 km/h (2 Bft) O 84 ° 0 min 0 W/m² 3,5 °C 4,8 °C 8,0 km/h (2 Bft)
16.11.2022 06:27 22,0 °C 4,8 °C 56 % 91 % 1004,6 hPa 0,0 l/m² 4,5 km/h (1 Bft) O 98 ° 0 min 0 W/m² 3,5 °C 4,8 °C 9,7 km/h (2 Bft)
16.11.2022 06:29 22,0 °C 4,8 °C 56 % 91 % 1004,6 hPa 0,0 l/m² 11,1 km/h (2 Bft) O 90 ° 0 min 0 W/m² 3,5 °C 1,1 °C 16,1 km/h (3 Bft)
16.11.2022 06:31 22,0 °C 4,8 °C 56 % 91 % 1004,5 hPa 0,0 l/m² 9,1 km/h (2 Bft) O 95 ° 0 min 0 W/m² 3,5 °C 2,5 °C 12,9 km/h (3 Bft)
16.11.2022 06:32 22,0 °C 4,8 °C 56 % 91 % 1004,6 hPa 0,0 l/m² 10,7 km/h (2 Bft) O 94 ° 0 min 0 W/m² 3,5 °C 1,4 °C 14,5 km/h (3 Bft)
16.11.2022 06:33 22,0 °C 4,8 °C 56 % 91 % 1004,5 hPa 0,0 l/m² 8,2 km/h (2 Bft) O 96 ° 0 min 0 W/m² 3,5 °C 3,2 °C 11,3 km/h (2 Bft)
16.11.2022 06:35 22,0 °C 4,8 °C 56 % 92 % 1004,6 hPa 0,0 l/m² 9,5 km/h (2 Bft) O 82 ° 0 min 0 W/m² 3,6 °C 2,2 °C 14,5 km/h (3 Bft)
16.11.2022 06:37 22,0 °C 4,8 °C 56 % 92 % 1004,6 hPa 0,0 l/m² 7,3 km/h (2 Bft) O 90 ° 0 min 0 W/m² 3,6 °C 4,0 °C 11,3 km/h (2 Bft)
16.11.2022 06:39 21,9 °C 4,8 °C 56 % 92 % 1004,8 hPa 0,0 l/m² 9,0 km/h (2 Bft) O 90 ° 0 min 0 W/m² 3,6 °C 2,6 °C 14,5 km/h (3 Bft)
16.11.2022 06:41 22,1 °C 4,8 °C 56 % 92 % 1004,7 hPa 0,0 l/m² 8,9 km/h (2 Bft) O 93 ° 0 min 0 W/m² 3,6 °C 2,7 °C 11,3 km/h (2 Bft)
16.11.2022 06:42 22,0 °C 4,8 °C 56 % 92 % 1004,7 hPa 0,0 l/m² 8,8 km/h (2 Bft) O 85 ° 0 min 0 W/m² 3,6 °C 2,7 °C 12,9 km/h (3 Bft)
16.11.2022 06:43 22,0 °C 4,8 °C 56 % 92 % 1004,8 hPa 0,0 l/m² 7,1 km/h (2 Bft) O 91 ° 0 min 0 W/m² 3,6 °C 4,2 °C 9,7 km/h (2 Bft)
16.11.2022 06:45 22,0 °C 4,8 °C 56 % 92 % 1004,7 hPa 0,0 l/m² 7,4 km/h (2 Bft) O-SO 110 ° 0 min 0 W/m² 3,6 °C 3,9 °C 9,7 km/h (2 Bft)
16.11.2022 06:47 22,0 °C 4,8 °C 56 % 92 % 1004,7 hPa 0,0 l/m² 10,0 km/h (2 Bft) O 94 ° 0 min 0 W/m² 3,6 °C 1,9 °C 12,9 km/h (3 Bft)
16.11.2022 06:48 22,0 °C 4,8 °C 56 % 92 % 1004,7 hPa 0,0 l/m² 7,1 km/h (2 Bft) O-SO 103 ° 0 min 0 W/m² 3,6 °C 4,2 °C 9,7 km/h (2 Bft)
16.11.2022 06:50 22,0 °C 4,8 °C 56 % 92 % 1004,8 hPa 0,0 l/m² 10,6 km/h (2 Bft) O 88 ° 0 min 0 W/m² 3,6 °C 1,4 °C 14,5 km/h (3 Bft)
16.11.2022 06:51 22,1 °C 4,8 °C 56 % 92 % 1004,7 hPa 0,0 l/m² 12,3 km/h (2 Bft) O 92 ° 0 min 0 W/m² 3,6 °C 0,3 °C 14,5 km/h (3 Bft)
16.11.2022 06:52 22,0 °C 4,8 °C 56 % 92 % 1004,7 hPa 0,0 l/m² 10,5 km/h (2 Bft) O-NO 74 ° 0 min 0 W/m² 3,6 °C 1,5 °C 12,9 km/h (3 Bft)
16.11.2022 06:53 22,0 °C 4,8 °C 56 % 92 % 1004,7 hPa 0,0 l/m² 11,0 km/h (2 Bft) O-NO 76 ° 0 min 0 W/m² 3,6 °C 1,2 °C 14,5 km/h (3 Bft)
16.11.2022 06:55 22,0 °C 4,8 °C 56 % 92 % 1004,7 hPa 0,0 l/m² 11,6 km/h (2 Bft) O 93 ° 0 min 0 W/m² 3,6 °C 0,8 °C 17,7 km/h (3 Bft)
16.11.2022 06:57 22,1 °C 4,8 °C 56 % 92 % 1004,6 hPa 0,0 l/m² 11,3 km/h (2 Bft) O 85 ° 0 min 0 W/m² 3,6 °C 1,0 °C 16,1 km/h (3 Bft)
16.11.2022 06:59 22,1 °C 4,8 °C 56 % 92 % 1004,5 hPa 0,0 l/m² 10,8 km/h (2 Bft) O-NO 71 ° 0 min 0 W/m² 3,6 °C 1,3 °C 17,7 km/h (3 Bft)
16.11.2022 07:01 22,0 °C 4,8 °C 56 % 92 % 1004,6 hPa 0,0 l/m² 12,4 km/h (2 Bft) NO 46 ° 0 min 0 W/m² 3,6 °C 0,3 °C 17,7 km/h (3 Bft)
16.11.2022 07:02 22,0 °C 4,8 °C 56 % 92 % 1004,5 hPa 0,0 l/m² 9,1 km/h (2 Bft) NO 54 ° 0 min 0 W/m² 3,6 °C 2,5 °C 12,9 km/h (3 Bft)
16.11.2022 07:03 22,0 °C 4,8 °C 56 % 92 % 1004,5 hPa 0,0 l/m² 8,1 km/h (2 Bft) O-NO 69 ° 0 min 0 W/m² 3,6 °C 3,3 °C 14,5 km/h (3 Bft)
16.11.2022 07:06 22,0 °C 4,8 °C 56 % 92 % 1004,5 hPa 0,0 l/m² 10,6 km/h (2 Bft) O-NO 73 ° 0 min 0 W/m² 3,6 °C 1,4 °C 17,7 km/h (3 Bft)
16.11.2022 07:08 22,0 °C 4,9 °C 55 % 92 % 1004,5 hPa 0,0 l/m² 11,5 km/h (2 Bft) O 84 ° 0 min 0 W/m² 3,7 °C 1,0 °C 17,7 km/h (3 Bft)
16.11.2022 07:10 22,1 °C 4,9 °C 55 % 92 % 1004,5 hPa 0,0 l/m² 11,1 km/h (2 Bft) O-NO 57 ° 0 min 0 W/m² 3,7 °C 1,2 °C 19,3 km/h (3 Bft)
16.11.2022 07:11 22,0 °C 4,9 °C 55 % 92 % 1004,4 hPa 0,0 l/m² 14,8 km/h (3 Bft) O-NO 67 ° 0 min 0 W/m² 3,7 °C -0,9 °C 24,1 km/h (4 Bft)
16.11.2022 07:12 22,0 °C 4,9 °C 55 % 92 % 1004,5 hPa 0,0 l/m² 13,9 km/h (3 Bft) O-NO 69 ° 0 min 0 W/m² 3,7 °C -0,5 °C 22,5 km/h (4 Bft)
16.11.2022 07:13 22,0 °C 4,9 °C 55 % 92 % 1004,5 hPa 0,0 l/m² 12,0 km/h (2 Bft) O-NO 60 ° 0 min 0 W/m² 3,7 °C 0,6 °C 16,1 km/h (3 Bft)
16.11.2022 07:15 22,0 °C 4,9 °C 55 % 92 % 1004,4 hPa 0,0 l/m² 13,7 km/h (3 Bft) NO 54 ° 0 min 0 W/m² 3,7 °C -0,4 °C 20,9 km/h (4 Bft)
16.11.2022 07:17 22,0 °C 4,9 °C 55 % 92 % 1004,4 hPa 0,0 l/m² 14,3 km/h (3 Bft) O-NO 68 ° 0 min 0 W/m² 3,7 °C -0,7 °C 20,9 km/h (4 Bft)
16.11.2022 07:19 22,0 °C 4,9 °C 55 % 92 % 1004,4 hPa 0,0 l/m² 11,6 km/h (2 Bft) O-NO 61 ° 0 min 0 W/m² 3,7 °C 0,9 °C 19,3 km/h (3 Bft)
16.11.2022 07:21 22,0 °C 4,9 °C 55 % 92 % 1004,5 hPa 0,0 l/m² 14,3 km/h (3 Bft) O 86 ° 0 min 0 W/m² 3,7 °C -0,7 °C 19,3 km/h (3 Bft)
16.11.2022 07:22 22,0 °C 4,9 °C 55 % 92 % 1004,4 hPa 0,0 l/m² 11,6 km/h (2 Bft) O 82 ° 0 min 0 W/m² 3,7 °C 0,9 °C 22,5 km/h (4 Bft)
16.11.2022 07:23 22,0 °C 4,9 °C 55 % 92 % 1004,4 hPa 0,0 l/m² 12,3 km/h (2 Bft) O-NO 65 ° 0 min 0 W/m² 3,7 °C 0,5 °C 19,3 km/h (3 Bft)
16.11.2022 07:26 22,0 °C 5,0 °C 55 % 92 % 1004,5 hPa 0,0 l/m² 12,2 km/h (2 Bft) O-NO 78 ° 0 min 0 W/m² 3,8 °C 0,6 °C 19,3 km/h (3 Bft)
16.11.2022 07:28 22,0 °C 5,0 °C 55 % 92 % 1004,4 hPa 0,0 l/m² 11,7 km/h (2 Bft) O 84 ° 0 min 0 W/m² 3,8 °C 0,9 °C 17,7 km/h (3 Bft)
16.11.2022 07:30 22,0 °C 5,0 °C 55 % 92 % 1004,5 hPa 0,0 l/m² 11,4 km/h (2 Bft) O 88 ° 0 min 0 W/m² 3,8 °C 1,1 °C 17,7 km/h (3 Bft)
16.11.2022 07:31 22,0 °C 5,0 °C 55 % 92 % 1004,5 hPa 0,0 l/m² 10,5 km/h (2 Bft) O 79 ° 0 min 0 W/m² 3,8 °C 1,7 °C 14,5 km/h (3 Bft)
16.11.2022 07:32 22,0 °C 5,0 °C 55 % 92 % 1004,5 hPa 0,0 l/m² 9,5 km/h (2 Bft) O 80 ° 0 min 0 W/m² 3,8 °C 2,4 °C 12,9 km/h (3 Bft)
16.11.2022 07:33 22,0 °C 5,1 °C 55 % 92 % 1004,5 hPa 0,0 l/m² 9,4 km/h (2 Bft) O-NO 73 ° 0 min 0 W/m² 3,9 °C 2,6 °C 12,9 km/h (3 Bft)
16.11.2022 07:36 22,0 °C 5,1 °C 55 % 92 % 1004,5 hPa 0,0 l/m² 9,1 km/h (2 Bft) O-NO 74 ° 0 min 0 W/m² 3,9 °C 2,8 °C 14,5 km/h (3 Bft)
16.11.2022 07:38 22,0 °C 5,1 °C 55 % 92 % 1004,5 hPa 0,0 l/m² 12,5 km/h (2 Bft) O 82 ° 0 min 0 W/m² 3,9 °C 0,6 °C 17,7 km/h (3 Bft)
16.11.2022 07:40 21,9 °C 5,1 °C 55 % 92 % 1004,6 hPa 0,0 l/m² 10,0 km/h (2 Bft) O-NO 74 ° 0 min 0 W/m² 3,9 °C 2,2 °C 16,1 km/h (3 Bft)
16.11.2022 07:41 21,9 °C 5,1 °C 55 % 92 % 1004,5 hPa 0,0 l/m² 8,3 km/h (2 Bft) O-SO 109 ° 0 min 0 W/m² 3,9 °C 3,5 °C 12,9 km/h (3 Bft)
16.11.2022 07:42 22,0 °C 5,1 °C 55 % 92 % 1004,6 hPa 0,0 l/m² 11,1 km/h (2 Bft) O 81 ° 0 min 0 W/m² 3,9 °C 1,4 °C 14,5 km/h (3 Bft)
16.11.2022 07:43 22,0 °C 5,1 °C 55 % 92 % 1004,5 hPa 0,0 l/m² 6,8 km/h (2 Bft) O 82 ° 0 min 0 W/m² 3,9 °C 4,8 °C 11,3 km/h (2 Bft)
16.11.2022 07:46 22,0 °C 5,1 °C 55 % 92 % 1004,6 hPa 0,0 l/m² 10,7 km/h (2 Bft) O 82 ° 0 min 0 W/m² 3,9 °C 1,7 °C 17,7 km/h (3 Bft)
16.11.2022 07:48 22,0 °C 5,1 °C 55 % 92 % 1004,6 hPa 0,0 l/m² 7,0 km/h (2 Bft) O 88 ° 0 min 0 W/m² 3,9 °C 4,6 °C 11,3 km/h (2 Bft)
16.11.2022 07:50 21,9 °C 5,1 °C 55 % 92 % 1004,6 hPa 0,0 l/m² 7,4 km/h (2 Bft) NO 53 ° 0 min 5 W/m² 3,9 °C 4,2 °C 11,3 km/h (2 Bft)
16.11.2022 07:51 21,9 °C 5,1 °C 55 % 92 % 1004,5 hPa 0,0 l/m² 8,3 km/h (2 Bft) O-NO 65 ° 0 min 5 W/m² 3,9 °C 3,5 °C 12,9 km/h (3 Bft)
16.11.2022 07:52 22,0 °C 5,1 °C 55 % 92 % 1004,6 hPa 0,0 l/m² 12,5 km/h (2 Bft) O-NO 78 ° 0 min 5 W/m² 3,9 °C 0,6 °C 16,1 km/h (3 Bft)
16.11.2022 07:53 21,9 °C 5,1 °C 55 % 92 % 1004,5 hPa 0,0 l/m² 10,9 km/h (2 Bft) O 82 ° 0 min 7 W/m² 3,9 °C 1,6 °C 12,9 km/h (3 Bft)
16.11.2022 07:56 21,9 °C 5,1 °C 55 % 92 % 1004,5 hPa 0,0 l/m² 9,2 km/h (2 Bft) O 86 ° 0 min 9 W/m² 3,9 °C 2,8 °C 14,5 km/h (3 Bft)
16.11.2022 07:58 21,9 °C 5,1 °C 55 % 92 % 1004,5 hPa 0,0 l/m² 8,9 km/h (2 Bft) O 84 ° 0 min 9 W/m² 3,9 °C 3,0 °C 12,9 km/h (3 Bft)
16.11.2022 08:00 22,0 °C 5,1 °C 55 % 92 % 1004,5 hPa 0,0 l/m² 10,6 km/h (2 Bft) O 83 ° 0 min 11 W/m² 3,9 °C 1,8 °C 16,1 km/h (3 Bft)
16.11.2022 08:01 21,9 °C 5,1 °C 55 % 92 % 1004,4 hPa 0,0 l/m² 9,8 km/h (2 Bft) O-NO 61 ° 0 min 11 W/m² 3,9 °C 2,3 °C 16,1 km/h (3 Bft)
16.11.2022 08:02 21,9 °C 5,1 °C 55 % 92 % 1004,5 hPa 0,0 l/m² 10,5 km/h (2 Bft) O-NO 69 ° 0 min 12 W/m² 3,9 °C 1,8 °C 16,1 km/h (3 Bft)
16.11.2022 08:03 21,9 °C 5,1 °C 55 % 92 % 1004,5 hPa 0,0 l/m² 12,3 km/h (2 Bft) O-NO 74 ° 0 min 12 W/m² 3,9 °C 0,7 °C 16,1 km/h (3 Bft)
16.11.2022 08:06 22,0 °C 5,2 °C 55 % 92 % 1004,4 hPa 0,0 l/m² 9,5 km/h (2 Bft) O 88 ° 0 min 14 W/m² 4,0 °C 2,7 °C 14,5 km/h (3 Bft)
16.11.2022 08:08 21,9 °C 5,2 °C 55 % 92 % 1004,5 hPa 0,0 l/m² 12,9 km/h (3 Bft) O 81 ° 0 min 14 W/m² 4,0 °C 0,5 °C 17,7 km/h (3 Bft)
16.11.2022 08:10 21,9 °C 5,2 °C 55 % 92 % 1004,5 hPa 0,0 l/m² 11,8 km/h (2 Bft) O-NO 73 ° 0 min 16 W/m² 4,0 °C 1,1 °C 17,7 km/h (3 Bft)
16.11.2022 08:11 22,0 °C 5,2 °C 55 % 92 % 1004,5 hPa 0,0 l/m² 11,8 km/h (2 Bft) O 82 ° 0 min 16 W/m² 4,0 °C 1,1 °C 14,5 km/h (3 Bft)
16.11.2022 08:12 21,9 °C 5,2 °C 55 % 92 % 1004,5 hPa 0,0 l/m² 10,9 km/h (2 Bft) O 80 ° 0 min 16 W/m² 4,0 °C 1,7 °C 14,5 km/h (3 Bft)
16.11.2022 08:13 21,9 °C 5,2 °C 55 % 92 % 1004,5 hPa 0,0 l/m² 13,5 km/h (3 Bft) O 89 ° 0 min 18 W/m² 4,0 °C 0,1 °C 17,7 km/h (3 Bft)
16.11.2022 08:16 21,9 °C 5,2 °C 55 % 92 % 1004,5 hPa 0,0 l/m² 13,1 km/h (3 Bft) O-NO 61 ° 0 min 18 W/m² 4,0 °C 0,3 °C 19,3 km/h (3 Bft)
16.11.2022 08:18 21,9 °C 5,2 °C 55 % 92 % 1004,5 hPa 0,0 l/m² 9,0 km/h (2 Bft) O-NO 73 ° 0 min 19 W/m² 4,0 °C 3,0 °C 14,5 km/h (3 Bft)
16.11.2022 08:20 21,9 °C 5,2 °C 55 % 92 % 1004,4 hPa 0,0 l/m² 8,3 km/h (2 Bft) O 95 ° 0 min 19 W/m² 4,0 °C 3,6 °C 14,5 km/h (3 Bft)
16.11.2022 08:21 21,9 °C 5,2 °C 55 % 92 % 1004,4 hPa 0,0 l/m² 12,1 km/h (2 Bft) O 85 ° 0 min 19 W/m² 4,0 °C 0,9 °C 14,5 km/h (3 Bft)
16.11.2022 08:22 21,9 °C 5,2 °C 55 % 92 % 1004,5 hPa 0,0 l/m² 15,3 km/h (3 Bft) O-NO 76 ° 0 min 21 W/m² 4,0 °C -0,8 °C 19,3 km/h (3 Bft)
16.11.2022 08:23 21,9 °C 5,2 °C 55 % 92 % 1004,5 hPa 0,0 l/m² 14,4 km/h (3 Bft) O-NO 78 ° 0 min 21 W/m² 4,0 °C -0,4 °C 16,1 km/h (3 Bft)
16.11.2022 08:26 21,9 °C 5,2 °C 55 % 92 % 1004,5 hPa 0,0 l/m² 8,3 km/h (2 Bft) O-NO 73 ° 0 min 21 W/m² 4,0 °C 3,6 °C 12,9 km/h (3 Bft)
16.11.2022 08:28 21,9 °C 5,2 °C 55 % 92 % 1004,5 hPa 0,0 l/m² 10,2 km/h (2 Bft) O-NO 76 ° 0 min 23 W/m² 4,0 °C 2,2 °C 14,5 km/h (3 Bft)
16.11.2022 08:30 21,9 °C 5,2 °C 55 % 92 % 1004,6 hPa 0,0 l/m² 12,3 km/h (2 Bft) O 86 ° 0 min 23 W/m² 4,0 °C 0,8 °C 17,7 km/h (3 Bft)
16.11.2022 08:31 21,9 °C 5,3 °C 55 % 92 % 1004,6 hPa 0,0 l/m² 10,6 km/h (2 Bft) O-NO 71 ° 0 min 23 W/m² 4,1 °C 2,0 °C 14,5 km/h (3 Bft)
16.11.2022 08:32 21,9 °C 5,3 °C 55 % 92 % 1004,6 hPa 0,0 l/m² 8,3 km/h (2 Bft) O 80 ° 0 min 23 W/m² 4,1 °C 3,7 °C 12,9 km/h (3 Bft)
16.11.2022 08:33 21,9 °C 5,3 °C 55 % 92 % 1004,6 hPa 0,0 l/m² 6,8 km/h (2 Bft) O 97 ° 0 min 23 W/m² 4,1 °C 5,0 °C 11,3 km/h (2 Bft)
16.11.2022 08:36 21,9 °C 5,3 °C 55 % 92 % 1004,6 hPa 0,0 l/m² 9,6 km/h (2 Bft) O 82 ° 0 min 23 W/m² 4,1 °C 2,7 °C 14,5 km/h (3 Bft)
16.11.2022 08:38 21,9 °C 5,3 °C 55 % 93 % 1004,7 hPa 0,0 l/m² 8,5 km/h (2 Bft) O 82 ° 0 min 23 W/m² 4,3 °C 3,5 °C 12,9 km/h (3 Bft)
16.11.2022 08:40 21,9 °C 5,3 °C 55 % 93 % 1004,5 hPa 0,0 l/m² 11,5 km/h (2 Bft) O 91 ° 0 min 25 W/m² 4,3 °C 1,4 °C 14,5 km/h (3 Bft)
16.11.2022 08:41 21,9 °C 5,3 °C 55 % 93 % 1004,5 hPa 0,0 l/m² 10,7 km/h (2 Bft) O 81 ° 0 min 26 W/m² 4,3 °C 1,9 °C 14,5 km/h (3 Bft)
16.11.2022 08:42 21,9 °C 5,3 °C 55 % 93 % 1004,5 hPa 0,0 l/m² 12,6 km/h (3 Bft) O 99 ° 0 min 26 W/m² 4,3 °C 0,7 °C 16,1 km/h (3 Bft)
16.11.2022 08:43 21,9 °C 5,3 °C 55 % 93 % 1004,5 hPa 0,0 l/m² 12,5 km/h (2 Bft) O 84 ° 0 min 26 W/m² 4,3 °C 0,8 °C 16,1 km/h (3 Bft)
16.11.2022 08:44 21,9 °C 5,3 °C 55 % 93 % 1004,6 hPa 0,0 l/m² 11,9 km/h (2 Bft) O 82 ° 0 min 28 W/m² 4,3 °C 1,2 °C 16,1 km/h (3 Bft)
16.11.2022 08:46 21,9 °C 5,3 °C 55 % 93 % 1004,6 hPa 0,0 l/m² 11,9 km/h (2 Bft) O-SO 102 ° 0 min 28 W/m² 4,3 °C 1,2 °C 14,5 km/h (3 Bft)
16.11.2022 08:48 21,9 °C 5,3 °C 55 % 93 % 1004,5 hPa 0,0 l/m² 12,2 km/h (2 Bft) O 84 ° 0 min 32 W/m² 4,3 °C 1,0 °C 19,3 km/h (3 Bft)
16.11.2022 08:50 21,9 °C 5,3 °C 55 % 93 % 1004,5 hPa 0,0 l/m² 15,8 km/h (3 Bft) O 84 ° 0 min 33 W/m² 4,3 °C -1,0 °C 19,3 km/h (3 Bft)
16.11.2022 08:51 21,9 °C 5,3 °C 55 % 93 % 1004,5 hPa 0,0 l/m² 13,4 km/h (3 Bft) O-NO 75 ° 0 min 35 W/m² 4,3 °C 0,3 °C 17,7 km/h (3 Bft)
16.11.2022 08:52 21,9 °C 5,3 °C 55 % 93 % 1004,5 hPa 0,0 l/m² 16,1 km/h (3 Bft) O 79 ° 0 min 35 W/m² 4,3 °C -1,1 °C 17,7 km/h (3 Bft)
16.11.2022 08:53 21,9 °C 5,3 °C 55 % 93 % 1004,6 hPa 0,0 l/m² 15,0 km/h (3 Bft) O-NO 76 ° 0 min 35 W/m² 4,3 °C -0,6 °C 19,3 km/h (3 Bft)
16.11.2022 08:54 21,9 °C 5,3 °C 55 % 93 % 1004,5 hPa 0,0 l/m² 13,1 km/h (3 Bft) O 88 ° 0 min 37 W/m² 4,3 °C 0,5 °C 17,7 km/h (3 Bft)
16.11.2022 08:56 21,9 °C 5,3 °C 55 % 93 % 1004,5 hPa 0,0 l/m² 12,4 km/h (2 Bft) O-NO 69 ° 0 min 39 W/m² 4,3 °C 0,9 °C 17,7 km/h (3 Bft)
16.11.2022 08:58 21,9 °C 5,4 °C 55 % 93 % 1004,4 hPa 0,0 l/m² 12,3 km/h (2 Bft) O-NO 76 ° 0 min 39 W/m² 4,4 °C 1,0 °C 17,7 km/h (3 Bft)
16.11.2022 09:00 21,9 °C 5,4 °C 55 % 93 % 1004,5 hPa 0,0 l/m² 16,0 km/h (3 Bft) O 79 ° 0 min 39 W/m² 4,4 °C -0,9 °C 19,3 km/h (3 Bft)
16.11.2022 09:01 21,9 °C 5,4 °C 55 % 93 % 1004,5 hPa 0,0 l/m² 12,6 km/h (3 Bft) O-NO 74 ° 0 min 40 W/m² 4,4 °C 0,9 °C 16,1 km/h (3 Bft)
16.11.2022 09:02 21,9 °C 5,4 °C 55 % 93 % 1004,5 hPa 0,0 l/m² 13,5 km/h (3 Bft) O 98 ° 0 min 40 W/m² 4,4 °C 0,4 °C 16,1 km/h (3 Bft)
16.11.2022 09:03 21,9 °C 5,4 °C 55 % 93 % 1004,5 hPa 0,0 l/m² 8,4 km/h (2 Bft) O 83 ° 0 min 40 W/m² 4,4 °C 3,7 °C 12,9 km/h (3 Bft)
16.11.2022 09:05 21,9 °C 5,4 °C 55 % 93 % 1004,5 hPa 0,0 l/m² 11,1 km/h (2 Bft) O 89 ° 0 min 40 W/m² 4,4 °C 1,8 °C 14,5 km/h (3 Bft)
16.11.2022 09:06 21,9 °C 5,4 °C 55 % 93 % 1004,5 hPa 0,0 l/m² 10,9 km/h (2 Bft) O 95 ° 0 min 39 W/m² 4,4 °C 1,9 °C 14,5 km/h (3 Bft)
16.11.2022 09:08 21,9 °C 5,4 °C 55 % 93 % 1004,5 hPa 0,0 l/m² 8,7 km/h (2 Bft) O 85 ° 0 min 39 W/m² 4,4 °C 3,5 °C 14,5 km/h (3 Bft)
16.11.2022 09:10 21,9 °C 5,5 °C 55 % 92 % 1004,5 hPa 0,0 l/m² 11,7 km/h (2 Bft) O 85 ° 0 min 39 W/m² 4,3 °C 1,5 °C 17,7 km/h (3 Bft)
16.11.2022 09:11 21,8 °C 5,5 °C 55 % 92 % 1004,5 hPa 0,0 l/m² 5,4 km/h (2 Bft) O-NO 66 ° 0 min 39 W/m² 4,3 °C 5,5 °C 9,7 km/h (2 Bft)
16.11.2022 09:12 21,9 °C 5,5 °C 55 % 92 % 1004,5 hPa 0,0 l/m² 5,1 km/h (1 Bft) O 86 ° 0 min 39 W/m² 4,3 °C 5,5 °C 9,7 km/h (2 Bft)
16.11.2022 09:13 21,9 °C 5,5 °C 55 % 92 % 1004,5 hPa 0,0 l/m² 4,0 km/h (1 Bft) O-NO 74 ° 0 min 39 W/m² 4,3 °C 5,5 °C 4,8 km/h (1 Bft)
16.11.2022 09:16 21,8 °C 5,5 °C 55 % 92 % 1004,5 hPa 0,0 l/m² 7,2 km/h (2 Bft) O 85 ° 0 min 37 W/m² 4,3 °C 4,8 °C 14,5 km/h (3 Bft)
16.11.2022 09:18 21,8 °C 5,6 °C 55 % 92 % 1004,4 hPa 0,0 l/m² 8,5 km/h (2 Bft) O 82 ° 0 min 37 W/m² 4,4 °C 3,8 °C 12,9 km/h (3 Bft)
16.11.2022 09:20 21,8 °C 5,6 °C 55 % 92 % 1004,4 hPa 0,0 l/m² 12,1 km/h (2 Bft) O-NO 78 ° 0 min 37 W/m² 4,4 °C 1,4 °C 16,1 km/h (3 Bft)
16.11.2022 09:21 21,8 °C 5,6 °C 55 % 92 % 1004,4 hPa 0,0 l/m² 6,9 km/h (2 Bft) O-NO 77 ° 0 min 37 W/m² 4,4 °C 5,2 °C 9,7 km/h (2 Bft)
16.11.2022 09:22 21,8 °C 5,6 °C 55 % 92 % 1004,4 hPa 0,0 l/m² 7,8 km/h (2 Bft) O 82 ° 0 min 37 W/m² 4,4 °C 4,4 °C 9,7 km/h (2 Bft)
16.11.2022 09:23 21,8 °C 5,6 °C 55 % 92 % 1004,4 hPa 0,0 l/m² 6,9 km/h (2 Bft) O-NO 67 ° 0 min 37 W/m² 4,4 °C 5,2 °C 11,3 km/h (2 Bft)
16.11.2022 09:24 21,8 °C 5,6 °C 55 % 92 % 1004,4 hPa 0,0 l/m² 8,4 km/h (2 Bft) O 94 ° 0 min 37 W/m² 4,4 °C 3,9 °C 12,9 km/h (3 Bft)
16.11.2022 09:26 21,8 °C 5,6 °C 55 % 92 % 1004,4 hPa 0,0 l/m² 7,8 km/h (2 Bft) O 87 ° 0 min 37 W/m² 4,4 °C 4,4 °C 11,3 km/h (2 Bft)
16.11.2022 09:28 21,9 °C 5,6 °C 55 % 92 % 1004,3 hPa 0,0 l/m² 11,7 km/h (2 Bft) O 82 ° 0 min 37 W/m² 4,4 °C 1,6 °C 16,1 km/h (3 Bft)
16.11.2022 09:30 21,8 °C 5,6 °C 55 % 92 % 1004,4 hPa 0,0 l/m² 7,1 km/h (2 Bft) O 80 ° 0 min 37 W/m² 4,4 °C 5,0 °C 11,3 km/h (2 Bft)
16.11.2022 09:31 21,8 °C 5,6 °C 55 % 92 % 1004,4 hPa 0,0 l/m² 8,8 km/h (2 Bft) O 80 ° 0 min 37 W/m² 4,4 °C 3,6 °C 12,9 km/h (3 Bft)
16.11.2022 09:32 21,8 °C 5,6 °C 55 % 92 % 1004,3 hPa 0,0 l/m² 7,9 km/h (2 Bft) O-NO 78 ° 0 min 35 W/m² 4,4 °C 4,3 °C 11,3 km/h (2 Bft)
16.11.2022 09:33 21,8 °C 5,6 °C 55 % 92 % 1004,3 hPa 0,0 l/m² 5,1 km/h (1 Bft) O-NO 77 ° 0 min 35 W/m² 4,4 °C 5,6 °C 8,0 km/h (2 Bft)
16.11.2022 09:36 21,8 °C 5,6 °C 55 % 92 % 1004,3 hPa 0,0 l/m² 8,0 km/h (2 Bft) O-NO 69 ° 0 min 35 W/m² 4,4 °C 4,2 °C 12,9 km/h (3 Bft)
16.11.2022 09:38 21,8 °C 5,6 °C 55 % 92 % 1004,3 hPa 0,0 l/m² 9,8 km/h (2 Bft) O 85 ° 0 min 35 W/m² 4,4 °C 2,9 °C 12,9 km/h (3 Bft)
16.11.2022 09:40 21,8 °C 5,6 °C 55 % 92 % 1004,3 hPa 0,0 l/m² 7,3 km/h (2 Bft) O-NO 78 ° 0 min 35 W/m² 4,4 °C 4,8 °C 14,5 km/h (3 Bft)
16.11.2022 09:41 21,8 °C 5,7 °C 55 % 92 % 1004,3 hPa 0,0 l/m² 8,4 km/h (2 Bft) O 82 ° 0 min 35 W/m² 4,5 °C 4,0 °C 12,9 km/h (3 Bft)
16.11.2022 09:42 21,8 °C 5,7 °C 55 % 92 % 1004,3 hPa 0,0 l/m² 7,0 km/h (2 Bft) O-NO 77 ° 0 min 35 W/m² 4,5 °C 5,2 °C 11,3 km/h (2 Bft)
16.11.2022 09:43 21,8 °C 5,7 °C 55 % 92 % 1004,3 hPa 0,0 l/m² 8,4 km/h (2 Bft) O-NO 68 ° 0 min 35 W/m² 4,5 °C 4,0 °C 12,9 km/h (3 Bft)
16.11.2022 09:44 21,8 °C 5,7 °C 55 % 92 % 1004,3 hPa 0,0 l/m² 9,5 km/h (2 Bft) O 98 ° 0 min 35 W/m² 4,5 °C 3,2 °C 12,9 km/h (3 Bft)
16.11.2022 09:46 21,8 °C 5,7 °C 55 % 92 % 1004,4 hPa 0,0 l/m² 10,0 km/h (2 Bft) O 84 ° 0 min 35 W/m² 4,5 °C 2,8 °C 14,5 km/h (3 Bft)
16.11.2022 09:47 21,8 °C 5,7 °C 55 % 92 % 1004,4 hPa 0,0 l/m² 8,0 km/h (2 Bft) O 80 ° 0 min 35 W/m² 4,5 °C 4,3 °C 11,3 km/h (2 Bft)
16.11.2022 09:49 21,8 °C 5,7 °C 55 % 92 % 1004,4 hPa 0,0 l/m² 5,4 km/h (2 Bft) O 80 ° 0 min 35 W/m² 4,5 °C 5,7 °C 6,4 km/h (2 Bft)
16.11.2022 09:50 21,8 °C 5,7 °C 55 % 92 % 1004,4 hPa 0,0 l/m² 7,2 km/h (2 Bft) O 87 ° 0 min 35 W/m² 4,5 °C 5,0 °C 11,3 km/h (2 Bft)
16.11.2022 09:51 21,8 °C 5,7 °C 55 % 92 % 1004,4 hPa 0,0 l/m² 9,0 km/h (2 Bft) O 81 ° 0 min 35 W/m² 4,5 °C 3,6 °C 11,3 km/h (2 Bft)
16.11.2022 09:52 21,8 °C 5,7 °C 55 % 92 % 1004,4 hPa 0,0 l/m² 7,0 km/h (2 Bft) O-NO 76 ° 0 min 35 W/m² 4,5 °C 5,2 °C 9,7 km/h (2 Bft)
16.11.2022 09:54 21,8 °C 5,7 °C 55 % 92 % 1004,4 hPa 0,0 l/m² 6,0 km/h (2 Bft) O 81 ° 0 min 35 W/m² 4,5 °C 5,7 °C 11,3 km/h (2 Bft)
16.11.2022 09:56 21,8 °C 5,8 °C 55 % 92 % 1004,4 hPa 0,0 l/m² 5,3 km/h (1 Bft) O-NO 74 ° 0 min 35 W/m² 4,6 °C 5,8 °C 11,3 km/h (2 Bft)
16.11.2022 09:58 21,8 °C 5,8 °C 55 % 92 % 1004,5 hPa 0,0 l/m² 7,8 km/h (2 Bft) O-NO 76 ° 0 min 37 W/m² 4,6 °C 4,6 °C 14,5 km/h (3 Bft)
16.11.2022 10:00 21,9 °C 5,8 °C 55 % 92 % 1004,4 hPa 0,0 l/m² 8,8 km/h (2 Bft) O 84 ° 0 min 37 W/m² 4,6 °C 3,8 °C 14,5 km/h (3 Bft)
16.11.2022 10:01 21,9 °C 5,8 °C 55 % 92 % 1004,4 hPa 0,0 l/m² 4,5 km/h (1 Bft) O-NO 71 ° 0 min 37 W/m² 4,6 °C 5,8 °C 6,4 km/h (2 Bft)
16.11.2022 10:02 21,9 °C 5,8 °C 55 % 92 % 1004,4 hPa 0,0 l/m² 7,4 km/h (2 Bft) NO 45 ° 0 min 37 W/m² 4,6 °C 4,9 °C 11,3 km/h (2 Bft)
16.11.2022 10:03 21,8 °C 5,8 °C 55 % 92 % 1004,4 hPa 0,0 l/m² 7,8 km/h (2 Bft) O-NO 77 ° 0 min 39 W/m² 4,6 °C 4,6 °C 14,5 km/h (3 Bft)
16.11.2022 10:05 21,8 °C 5,8 °C 55 % 92 % 1004,4 hPa 0,0 l/m² 7,5 km/h (2 Bft) O-NO 63 ° 0 min 39 W/m² 4,6 °C 4,9 °C 12,9 km/h (3 Bft)
16.11.2022 10:07 21,9 °C 5,9 °C 55 % 92 % 1004,3 hPa 0,0 l/m² 7,6 km/h (2 Bft) O 83 ° 0 min 39 W/m² 4,7 °C 4,9 °C 11,3 km/h (2 Bft)
16.11.2022 10:09 21,9 °C 5,9 °C 55 % 92 % 1004,3 hPa 0,0 l/m² 8,5 km/h (2 Bft) O 80 ° 0 min 40 W/m² 4,7 °C 4,2 °C 14,5 km/h (3 Bft)
16.11.2022 10:10 21,9 °C 5,9 °C 55 % 92 % 1004,3 hPa 0,0 l/m² 12,5 km/h (2 Bft) O-NO 72 ° 0 min 40 W/m² 4,7 °C 1,5 °C 17,7 km/h (3 Bft)
16.11.2022 10:12 21,9 °C 5,9 °C 55 % 92 % 1004,3 hPa 0,0 l/m² 6,4 km/h (2 Bft) O-NO 71 ° 0 min 42 W/m² 4,7 °C 5,9 °C 12,9 km/h (3 Bft)
16.11.2022 10:14 21,9 °C 5,9 °C 55 % 92 % 1004,3 hPa 0,0 l/m² 6,4 km/h (2 Bft) O-NO 70 ° 0 min 42 W/m² 4,7 °C 5,9 °C 9,7 km/h (2 Bft)
16.11.2022 10:16 21,9 °C 6,0 °C 55 % 92 % 1004,3 hPa 0,0 l/m² 8,1 km/h (2 Bft) O-NO 74 ° 0 min 42 W/m² 4,8 °C 4,6 °C 14,5 km/h (3 Bft)
16.11.2022 10:18 21,9 °C 6,0 °C 55 % 92 % 1004,3 hPa 0,0 l/m² 7,5 km/h (2 Bft) O 90 ° 0 min 42 W/m² 4,8 °C 5,1 °C 12,9 km/h (3 Bft)
16.11.2022 10:20 21,9 °C 6,1 °C 55 % 92 % 1004,4 hPa 0,0 l/m² 7,6 km/h (2 Bft) O 82 ° 0 min 44 W/m² 4,9 °C 5,1 °C 11,3 km/h (2 Bft)
16.11.2022 10:21 21,9 °C 6,1 °C 55 % 92 % 1004,3 hPa 0,0 l/m² 8,0 km/h (2 Bft) O 85 ° 0 min 44 W/m² 4,9 °C 4,8 °C 12,9 km/h (3 Bft)
16.11.2022 10:22 21,9 °C 6,1 °C 55 % 92 % 1004,3 hPa 0,0 l/m² 8,6 km/h (2 Bft) O-NO 78 ° 0 min 44 W/m² 4,9 °C 4,3 °C 12,9 km/h (3 Bft)
16.11.2022 10:24 21,9 °C 6,1 °C 55 % 92 % 1004,3 hPa 0,0 l/m² 7,6 km/h (2 Bft) O 89 ° 0 min 46 W/m² 4,9 °C 5,1 °C 12,9 km/h (3 Bft)
16.11.2022 10:26 21,9 °C 6,1 °C 55 % 92 % 1004,3 hPa 0,0 l/m² 9,1 km/h (2 Bft) NO 51 ° 0 min 46 W/m² 4,9 °C 3,9 °C 12,9 km/h (3 Bft)
16.11.2022 10:28 21,9 °C 6,1 °C 55 % 92 % 1004,3 hPa 0,0 l/m² 5,0 km/h (1 Bft) O-NO 76 ° 0 min 46 W/m² 4,9 °C 6,1 °C 8,0 km/h (2 Bft)
16.11.2022 10:30 21,9 °C 6,1 °C 55 % 92 % 1004,3 hPa 0,0 l/m² 5,1 km/h (1 Bft) O-NO 72 ° 0 min 46 W/m² 4,9 °C 6,1 °C 8,0 km/h (2 Bft)
16.11.2022 10:31 21,9 °C 6,1 °C 55 % 92 % 1004,3 hPa 0,0 l/m² 7,5 km/h (2 Bft) O 80 ° 0 min 46 W/m² 4,9 °C 5,2 °C 11,3 km/h (2 Bft)
16.11.2022 10:32 21,9 °C 6,1 °C 55 % 92 % 1004,3 hPa 0,0 l/m² 10,7 km/h (2 Bft) O 83 ° 0 min 44 W/m² 4,9 °C 2,8 °C 14,5 km/h (3 Bft)
16.11.2022 10:33 21,9 °C 6,2 °C 55 % 92 % 1004,2 hPa 0,0 l/m² 8,6 km/h (2 Bft) O-NO 67 ° 0 min 44 W/m² 5,0 °C 4,4 °C 12,9 km/h (3 Bft)
16.11.2022 10:35 21,9 °C 6,2 °C 55 % 92 % 1004,3 hPa 0,0 l/m² 5,8 km/h (2 Bft) O 82 ° 0 min 44 W/m² 5,0 °C 6,2 °C 8,0 km/h (2 Bft)
16.11.2022 10:37 21,9 °C 6,2 °C 55 % 92 % 1004,2 hPa 0,0 l/m² 9,2 km/h (2 Bft) O 80 ° 0 min 44 W/m² 5,0 °C 4,0 °C 14,5 km/h (3 Bft)
16.11.2022 10:39 21,9 °C 6,2 °C 55 % 92 % 1004,2 hPa 0,0 l/m² 9,1 km/h (2 Bft) O 81 ° 0 min 44 W/m² 5,0 °C 4,0 °C 12,9 km/h (3 Bft)
16.11.2022 10:40 21,9 °C 6,2 °C 55 % 92 % 1004,3 hPa 0,0 l/m² 7,9 km/h (2 Bft) O-NO 72 ° 0 min 44 W/m² 5,0 °C 4,9 °C 12,9 km/h (3 Bft)
16.11.2022 10:41 21,9 °C 6,2 °C 55 % 92 % 1004,3 hPa 0,0 l/m² 8,0 km/h (2 Bft) O-NO 64 ° 0 min 44 W/m² 5,0 °C 4,9 °C 12,9 km/h (3 Bft)
16.11.2022 10:42 21,9 °C 6,2 °C 55 % 92 % 1004,3 hPa 0,0 l/m² 8,3 km/h (2 Bft) O-NO 60 ° 0 min 44 W/m² 5,0 °C 4,6 °C 11,3 km/h (2 Bft)
16.11.2022 10:44 21,9 °C 6,2 °C 55 % 92 % 1004,2 hPa 0,0 l/m² 6,1 km/h (2 Bft) O-NO 76 ° 0 min 44 W/m² 5,0 °C 6,2 °C 11,3 km/h (2 Bft)
16.11.2022 10:46 21,9 °C 6,2 °C 55 % 92 % 1004,2 hPa 0,0 l/m² 8,0 km/h (2 Bft) O 82 ° 0 min 44 W/m² 5,0 °C 4,9 °C 14,5 km/h (3 Bft)
16.11.2022 10:48 21,9 °C 6,2 °C 55 % 92 % 1004,3 hPa 0,0 l/m² 9,2 km/h (2 Bft) NO 51 ° 0 min 44 W/m² 5,0 °C 4,0 °C 12,9 km/h (3 Bft)
16.11.2022 10:50 21,9 °C 6,3 °C 55 % 92 % 1004,2 hPa 0,0 l/m² 7,3 km/h (2 Bft) O-NO 72 ° 0 min 44 W/m² 5,1 °C 5,5 °C 12,9 km/h (3 Bft)
16.11.2022 10:51 21,9 °C 6,2 °C 55 % 92 % 1004,3 hPa 0,0 l/m² 11,0 km/h (2 Bft) O-NO 58 ° 0 min 44 W/m² 5,0 °C 2,7 °C 14,5 km/h (3 Bft)
16.11.2022 10:52 21,9 °C 6,3 °C 55 % 92 % 1004,3 hPa 0,0 l/m² 8,1 km/h (2 Bft) O-NO 71 ° 0 min 44 W/m² 5,1 °C 4,9 °C 12,9 km/h (3 Bft)
16.11.2022 10:53 21,9 °C 6,3 °C 55 % 92 % 1004,2 hPa 0,0 l/m² 7,4 km/h (2 Bft) NO 49 ° 0 min 44 W/m² 5,1 °C 5,5 °C 12,9 km/h (3 Bft)
16.11.2022 10:55 21,9 °C 6,3 °C 55 % 92 % 1004,3 hPa 0,0 l/m² 7,5 km/h (2 Bft) O 93 ° 0 min 44 W/m² 5,1 °C 5,4 °C 11,3 km/h (2 Bft)
16.11.2022 10:57 21,9 °C 6,3 °C 55 % 92 % 1004,3 hPa 0,0 l/m² 6,9 km/h (2 Bft) O 95 ° 0 min 46 W/m² 5,1 °C 5,9 °C 11,3 km/h (2 Bft)
16.11.2022 10:59 21,9 °C 6,3 °C 55 % 92 % 1004,4 hPa 0,0 l/m² 5,3 km/h (1 Bft) O-SO 111 ° 0 min 47 W/m² 5,1 °C 6,3 °C 9,7 km/h (2 Bft)
16.11.2022 11:01 21,9 °C 6,3 °C 55 % 93 % 1004,5 hPa 0,0 l/m² 3,7 km/h (1 Bft) O 99 ° 0 min 49 W/m² 5,3 °C 6,3 °C 6,4 km/h (2 Bft)
16.11.2022 11:02 21,9 °C 6,3 °C 55 % 93 % 1004,5 hPa 0,0 l/m² 3,1 km/h (1 Bft) O 99 ° 0 min 49 W/m² 5,3 °C 6,3 °C 6,4 km/h (2 Bft)
16.11.2022 11:03 21,9 °C 6,4 °C 55 % 93 % 1004,5 hPa 0,0 l/m² 5,9 km/h (2 Bft) O-SO 107 ° 0 min 51 W/m² 5,4 °C 6,4 °C 6,4 km/h (2 Bft)
16.11.2022 11:04 21,9 °C 6,3 °C 55 % 93 % 1004,6 hPa 0,0 l/m² 6,1 km/h (2 Bft) O 97 ° 0 min 51 W/m² 5,3 °C 6,3 °C 6,4 km/h (2 Bft)
16.11.2022 11:06 21,9 °C 6,3 °C 55 % 92 % 1004,5 hPa 0,2 l/m² 4,0 km/h (1 Bft) O 97 ° 2 min 53 W/m² 5,1 °C 6,3 °C 4,8 km/h (1 Bft)
16.11.2022 11:08 21,9 °C 6,4 °C 55 % 92 % 1004,5 hPa 0,0 l/m² 4,1 km/h (1 Bft) O 96 ° 2 min 53 W/m² 5,2 °C 6,4 °C 4,8 km/h (1 Bft)
16.11.2022 11:10 21,9 °C 6,4 °C 55 % 93 % 1004,5 hPa 0,0 l/m² 3,7 km/h (1 Bft) O 89 ° 2 min 54 W/m² 5,4 °C 6,4 °C 4,8 km/h (1 Bft)
16.11.2022 11:11 21,9 °C 6,4 °C 55 % 93 % 1004,5 hPa 0,0 l/m² 3,8 km/h (1 Bft) O 89 ° 1 min 54 W/m² 5,4 °C 6,4 °C 4,8 km/h (1 Bft)
16.11.2022 11:12 21,9 °C 6,4 °C 55 % 93 % 1004,5 hPa 0,0 l/m² 4,1 km/h (1 Bft) O 89 ° 1 min 54 W/m² 5,4 °C 6,4 °C 4,8 km/h (1 Bft)
16.11.2022 11:13 21,9 °C 6,5 °C 55 % 93 % 1004,4 hPa 0,0 l/m² 4,8 km/h (1 Bft) NO 50 ° 1 min 54 W/m² 5,5 °C 6,5 °C 6,4 km/h (2 Bft)
16.11.2022 11:15 21,9 °C 6,5 °C 55 % 93 % 1004,4 hPa 0,0 l/m² 4,7 km/h (1 Bft) O-NO 73 ° 2 min 56 W/m² 5,5 °C 6,5 °C 8,0 km/h (2 Bft)
16.11.2022 11:17 21,9 °C 6,5 °C 55 % 92 % 1004,4 hPa 0,0 l/m² 6,3 km/h (2 Bft) O-NO 78 ° 2 min 56 W/m² 5,3 °C 6,5 °C 11,3 km/h (2 Bft)
16.11.2022 11:19 21,9 °C 6,5 °C 55 % 92 % 1004,5 hPa 0,0 l/m² 5,8 km/h (2 Bft) O-NO 59 ° 2 min 58 W/m² 5,3 °C 6,5 °C 8,0 km/h (2 Bft)
16.11.2022 11:21 21,9 °C 6,6 °C 55 % 93 % 1004,4 hPa 0,0 l/m² 4,5 km/h (1 Bft) O-NO 67 ° 2 min 62 W/m² 5,6 °C 6,6 °C 8,0 km/h (2 Bft)
16.11.2022 11:22 21,9 °C 6,5 °C 55 % 93 % 1004,3 hPa 0,0 l/m² 6,9 km/h (2 Bft) O-NO 75 ° 1 min 62 W/m² 5,5 °C 6,1 °C 11,3 km/h (2 Bft)
16.11.2022 11:23 21,9 °C 6,6 °C 55 % 93 % 1004,3 hPa 0,0 l/m² 6,4 km/h (2 Bft) O-NO 69 ° 1 min 63 W/m² 5,6 °C 6,6 °C 8,0 km/h (2 Bft)
16.11.2022 11:24 21,9 °C 6,6 °C 55 % 93 % 1004,4 hPa 0,0 l/m² 6,2 km/h (2 Bft) NO 50 ° 1 min 65 W/m² 5,6 °C 6,6 °C 8,0 km/h (2 Bft)
16.11.2022 11:26 21,9 °C 6,6 °C 55 % 93 % 1004,3 hPa 0,2 l/m² 6,1 km/h (2 Bft) O-NO 78 ° 2 min 69 W/m² 5,6 °C 6,6 °C 11,3 km/h (2 Bft)
16.11.2022 11:28 21,9 °C 6,6 °C 55 % 93 % 1004,3 hPa 0,0 l/m² 8,1 km/h (2 Bft) O-NO 76 ° 2 min 70 W/m² 5,6 °C 5,2 °C 14,5 km/h (3 Bft)
16.11.2022 11:30 21,9 °C 6,6 °C 55 % 93 % 1004,3 hPa 0,0 l/m² 7,8 km/h (2 Bft) O-NO 70 ° 2 min 70 W/m² 5,6 °C 5,4 °C 14,5 km/h (3 Bft)
16.11.2022 11:31 21,9 °C 6,6 °C 55 % 93 % 1004,4 hPa 0,0 l/m² 5,6 km/h (2 Bft) O-NO 71 ° 1 min 70 W/m² 5,6 °C 6,6 °C 8,0 km/h (2 Bft)
16.11.2022 11:32 21,9 °C 6,6 °C 55 % 93 % 1004,4 hPa 0,0 l/m² 5,8 km/h (2 Bft) O 81 ° 1 min 72 W/m² 5,6 °C 6,6 °C 6,4 km/h (2 Bft)
16.11.2022 11:33 21,9 °C 6,6 °C 55 % 93 % 1004,3 hPa 0,0 l/m² 5,4 km/h (2 Bft) O-NO 73 ° 1 min 72 W/m² 5,6 °C 6,6 °C 6,4 km/h (2 Bft)
16.11.2022 11:35 21,9 °C 6,7 °C 55 % 93 % 1004,4 hPa 0,0 l/m² 6,6 km/h (2 Bft) O 92 ° 2 min 72 W/m² 5,6 °C 6,6 °C 9,7 km/h (2 Bft)
16.11.2022 11:37 21,9 °C 6,7 °C 55 % 93 % 1004,5 hPa 0,0 l/m² 5,4 km/h (2 Bft) O 96 ° 2 min 72 W/m² 5,6 °C 6,7 °C 9,7 km/h (2 Bft)
16.11.2022 11:39 21,9 °C 6,7 °C 55 % 93 % 1004,4 hPa 0,0 l/m² 4,7 km/h (1 Bft) O 82 ° 2 min 74 W/m² 5,6 °C 6,7 °C 8,0 km/h (2 Bft)
16.11.2022 11:41 21,9 °C 6,7 °C 55 % 93 % 1004,4 hPa 0,0 l/m² 5,6 km/h (2 Bft) O 86 ° 2 min 76 W/m² 5,6 °C 6,7 °C 11,3 km/h (2 Bft)
16.11.2022 11:42 21,9 °C 6,8 °C 55 % 93 % 1004,4 hPa 0,0 l/m² 4,9 km/h (1 Bft) O-NO 60 ° 1 min 79 W/m² 5,7 °C 6,8 °C 8,0 km/h (2 Bft)
16.11.2022 11:43 21,9 °C 6,8 °C 55 % 93 % 1004,4 hPa 0,0 l/m² 4,5 km/h (1 Bft) O 82 ° 1 min 81 W/m² 5,7 °C 6,8 °C 8,0 km/h (2 Bft)
16.11.2022 11:44 21,9 °C 6,8 °C 55 % 93 % 1004,4 hPa 0,0 l/m² 6,6 km/h (2 Bft) O 87 ° 1 min 81 W/m² 5,7 °C 6,7 °C 9,7 km/h (2 Bft)
16.11.2022 11:46 21,9 °C 6,8 °C 55 % 93 % 1004,4 hPa 0,0 l/m² 5,0 km/h (1 Bft) O 97 ° 2 min 86 W/m² 5,7 °C 6,8 °C 6,4 km/h (2 Bft)
16.11.2022 11:48 21,9 °C 6,8 °C 55 % 93 % 1004,4 hPa 0,0 l/m² 4,9 km/h (1 Bft) O 90 ° 2 min 90 W/m² 5,7 °C 6,8 °C 8,0 km/h (2 Bft)
16.11.2022 11:50 21,9 °C 6,8 °C 55 % 93 % 1004,3 hPa 0,0 l/m² 5,7 km/h (2 Bft) O 89 ° 2 min 98 W/m² 5,7 °C 6,8 °C 9,7 km/h (2 Bft)
16.11.2022 11:51 21,9 °C 6,8 °C 55 % 93 % 1004,4 hPa 0,0 l/m² 4,1 km/h (1 Bft) O 88 ° 1 min 100 W/m² 5,7 °C 6,8 °C 6,4 km/h (2 Bft)
16.11.2022 11:52 21,9 °C 6,8 °C 55 % 93 % 1004,4 hPa 0,0 l/m² 2,4 km/h (1 Bft) O-NO 78 ° 1 min 102 W/m² 5,7 °C 6,8 °C 6,4 km/h (2 Bft)
16.11.2022 11:53 21,9 °C 6,9 °C 55 % 93 % 1004,3 hPa 0,0 l/m² 5,0 km/h (1 Bft) O-NO 75 ° 1 min 104 W/m² 5,8 °C 6,9 °C 6,4 km/h (2 Bft)
16.11.2022 11:55 21,9 °C 6,9 °C 55 % 93 % 1004,2 hPa 0,0 l/m² 3,3 km/h (1 Bft) O-NO 72 ° 2 min 109 W/m² 5,8 °C 6,9 °C 4,8 km/h (1 Bft)
16.11.2022 11:57 21,9 °C 6,9 °C 55 % 93 % 1004,2 hPa 0,0 l/m² 5,1 km/h (1 Bft) O-NO 66 ° 2 min 111 W/m² 5,8 °C 6,9 °C 8,0 km/h (2 Bft)
16.11.2022 11:59 21,9 °C 6,9 °C 55 % 93 % 1004,2 hPa 0,0 l/m² 6,4 km/h (2 Bft) O-NO 73 ° 2 min 118 W/m² 5,8 °C 6,9 °C 8,0 km/h (2 Bft)
16.11.2022 12:01 21,9 °C 6,9 °C 55 % 93 % 1004,2 hPa 0,0 l/m² 3,7 km/h (1 Bft) O-NO 73 ° 2 min 125 W/m² 5,8 °C 6,9 °C 6,4 km/h (2 Bft)
16.11.2022 12:02 21,9 °C 7,0 °C 55 % 93 % 1004,2 hPa 0,0 l/m² 4,9 km/h (1 Bft) O 80 ° 1 min 125 W/m² 5,9 °C 7,0 °C 8,0 km/h (2 Bft)
16.11.2022 12:03 21,9 °C 7,0 °C 55 % 93 % 1004,2 hPa 0,0 l/m² 5,9 km/h (2 Bft) O-NO 59 ° 1 min 127 W/m² 5,9 °C 7,0 °C 8,0 km/h (2 Bft)
16.11.2022 12:04 21,9 °C 7,1 °C 55 % 93 % 1004,1 hPa 0,2 l/m² 5,0 km/h (1 Bft) O-NO 57 ° 1 min 127 W/m² 6,0 °C 7,1 °C 8,0 km/h (2 Bft)
16.11.2022 12:06 21,9 °C 7,0 °C 55 % 93 % 1004,2 hPa 0,0 l/m² 4,0 km/h (1 Bft) O 88 ° 2 min 127 W/m² 5,9 °C 7,0 °C 8,0 km/h (2 Bft)
16.11.2022 12:08 21,9 °C 7,1 °C 55 % 93 % 1004,1 hPa 0,0 l/m² 5,1 km/h (1 Bft) O-NO 63 ° 2 min 128 W/m² 6,0 °C 7,1 °C 8,0 km/h (2 Bft)
16.11.2022 12:10 21,9 °C 7,1 °C 55 % 93 % 1004,2 hPa 0,0 l/m² 3,6 km/h (1 Bft) O 82 ° 2 min 118 W/m² 6,0 °C 7,1 °C 6,4 km/h (2 Bft)
16.11.2022 12:11 21,9 °C 7,2 °C 55 % 93 % 1004,2 hPa 0,0 l/m² 4,9 km/h (1 Bft) NO 36 ° 1 min 111 W/m² 6,1 °C 7,2 °C 8,0 km/h (2 Bft)
16.11.2022 12:12 21,9 °C 7,2 °C 55 % 93 % 1004,1 hPa 0,0 l/m² 5,6 km/h (2 Bft) O-NO 63 ° 1 min 118 W/m² 6,1 °C 7,2 °C 6,4 km/h (2 Bft)
16.11.2022 12:13 21,9 °C 7,2 °C 55 % 93 % 1004,1 hPa 0,0 l/m² 2,9 km/h (1 Bft) O-NO 58 ° 1 min 118 W/m² 6,1 °C 7,2 °C 4,8 km/h (1 Bft)
16.11.2022 12:15 21,9 °C 7,2 °C 55 % 93 % 1004,1 hPa 0,0 l/m² 5,5 km/h (2 Bft) O-NO 76 ° 2 min 113 W/m² 6,1 °C 7,2 °C 11,3 km/h (2 Bft)
16.11.2022 12:16 21,9 °C 7,2 °C 55 % 93 % 1004,2 hPa 0,0 l/m² 3,9 km/h (1 Bft) O-NO 63 ° 1 min 113 W/m² 6,1 °C 7,2 °C 6,4 km/h (2 Bft)
16.11.2022 12:18 21,9 °C 7,1 °C 55 % 93 % 1004,1 hPa 0,0 l/m² 6,9 km/h (2 Bft) O-NO 67 ° 2 min 105 W/m² 6,0 °C 6,7 °C 12,9 km/h (3 Bft)
16.11.2022 12:20 21,9 °C 7,2 °C 55 % 93 % 1004,1 hPa 0,0 l/m² 5,4 km/h (2 Bft) O-NO 72 ° 2 min 91 W/m² 6,1 °C 7,2 °C 11,3 km/h (2 Bft)
16.11.2022 12:22 21,9 °C 7,2 °C 55 % 93 % 1004,1 hPa 0,0 l/m² 5,7 km/h (2 Bft) O-NO 76 ° 2 min 88 W/m² 6,1 °C 7,2 °C 9,7 km/h (2 Bft)
16.11.2022 12:23 21,9 °C 7,1 °C 55 % 93 % 1004,1 hPa 0,0 l/m² 5,0 km/h (1 Bft) O-NO 78 ° 1 min 90 W/m² 6,0 °C 7,1 °C 8,0 km/h (2 Bft)
16.11.2022 12:24 21,9 °C 7,2 °C 55 % 93 % 1004,1 hPa 0,0 l/m² 3,9 km/h (1 Bft) O 84 ° 1 min 84 W/m² 6,1 °C 7,2 °C 8,0 km/h (2 Bft)
16.11.2022 12:26 21,9 °C 7,2 °C 55 % 93 % 1004,0 hPa 0,0 l/m² 5,0 km/h (1 Bft) O-NO 67 ° 2 min 83 W/m² 6,1 °C 7,2 °C 8,0 km/h (2 Bft)
16.11.2022 12:28 21,9 °C 7,2 °C 55 % 93 % 1004,1 hPa 0,0 l/m² 6,2 km/h (2 Bft) O-NO 69 ° 2 min 84 W/m² 6,1 °C 7,2 °C 12,9 km/h (3 Bft)
16.11.2022 12:30 21,9 °C 7,2 °C 55 % 93 % 1004,1 hPa 0,0 l/m² 5,2 km/h (1 Bft) O-NO 65 ° 2 min 88 W/m² 6,1 °C 7,2 °C 8,0 km/h (2 Bft)
16.11.2022 12:32 21,9 °C 7,2 °C 55 % 93 % 1004,0 hPa 0,0 l/m² 4,7 km/h (1 Bft) O-NO 65 ° 2 min 91 W/m² 6,1 °C 7,2 °C 8,0 km/h (2 Bft)
16.11.2022 12:33 21,9 °C 7,2 °C 55 % 93 % 1004,0 hPa 0,0 l/m² 5,0 km/h (1 Bft) NO 34 ° 1 min 91 W/m² 6,1 °C 7,2 °C 8,0 km/h (2 Bft)
16.11.2022 12:34 21,9 °C 7,2 °C 55 % 93 % 1004,0 hPa 0,0 l/m² 7,4 km/h (2 Bft) O-NO 72 ° 1 min 97 W/m² 6,1 °C 6,4 °C 11,3 km/h (2 Bft)
16.11.2022 12:36 21,9 °C 7,2 °C 55 % 93 % 1003,9 hPa 0,0 l/m² 8,4 km/h (2 Bft) NO 46 ° 2 min 93 W/m² 6,1 °C 5,6 °C 12,9 km/h (3 Bft)
16.11.2022 12:38 21,9 °C 7,2 °C 55 % 93 % 1004,0 hPa 0,0 l/m² 7,7 km/h (2 Bft) O-NO 70 ° 2 min 97 W/m² 6,1 °C 6,1 °C 12,9 km/h (3 Bft)
16.11.2022 12:40 21,9 °C 7,2 °C 55 % 93 % 1003,9 hPa 0,0 l/m² 7,3 km/h (2 Bft) O-NO 69 ° 2 min 102 W/m² 6,1 °C 6,5 °C 12,9 km/h (3 Bft)
16.11.2022 12:42 21,9 °C 7,2 °C 55 % 93 % 1003,8 hPa 0,0 l/m² 10,7 km/h (2 Bft) O-NO 71 ° 2 min 98 W/m² 6,1 °C 4,1 °C 16,1 km/h (3 Bft)
16.11.2022 12:43 21,9 °C 7,2 °C 55 % 93 % 1003,9 hPa 0,0 l/m² 7,3 km/h (2 Bft) O-NO 75 ° 1 min 90 W/m² 6,1 °C 6,5 °C 11,3 km/h (2 Bft)
16.11.2022 12:44 21,9 °C 7,2 °C 55 % 93 % 1003,9 hPa 0,0 l/m² 11,3 km/h (2 Bft) O 80 ° 1 min 95 W/m² 6,1 °C 3,7 °C 14,5 km/h (3 Bft)
16.11.2022 12:46 21,9 °C 7,2 °C 55 % 93 % 1003,9 hPa 0,0 l/m² 7,4 km/h (2 Bft) O-NO 72 ° 2 min 97 W/m² 6,1 °C 6,4 °C 14,5 km/h (3 Bft)
16.11.2022 12:48 21,9 °C 7,2 °C 55 % 93 % 1003,9 hPa 0,0 l/m² 8,4 km/h (2 Bft) O-NO 73 ° 2 min 90 W/m² 6,1 °C 5,6 °C 14,5 km/h (3 Bft)
16.11.2022 12:50 21,9 °C 7,2 °C 55 % 93 % 1003,9 hPa 0,0 l/m² 10,9 km/h (2 Bft) O-NO 71 ° 2 min 88 W/m² 6,1 °C 3,9 °C 17,7 km/h (3 Bft)
16.11.2022 12:52 21,9 °C 7,2 °C 55 % 93 % 1003,9 hPa 0,0 l/m² 12,4 km/h (2 Bft) O 82 ° 2 min 91 W/m² 6,1 °C 3,1 °C 19,3 km/h (3 Bft)
16.11.2022 12:53 21,9 °C 7,2 °C 55 % 93 % 1003,9 hPa 0,0 l/m² 13,4 km/h (3 Bft) O-NO 74 ° 1 min 93 W/m² 6,1 °C 2,5 °C 16,1 km/h (3 Bft)
16.11.2022 12:54 21,9 °C 7,2 °C 55 % 93 % 1003,9 hPa 0,0 l/m² 8,5 km/h (2 Bft) O 88 ° 1 min 93 W/m² 6,1 °C 5,5 °C 12,9 km/h (3 Bft)
16.11.2022 12:56 21,9 °C 7,2 °C 55 % 93 % 1003,8 hPa 0,0 l/m² 9,3 km/h (2 Bft) O-NO 76 ° 2 min 88 W/m² 6,1 °C 5,0 °C 14,5 km/h (3 Bft)
16.11.2022 12:58 21,9 °C 7,3 °C 55 % 93 % 1003,9 hPa 0,0 l/m² 6,1 km/h (2 Bft) O-NO 61 ° 2 min 88 W/m² 6,2 °C 7,3 °C 11,3 km/h (2 Bft)
16.11.2022 13:00 21,9 °C 7,3 °C 55 % 93 % 1003,8 hPa 0,0 l/m² 9,2 km/h (2 Bft) O-NO 74 ° 2 min 84 W/m² 6,2 °C 5,1 °C 14,5 km/h (3 Bft)
16.11.2022 13:02 21,9 °C 7,3 °C 55 % 93 % 1003,9 hPa 0,0 l/m² 11,6 km/h (2 Bft) O-NO 74 ° 2 min 88 W/m² 6,2 °C 3,6 °C 17,7 km/h (3 Bft)
16.11.2022 13:03 21,9 °C 7,3 °C 55 % 93 % 1003,9 hPa 0,0 l/m² 10,4 km/h (2 Bft) O 85 ° 1 min 84 W/m² 6,2 °C 4,4 °C 19,3 km/h (3 Bft)
16.11.2022 13:04 21,9 °C 7,2 °C 55 % 93 % 1003,9 hPa 0,0 l/m² 12,4 km/h (2 Bft) O-NO 66 ° 1 min 84 W/m² 6,1 °C 3,1 °C 16,1 km/h (3 Bft)
16.11.2022 13:06 21,9 °C 7,3 °C 55 % 93 % 1003,8 hPa 0,0 l/m² 10,8 km/h (2 Bft) O-NO 70 ° 2 min 84 W/m² 6,2 °C 4,1 °C 14,5 km/h (3 Bft)
16.11.2022 13:08 21,9 °C 7,3 °C 55 % 93 % 1003,8 hPa 0,0 l/m² 9,0 km/h (2 Bft) O 83 ° 2 min 86 W/m² 6,2 °C 5,3 °C 14,5 km/h (3 Bft)
16.11.2022 13:10 21,9 °C 7,3 °C 55 % 93 % 1003,9 hPa 0,0 l/m² 10,7 km/h (2 Bft) O-NO 73 ° 2 min 88 W/m² 6,2 °C 4,2 °C 16,1 km/h (3 Bft)
16.11.2022 13:12 21,9 °C 7,2 °C 55 % 93 % 1003,8 hPa 0,0 l/m² 10,1 km/h (2 Bft) NO 46 ° 2 min 86 W/m² 6,1 °C 4,4 °C 14,5 km/h (3 Bft)
16.11.2022 13:13 21,9 °C 7,3 °C 55 % 93 % 1003,8 hPa 0,0 l/m² 6,4 km/h (2 Bft) O 95 ° 1 min 84 W/m² 6,2 °C 7,3 °C 9,7 km/h (2 Bft)
16.11.2022 13:14 21,9 °C 7,3 °C 55 % 93 % 1003,8 hPa 0,0 l/m² 10,1 km/h (2 Bft) O-NO 78 ° 1 min 83 W/m² 6,2 °C 4,5 °C 14,5 km/h (3 Bft)
16.11.2022 13:16 21,8 °C 7,3 °C 55 % 93 % 1003,7 hPa 0,0 l/m² 8,7 km/h (2 Bft) O-NO 75 ° 2 min 81 W/m² 6,2 °C 5,5 °C 12,9 km/h (3 Bft)
16.11.2022 13:18 21,9 °C 7,3 °C 55 % 93 % 1003,8 hPa 0,0 l/m² 8,2 km/h (2 Bft) O-NO 75 ° 2 min 74 W/m² 6,2 °C 5,9 °C 14,5 km/h (3 Bft)
16.11.2022 13:20 21,8 °C 7,3 °C 55 % 93 % 1003,8 hPa 0,0 l/m² 7,1 km/h (2 Bft) O-NO 57 ° 2 min 72 W/m² 6,2 °C 6,7 °C 12,9 km/h (3 Bft)
16.11.2022 13:22 21,8 °C 7,3 °C 55 % 93 % 1003,8 hPa 0,0 l/m² 6,8 km/h (2 Bft) O-NO 72 ° 2 min 70 W/m² 6,2 °C 7,0 °C 12,9 km/h (3 Bft)
16.11.2022 13:23 21,9 °C 7,3 °C 55 % 93 % 1003,8 hPa 0,0 l/m² 9,5 km/h (2 Bft) O-NO 71 ° 1 min 76 W/m² 6,2 °C 4,9 °C 12,9 km/h (3 Bft)
16.11.2022 13:24 21,9 °C 7,3 °C 55 % 93 % 1003,8 hPa 0,0 l/m² 10,8 km/h (2 Bft) NO 43 ° 1 min 72 W/m² 6,2 °C 4,1 °C 14,5 km/h (3 Bft)
16.11.2022 13:26 21,8 °C 7,3 °C 55 % 93 % 1003,8 hPa 0,0 l/m² 10,9 km/h (2 Bft) O-NO 78 ° 2 min 74 W/m² 6,2 °C 4,0 °C 16,1 km/h (3 Bft)
16.11.2022 13:28 21,8 °C 7,3 °C 55 % 93 % 1003,8 hPa 0,0 l/m² 5,1 km/h (1 Bft) O-NO 64 ° 2 min 81 W/m² 6,2 °C 7,3 °C 9,7 km/h (2 Bft)
16.11.2022 13:30 21,8 °C 7,3 °C 55 % 93 % 1003,9 hPa 0,0 l/m² 8,7 km/h (2 Bft) NO 56 ° 2 min 74 W/m² 6,2 °C 5,5 °C 16,1 km/h (3 Bft)
16.11.2022 13:32 21,8 °C 7,4 °C 55 % 93 % 1003,9 hPa 0,0 l/m² 7,3 km/h (2 Bft) O-NO 78 ° 2 min 74 W/m² 6,3 °C 6,7 °C 14,5 km/h (3 Bft)
16.11.2022 13:33 21,8 °C 7,4 °C 55 % 93 % 1003,9 hPa 0,0 l/m² 8,9 km/h (2 Bft) O-NO 77 ° 1 min 81 W/m² 6,3 °C 5,5 °C 12,9 km/h (3 Bft)
16.11.2022 13:34 21,8 °C 7,4 °C 55 % 93 % 1003,9 hPa 0,0 l/m² 11,5 km/h (2 Bft) O-NO 68 ° 1 min 86 W/m² 6,3 °C 3,8 °C 14,5 km/h (3 Bft)
16.11.2022 13:36 21,8 °C 7,4 °C 55 % 93 % 1003,9 hPa 0,0 l/m² 14,8 km/h (3 Bft) O-NO 74 ° 2 min 83 W/m² 6,3 °C 2,1 °C 17,7 km/h (3 Bft)
16.11.2022 13:38 21,8 °C 7,3 °C 55 % 93 % 1004,0 hPa 0,0 l/m² 10,9 km/h (2 Bft) O-NO 64 ° 2 min 81 W/m² 6,2 °C 4,0 °C 14,5 km/h (3 Bft)
16.11.2022 13:40 21,8 °C 7,4 °C 55 % 93 % 1003,9 hPa 0,0 l/m² 9,3 km/h (2 Bft) O-NO 65 ° 2 min 79 W/m² 6,3 °C 5,2 °C 14,5 km/h (3 Bft)
16.11.2022 13:42 21,8 °C 7,4 °C 55 % 93 % 1003,9 hPa 0,0 l/m² 6,4 km/h (2 Bft) O-NO 69 ° 2 min 74 W/m² 6,3 °C 7,4 °C 11,3 km/h (2 Bft)
16.11.2022 13:43 21,9 °C 7,4 °C 55 % 93 % 1004,0 hPa 0,0 l/m² 9,7 km/h (2 Bft) O 93 ° 1 min 72 W/m² 6,3 °C 4,9 °C 14,5 km/h (3 Bft)
16.11.2022 13:44 21,9 °C 7,4 °C 55 % 93 % 1004,0 hPa 0,0 l/m² 8,0 km/h (2 Bft) O-NO 71 ° 1 min 65 W/m² 6,3 °C 6,1 °C 11,3 km/h (2 Bft)
16.11.2022 13:46 21,8 °C 7,4 °C 55 % 93 % 1003,9 hPa 0,0 l/m² 7,9 km/h (2 Bft) O 82 ° 2 min 58 W/m² 6,3 °C 6,2 °C 17,7 km/h (3 Bft)
16.11.2022 13:48 21,8 °C 7,3 °C 55 % 93 % 1003,9 hPa 0,0 l/m² 10,8 km/h (2 Bft) O 80 ° 2 min 58 W/m² 6,2 °C 4,1 °C 17,7 km/h (3 Bft)
16.11.2022 13:50 21,8 °C 7,3 °C 55 % 93 % 1003,9 hPa 0,0 l/m² 8,6 km/h (2 Bft) O-NO 76 ° 2 min 54 W/m² 6,2 °C 5,6 °C 14,5 km/h (3 Bft)
16.11.2022 13:52 21,8 °C 7,3 °C 55 % 93 % 1004,0 hPa 0,0 l/m² 5,7 km/h (2 Bft) O-NO 71 ° 2 min 54 W/m² 6,2 °C 7,3 °C 8,0 km/h (2 Bft)
16.11.2022 13:53 21,9 °C 7,3 °C 55 % 93 % 1003,9 hPa 0,0 l/m² 9,7 km/h (2 Bft) O-NO 67 ° 0 min 51 W/m² 6,2 °C 4,8 °C 14,5 km/h (3 Bft)
16.11.2022 13:54 21,9 °C 7,3 °C 55 % 93 % 1003,9 hPa 0,0 l/m² 12,2 km/h (2 Bft) O-NO 78 ° 0 min 47 W/m² 6,2 °C 3,3 °C 16,1 km/h (3 Bft)
16.11.2022 13:56 21,8 °C 7,3 °C 55 % 93 % 1004,0 hPa 0,0 l/m² 8,0 km/h (2 Bft) O-NO 71 ° 0 min 46 W/m² 6,2 °C 6,0 °C 12,9 km/h (3 Bft)
16.11.2022 13:58 21,9 °C 7,3 °C 55 % 93 % 1003,9 hPa 0,0 l/m² 6,9 km/h (2 Bft) O-NO 71 ° 0 min 46 W/m² 6,2 °C 6,9 °C 11,3 km/h (2 Bft)
16.11.2022 14:00 21,8 °C 7,3 °C 55 % 93 % 1003,9 hPa 0,0 l/m² 9,6 km/h (2 Bft) O-NO 65 ° 0 min 46 W/m² 6,2 °C 4,9 °C 16,1 km/h (3 Bft)
16.11.2022 14:02 21,8 °C 7,3 °C 55 % 93 % 1003,9 hPa 0,0 l/m² 7,6 km/h (2 Bft) O-NO 73 ° 0 min 44 W/m² 6,2 °C 6,3 °C 12,9 km/h (3 Bft)
16.11.2022 14:03 21,8 °C 7,3 °C 55 % 93 % 1003,9 hPa 0,2 l/m² 9,0 km/h (2 Bft) O 85 ° 0 min 46 W/m² 6,2 °C 5,3 °C 14,5 km/h (3 Bft)
16.11.2022 14:04 21,8 °C 7,3 °C 55 % 93 % 1003,9 hPa 0,0 l/m² 11,8 km/h (2 Bft) O-NO 77 ° 0 min 47 W/m² 6,2 °C 3,5 °C 16,1 km/h (3 Bft)
16.11.2022 14:07 21,8 °C 7,2 °C 55 % 93 % 1003,8 hPa 0,0 l/m² 7,2 km/h (2 Bft) O-NO 74 ° 0 min 49 W/m² 6,1 °C 6,5 °C 14,5 km/h (3 Bft)
16.11.2022 14:09 21,9 °C 7,2 °C 55 % 93 % 1003,8 hPa 0,0 l/m² 12,3 km/h (2 Bft) O-NO 74 ° 0 min 42 W/m² 6,1 °C 3,1 °C 16,1 km/h (3 Bft)
16.11.2022 14:11 21,9 °C 7,3 °C 55 % 93 % 1003,8 hPa 0,0 l/m² 8,5 km/h (2 Bft) O-NO 73 ° 0 min 46 W/m² 6,2 °C 5,6 °C 11,3 km/h (2 Bft)
16.11.2022 14:12 21,8 °C 7,2 °C 55 % 93 % 1003,8 hPa 0,0 l/m² 6,6 km/h (2 Bft) O-NO 67 ° 0 min 46 W/m² 6,1 °C 7,1 °C 11,3 km/h (2 Bft)
16.11.2022 14:13 21,8 °C 7,2 °C 55 % 93 % 1003,8 hPa 0,0 l/m² 8,9 km/h (2 Bft) NO 40 ° 0 min 44 W/m² 6,1 °C 5,2 °C 14,5 km/h (3 Bft)
16.11.2022 14:15 21,8 °C 7,2 °C 55 % 93 % 1003,8 hPa 0,0 l/m² 9,0 km/h (2 Bft) O 81 ° 0 min 39 W/m² 6,1 °C 5,2 °C 14,5 km/h (3 Bft)
16.11.2022 14:17 21,9 °C 7,2 °C 55 % 93 % 1003,8 hPa 0,0 l/m² 9,4 km/h (2 Bft) O-NO 78 ° 0 min 32 W/m² 6,1 °C 4,9 °C 16,1 km/h (3 Bft)
16.11.2022 14:19 21,8 °C 7,2 °C 55 % 93 % 1003,8 hPa 0,0 l/m² 10,6 km/h (2 Bft) O 85 ° 0 min 28 W/m² 6,1 °C 4,1 °C 17,7 km/h (3 Bft)
16.11.2022 14:21 21,9 °C 7,2 °C 55 % 93 % 1003,8 hPa 0,0 l/m² 5,7 km/h (2 Bft) O-NO 73 ° 0 min 25 W/m² 6,1 °C 7,2 °C 12,9 km/h (3 Bft)
16.11.2022 14:22 21,9 °C 7,2 °C 55 % 93 % 1003,8 hPa 0,0 l/m² 5,7 km/h (2 Bft) O-NO 57 ° 0 min 23 W/m² 6,1 °C 7,2 °C 14,5 km/h (3 Bft)
16.11.2022 14:23 21,9 °C 7,2 °C 55 % 93 % 1003,8 hPa 0,0 l/m² 6,4 km/h (2 Bft) O 85 ° 0 min 23 W/m² 6,1 °C 7,2 °C 9,7 km/h (2 Bft)
16.11.2022 14:25 21,8 °C 7,2 °C 55 % 93 % 1003,9 hPa 0,0 l/m² 5,9 km/h (2 Bft) O 80 ° 0 min 18 W/m² 6,1 °C 7,2 °C 12,9 km/h (3 Bft)
16.11.2022 14:27 21,8 °C 7,2 °C 55 % 93 % 1003,8 hPa 0,0 l/m² 6,0 km/h (2 Bft) O-NO 73 ° 0 min 18 W/m² 6,1 °C 7,2 °C 9,7 km/h (2 Bft)
16.11.2022 14:29 21,8 °C 7,1 °C 55 % 93 % 1003,9 hPa 0,0 l/m² 10,1 km/h (2 Bft) O-NO 74 ° 0 min 16 W/m² 6,0 °C 4,3 °C 16,1 km/h (3 Bft)
16.11.2022 14:31 21,9 °C 7,1 °C 55 % 93 % 1003,9 hPa 0,0 l/m² 7,2 km/h (2 Bft) O 84 ° 0 min 18 W/m² 6,0 °C 6,4 °C 12,9 km/h (3 Bft)
16.11.2022 14:32 21,9 °C 7,1 °C 55 % 93 % 1003,9 hPa 0,0 l/m² 7,7 km/h (2 Bft) O 88 ° 0 min 18 W/m² 6,0 °C 6,0 °C 11,3 km/h (2 Bft)
16.11.2022 14:33 21,9 °C 7,1 °C 55 % 93 % 1003,9 hPa 0,0 l/m² 7,2 km/h (2 Bft) O-NO 71 ° 0 min 16 W/m² 6,0 °C 6,4 °C 11,3 km/h (2 Bft)
16.11.2022 14:35 21,9 °C 7,1 °C 55 % 93 % 1003,9 hPa 0,0 l/m² 7,5 km/h (2 Bft) O 86 ° 0 min 16 W/m² 6,0 °C 6,2 °C 12,9 km/h (3 Bft)
16.11.2022 14:37 21,9 °C 7,1 °C 55 % 93 % 1003,9 hPa 0,0 l/m² 10,0 km/h (2 Bft) O 93 ° 0 min 16 W/m² 6,0 °C 4,4 °C 14,5 km/h (3 Bft)
16.11.2022 14:39 21,9 °C 7,1 °C 55 % 93 % 1003,8 hPa 0,0 l/m² 10,4 km/h (2 Bft) O-NO 59 ° 0 min 18 W/m² 6,0 °C 4,1 °C 16,1 km/h (3 Bft)
16.11.2022 14:41 21,8 °C 7,0 °C 55 % 93 % 1003,8 hPa 0,0 l/m² 8,5 km/h (2 Bft) O-NO 64 ° 0 min 18 W/m² 5,9 °C 5,3 °C 14,5 km/h (3 Bft)
16.11.2022 14:42 21,9 °C 7,0 °C 55 % 93 % 1003,8 hPa 0,0 l/m² 8,3 km/h (2 Bft) O-NO 78 ° 0 min 18 W/m² 5,9 °C 5,5 °C 16,1 km/h (3 Bft)
16.11.2022 14:43 21,9 °C 7,0 °C 55 % 93 % 1003,8 hPa 0,0 l/m² 9,5 km/h (2 Bft) O-NO 68 ° 0 min 18 W/m² 5,9 °C 4,6 °C 14,5 km/h (3 Bft)
16.11.2022 14:45 21,8 °C 7,0 °C 55 % 93 % 1003,8 hPa 0,0 l/m² 9,2 km/h (2 Bft) O 94 ° 0 min 21 W/m² 5,9 °C 4,8 °C 17,7 km/h (3 Bft)
16.11.2022 14:47 21,8 °C 7,0 °C 55 % 93 % 1003,7 hPa 0,0 l/m² 8,3 km/h (2 Bft) NO 41 ° 0 min 21 W/m² 5,9 °C 5,5 °C 12,9 km/h (3 Bft)
16.11.2022 14:49 21,9 °C 7,0 °C 55 % 93 % 1003,8 hPa 0,0 l/m² 7,5 km/h (2 Bft) O-NO 60 ° 0 min 19 W/m² 5,9 °C 6,1 °C 12,9 km/h (3 Bft)
16.11.2022 14:51 21,9 °C 7,0 °C 55 % 93 % 1003,8 hPa 0,0 l/m² 6,4 km/h (2 Bft) O-NO 60 ° 0 min 18 W/m² 5,9 °C 7,0 °C 11,3 km/h (2 Bft)
16.11.2022 14:52 21,9 °C 7,0 °C 55 % 93 % 1003,7 hPa 0,2 l/m² 5,2 km/h (1 Bft) NO 48 ° 0 min 18 W/m² 5,9 °C 7,0 °C 8,0 km/h (2 Bft)
16.11.2022 14:53 21,9 °C 6,9 °C 55 % 93 % 1003,7 hPa 0,0 l/m² 5,8 km/h (2 Bft) O 80 ° 0 min 16 W/m² 5,8 °C 6,9 °C 8,0 km/h (2 Bft)
16.11.2022 14:55 21,9 °C 6,9 °C 55 % 93 % 1003,8 hPa 0,0 l/m² 4,9 km/h (1 Bft) O-NO 78 ° 0 min 16 W/m² 5,8 °C 6,9 °C 9,7 km/h (2 Bft)
16.11.2022 14:57 21,9 °C 6,9 °C 55 % 93 % 1003,8 hPa 0,0 l/m² 8,2 km/h (2 Bft) O 81 ° 0 min 16 W/m² 5,8 °C 5,4 °C 12,9 km/h (3 Bft)
16.11.2022 14:59 21,9 °C 6,9 °C 55 % 93 % 1003,8 hPa 0,0 l/m² 5,3 km/h (1 Bft) O-NO 71 ° 0 min 16 W/m² 5,8 °C 6,9 °C 11,3 km/h (2 Bft)
16.11.2022 15:01 21,9 °C 6,9 °C 55 % 93 % 1003,8 hPa 0,0 l/m² 6,8 km/h (2 Bft) O 80 ° 0 min 16 W/m² 5,8 °C 6,6 °C 11,3 km/h (2 Bft)
16.11.2022 15:02 21,9 °C 6,9 °C 55 % 93 % 1003,8 hPa 0,0 l/m² 8,3 km/h (2 Bft) O 86 ° 0 min 16 W/m² 5,8 °C 5,4 °C 12,9 km/h (3 Bft)
16.11.2022 15:03 21,9 °C 6,9 °C 55 % 93 % 1003,8 hPa 0,0 l/m² 9,4 km/h (2 Bft) O-NO 75 ° 0 min 16 W/m² 5,8 °C 4,6 °C 14,5 km/h (3 Bft)
16.11.2022 15:05 21,9 °C 6,9 °C 55 % 93 % 1003,8 hPa 0,0 l/m² 9,1 km/h (2 Bft) O 85 ° 0 min 16 W/m² 5,8 °C 4,8 °C 14,5 km/h (3 Bft)
16.11.2022 15:07 21,9 °C 6,9 °C 55 % 93 % 1003,8 hPa 0,0 l/m² 7,4 km/h (2 Bft) O-NO 66 ° 0 min 16 W/m² 5,8 °C 6,1 °C 14,5 km/h (3 Bft)
16.11.2022 15:09 21,9 °C 6,9 °C 55 % 93 % 1003,7 hPa 0,0 l/m² 9,1 km/h (2 Bft) O-NO 78 ° 0 min 16 W/m² 5,8 °C 4,8 °C 12,9 km/h (3 Bft)
16.11.2022 15:12 21,9 °C 6,9 °C 55 % 93 % 1003,7 hPa 0,0 l/m² 5,7 km/h (2 Bft) O-NO 77 ° 0 min 18 W/m² 5,8 °C 6,9 °C 14,5 km/h (3 Bft)
16.11.2022 15:14 21,9 °C 6,9 °C 55 % 93 % 1003,7 hPa 0,0 l/m² 6,5 km/h (2 Bft) NO 53 ° 0 min 18 W/m² 5,8 °C 6,8 °C 14,5 km/h (3 Bft)
16.11.2022 15:15 21,9 °C 6,9 °C 55 % 93 % 1003,7 hPa 0,0 l/m² 4,4 km/h (1 Bft) O 84 ° 0 min 18 W/m² 5,8 °C 6,9 °C 8,0 km/h (2 Bft)
16.11.2022 15:17 21,9 °C 6,9 °C 55 % 93 % 1003,7 hPa 0,0 l/m² 6,5 km/h (2 Bft) O-NO 74 ° 0 min 18 W/m² 5,8 °C 6,8 °C 11,3 km/h (2 Bft)
16.11.2022 15:19 21,9 °C 6,9 °C 55 % 93 % 1003,7 hPa 0,0 l/m² 8,6 km/h (2 Bft) O-NO 74 ° 0 min 18 W/m² 5,8 °C 5,1 °C 12,9 km/h (3 Bft)
16.11.2022 15:21 21,9 °C 6,9 °C 55 % 93 % 1003,6 hPa 0,0 l/m² 8,3 km/h (2 Bft) O 89 ° 0 min 16 W/m² 5,8 °C 5,4 °C 12,9 km/h (3 Bft)
16.11.2022 15:22 21,9 °C 6,9 °C 55 % 93 % 1003,6 hPa 0,0 l/m² 9,7 km/h (2 Bft) O 86 ° 0 min 16 W/m² 5,8 °C 4,4 °C 14,5 km/h (3 Bft)
16.11.2022 15:23 21,9 °C 6,9 °C 55 % 93 % 1003,6 hPa 0,0 l/m² 8,9 km/h (2 Bft) O 80 ° 0 min 16 W/m² 5,8 °C 4,9 °C 12,9 km/h (3 Bft)
16.11.2022 15:25 21,9 °C 6,9 °C 55 % 94 % 1003,7 hPa 0,0 l/m² 8,3 km/h (2 Bft) O-NO 67 ° 0 min 16 W/m² 6,0 °C 5,4 °C 12,9 km/h (3 Bft)
16.11.2022 15:26 21,9 °C 6,9 °C 55 % 93 % 1003,7 hPa 0,0 l/m² 8,0 km/h (2 Bft) NO 52 ° 0 min 16 W/m² 5,8 °C 5,6 °C 12,9 km/h (3 Bft)
16.11.2022 15:27 22,0 °C 6,9 °C 55 % 93 % 1003,7 hPa 0,0 l/m² 5,7 km/h (2 Bft) O-NO 65 ° 0 min 14 W/m² 5,8 °C 6,9 °C 8,0 km/h (2 Bft)
16.11.2022 15:28 22,0 °C 6,9 °C 55 % 93 % 1003,7 hPa 0,0 l/m² 6,8 km/h (2 Bft) O 80 ° 0 min 14 W/m² 5,8 °C 6,6 °C 9,7 km/h (2 Bft)
16.11.2022 15:30 22,0 °C 6,9 °C 55 % 93 % 1003,7 hPa 0,0 l/m² 5,6 km/h (2 Bft) O-NO 74 ° 0 min 14 W/m² 5,8 °C 6,9 °C 9,7 km/h (2 Bft)
16.11.2022 15:32 22,0 °C 6,9 °C 55 % 93 % 1003,6 hPa 0,0 l/m² 7,2 km/h (2 Bft) O-NO 76 ° 0 min 12 W/m² 5,8 °C 6,2 °C 12,9 km/h (3 Bft)
16.11.2022 15:33 22,0 °C 6,9 °C 55 % 93 % 1003,7 hPa 0,0 l/m² 7,2 km/h (2 Bft) O-NO 65 ° 0 min 11 W/m² 5,8 °C 6,2 °C 11,3 km/h (2 Bft)
16.11.2022 15:34 22,0 °C 6,9 °C 55 % 93 % 1003,7 hPa 0,2 l/m² 4,8 km/h (1 Bft) O-NO 62 ° 0 min 11 W/m² 5,8 °C 6,9 °C 6,4 km/h (2 Bft)
16.11.2022 15:36 22,0 °C 6,9 °C 55 % 93 % 1003,7 hPa 0,0 l/m² 7,2 km/h (2 Bft) O-NO 59 ° 0 min 9 W/m² 5,8 °C 6,2 °C 12,9 km/h (3 Bft)
16.11.2022 15:38 21,9 °C 6,9 °C 55 % 93 % 1003,6 hPa 0,0 l/m² 6,4 km/h (2 Bft) O-NO 59 ° 0 min 9 W/m² 5,8 °C 6,9 °C 11,3 km/h (2 Bft)
16.11.2022 15:40 22,0 °C 6,9 °C 55 % 93 % 1003,6 hPa 0,0 l/m² 4,5 km/h (1 Bft) O 81 ° 0 min 9 W/m² 5,8 °C 6,9 °C 9,7 km/h (2 Bft)
16.11.2022 15:42 21,9 °C 6,9 °C 55 % 93 % 1003,5 hPa 0,0 l/m² 6,6 km/h (2 Bft) O-NO 61 ° 0 min 7 W/m² 5,8 °C 6,8 °C 11,3 km/h (2 Bft)
16.11.2022 15:43 22,0 °C 6,9 °C 55 % 94 % 1003,5 hPa 0,0 l/m² 3,1 km/h (1 Bft) O 80 ° 0 min 7 W/m² 6,0 °C 6,9 °C 4,8 km/h (1 Bft)
16.11.2022 15:44 22,0 °C 6,9 °C 55 % 93 % 1003,5 hPa 0,0 l/m² 8,0 km/h (2 Bft) NO 50 ° 0 min 5 W/m² 5,8 °C 5,6 °C 8,0 km/h (2 Bft)
16.11.2022 15:46 22,0 °C 6,9 °C 55 % 94 % 1003,6 hPa 0,0 l/m² 6,2 km/h (2 Bft) O-NO 71 ° 0 min 5 W/m² 6,0 °C 6,9 °C 12,9 km/h (3 Bft)
16.11.2022 15:48 22,0 °C 6,9 °C 55 % 94 % 1003,6 hPa 0,0 l/m² 6,0 km/h (2 Bft) O-NO 66 ° 0 min 5 W/m² 6,0 °C 6,9 °C 11,3 km/h (2 Bft)
16.11.2022 15:50 22,0 °C 6,8 °C 55 % 94 % 1003,6 hPa 0,0 l/m² 7,5 km/h (2 Bft) O 80 ° 0 min 0 W/m² 5,9 °C 5,9 °C 11,3 km/h (2 Bft)
16.11.2022 15:52 22,0 °C 6,9 °C 55 % 94 % 1003,6 hPa 0,0 l/m² 5,1 km/h (1 Bft) O-NO 58 ° 0 min 0 W/m² 6,0 °C 6,9 °C 11,3 km/h (2 Bft)
16.11.2022 15:53 22,0 °C 6,8 °C 55 % 94 % 1003,5 hPa 0,0 l/m² 5,2 km/h (1 Bft) O-NO 59 ° 0 min 0 W/m² 5,9 °C 6,8 °C 8,0 km/h (2 Bft)
16.11.2022 15:54 22,0 °C 6,8 °C 55 % 94 % 1003,5 hPa 0,0 l/m² 4,3 km/h (1 Bft) O 91 ° 0 min 5 W/m² 5,9 °C 6,8 °C 6,4 km/h (2 Bft)
16.11.2022 15:56 22,0 °C 6,8 °C 55 % 94 % 1003,5 hPa 0,0 l/m² 6,0 km/h (2 Bft) O-NO 69 ° 0 min 5 W/m² 5,9 °C 6,8 °C 12,9 km/h (3 Bft)
16.11.2022 15:58 22,0 °C 6,8 °C 55 % 94 % 1003,5 hPa 0,0 l/m² 5,0 km/h (1 Bft) O-NO 71 ° 0 min 5 W/m² 5,9 °C 6,8 °C 8,0 km/h (2 Bft)
16.11.2022 16:00 21,9 °C 6,8 °C 55 % 94 % 1003,4 hPa 0,2 l/m² 8,4 km/h (2 Bft) O-NO 66 ° 0 min 7 W/m² 5,9 °C 5,2 °C 16,1 km/h (3 Bft)
16.11.2022 16:02 21,9 °C 6,8 °C 55 % 94 % 1003,5 hPa 0,0 l/m² 8,3 km/h (2 Bft) O 80 ° 0 min 5 W/m² 5,9 °C 5,3 °C 12,9 km/h (3 Bft)
16.11.2022 16:03 21,9 °C 6,8 °C 55 % 94 % 1003,5 hPa 0,0 l/m² 7,5 km/h (2 Bft) NO 36 ° 0 min 5 W/m² 5,9 °C 5,9 °C 12,9 km/h (3 Bft)
16.11.2022 16:04 21,9 °C 6,8 °C 55 % 94 % 1003,5 hPa 0,0 l/m² 6,1 km/h (2 Bft) O-NO 73 ° 0 min 5 W/m² 5,9 °C 6,8 °C 11,3 km/h (2 Bft)
16.11.2022 16:06 22,0 °C 6,8 °C 55 % 94 % 1003,5 hPa 0,0 l/m² 6,9 km/h (2 Bft) O-NO 71 ° 0 min 0 W/m² 5,9 °C 6,4 °C 14,5 km/h (3 Bft)
16.11.2022 16:08 22,0 °C 6,8 °C 55 % 94 % 1003,5 hPa 0,0 l/m² 6,3 km/h (2 Bft) O-NO 70 ° 0 min 0 W/m² 5,9 °C 6,8 °C 11,3 km/h (2 Bft)
16.11.2022 16:10 21,9 °C 6,8 °C 55 % 94 % 1003,5 hPa 0,0 l/m² 6,6 km/h (2 Bft) O-NO 77 ° 0 min 0 W/m² 5,9 °C 6,7 °C 8,0 km/h (2 Bft)
16.11.2022 16:12 21,9 °C 6,8 °C 55 % 94 % 1003,5 hPa 0,0 l/m² 6,3 km/h (2 Bft) O 80 ° 0 min 0 W/m² 5,9 °C 6,8 °C 11,3 km/h (2 Bft)
16.11.2022 16:13 21,9 °C 6,8 °C 55 % 94 % 1003,5 hPa 0,0 l/m² 7,8 km/h (2 Bft) NO 51 ° 0 min 0 W/m² 5,9 °C 5,6 °C 12,9 km/h (3 Bft)
16.11.2022 16:14 21,9 °C 6,8 °C 55 % 94 % 1003,5 hPa 0,0 l/m² 7,2 km/h (2 Bft) O 91 ° 0 min 0 W/m² 5,9 °C 6,1 °C 11,3 km/h (2 Bft)
16.11.2022 16:16 21,9 °C 6,8 °C 55 % 94 % 1003,5 hPa 0,0 l/m² 4,4 km/h (1 Bft) O-NO 69 ° 0 min 0 W/m² 5,9 °C 6,8 °C 11,3 km/h (2 Bft)
16.11.2022 16:18 21,9 °C 6,7 °C 55 % 94 % 1003,5 hPa 0,0 l/m² 6,1 km/h (2 Bft) O-NO 60 ° 0 min 0 W/m² 5,8 °C 6,7 °C 9,7 km/h (2 Bft)
16.11.2022 16:20 21,9 °C 6,7 °C 55 % 94 % 1003,5 hPa 0,0 l/m² 7,3 km/h (2 Bft) O-NO 62 ° 0 min 0 W/m² 5,8 °C 6,0 °C 14,5 km/h (3 Bft)
16.11.2022 16:22 21,9 °C 6,7 °C 55 % 94 % 1003,5 hPa 0,0 l/m² 7,1 km/h (2 Bft) O-NO 76 ° 0 min 0 W/m² 5,8 °C 6,1 °C 12,9 km/h (3 Bft)
16.11.2022 16:23 21,9 °C 6,7 °C 55 % 94 % 1003,5 hPa 0,2 l/m² 6,4 km/h (2 Bft) O-NO 61 ° 0 min 0 W/m² 5,8 °C 6,7 °C 8,0 km/h (2 Bft)
16.11.2022 16:24 21,9 °C 6,7 °C 55 % 94 % 1003,5 hPa 0,0 l/m² 6,5 km/h (2 Bft) O-NO 73 ° 0 min 0 W/m² 5,8 °C 6,6 °C 11,3 km/h (2 Bft)
16.11.2022 16:26 21,9 °C 6,7 °C 55 % 94 % 1003,5 hPa 0,0 l/m² 7,1 km/h (2 Bft) O-NO 62 ° 0 min 0 W/m² 5,8 °C 6,1 °C 12,9 km/h (3 Bft)
16.11.2022 16:28 21,9 °C 6,7 °C 55 % 94 % 1003,6 hPa 0,0 l/m² 4,7 km/h (1 Bft) O 86 ° 0 min 0 W/m² 5,8 °C 6,7 °C 8,0 km/h (2 Bft)
16.11.2022 16:30 21,9 °C 6,7 °C 55 % 94 % 1003,5 hPa 0,0 l/m² 7,9 km/h (2 Bft) NO 43 ° 0 min 0 W/m² 5,8 °C 5,5 °C 12,9 km/h (3 Bft)
16.11.2022 16:32 21,9 °C 6,7 °C 55 % 94 % 1003,5 hPa 0,2 l/m² 6,0 km/h (2 Bft) O-NO 74 ° 0 min 0 W/m² 5,8 °C 6,7 °C 8,0 km/h (2 Bft)
16.11.2022 16:33 21,9 °C 6,7 °C 55 % 94 % 1003,5 hPa 0,0 l/m² 10,1 km/h (2 Bft) O-NO 78 ° 0 min 0 W/m² 5,8 °C 3,9 °C 12,9 km/h (3 Bft)
16.11.2022 16:34 21,9 °C 6,7 °C 55 % 94 % 1003,5 hPa 0,0 l/m² 6,4 km/h (2 Bft) O-NO 71 ° 0 min 0 W/m² 5,8 °C 6,7 °C 12,9 km/h (3 Bft)
16.11.2022 16:36 21,9 °C 6,7 °C 55 % 94 % 1003,4 hPa 0,0 l/m² 5,8 km/h (2 Bft) O-NO 70 ° 0 min 0 W/m² 5,8 °C 6,7 °C 11,3 km/h (2 Bft)
16.11.2022 16:38 21,9 °C 6,7 °C 55 % 94 % 1003,5 hPa 0,0 l/m² 5,6 km/h (2 Bft) O-NO 63 ° 0 min 0 W/m² 5,8 °C 6,7 °C 12,9 km/h (3 Bft)
16.11.2022 16:40 21,9 °C 6,6 °C 55 % 94 % 1003,5 hPa 0,2 l/m² 7,2 km/h (2 Bft) O-NO 76 ° 0 min 0 W/m² 5,7 °C 5,9 °C 12,9 km/h (3 Bft)
16.11.2022 16:42 21,9 °C 6,7 °C 55 % 94 % 1003,5 hPa 0,0 l/m² 7,0 km/h (2 Bft) O-NO 69 ° 0 min 0 W/m² 5,8 °C 6,2 °C 11,3 km/h (2 Bft)
16.11.2022 16:43 21,9 °C 6,7 °C 55 % 94 % 1003,5 hPa 0,0 l/m² 7,4 km/h (2 Bft) O 82 ° 0 min 0 W/m² 5,8 °C 5,9 °C 12,9 km/h (3 Bft)
16.11.2022 16:44 21,9 °C 6,7 °C 55 % 94 % 1003,5 hPa 0,0 l/m² 8,9 km/h (2 Bft) O 83 ° 0 min 0 W/m² 5,8 °C 4,7 °C 11,3 km/h (2 Bft)
16.11.2022 16:46 21,9 °C 6,6 °C 54 % 94 % 1003,5 hPa 0,0 l/m² 7,1 km/h (2 Bft) O-NO 74 ° 0 min 0 W/m² 5,7 °C 6,0 °C 11,3 km/h (2 Bft)
16.11.2022 16:48 21,9 °C 6,7 °C 54 % 94 % 1003,5 hPa 0,2 l/m² 6,3 km/h (2 Bft) O-NO 57 ° 0 min 0 W/m² 5,8 °C 6,7 °C 9,7 km/h (2 Bft)
16.11.2022 16:50 21,9 °C 6,7 °C 54 % 94 % 1003,5 hPa 0,0 l/m² 5,3 km/h (1 Bft) O-NO 72 ° 0 min 0 W/m² 5,8 °C 6,7 °C 11,3 km/h (2 Bft)
16.11.2022 16:52 21,9 °C 6,6 °C 54 % 94 % 1003,5 hPa 0,0 l/m² 6,2 km/h (2 Bft) O-NO 68 ° 0 min 0 W/m² 5,7 °C 6,6 °C 9,7 km/h (2 Bft)
16.11.2022 16:53 21,9 °C 6,7 °C 54 % 94 % 1003,5 hPa 0,2 l/m² 6,7 km/h (2 Bft) O 80 ° 0 min 0 W/m² 5,8 °C 6,5 °C 8,0 km/h (2 Bft)
16.11.2022 16:54 21,9 °C 6,7 °C 54 % 94 % 1003,5 hPa 0,0 l/m² 6,9 km/h (2 Bft) O 80 ° 0 min 0 W/m² 5,8 °C 6,3 °C 8,0 km/h (2 Bft)
16.11.2022 16:56 21,9 °C 6,6 °C 54 % 94 % 1003,5 hPa 0,0 l/m² 7,2 km/h (2 Bft) NO 53 ° 0 min 0 W/m² 5,7 °C 5,9 °C 12,9 km/h (3 Bft)
16.11.2022 16:58 21,9 °C 6,6 °C 54 % 94 % 1003,5 hPa 0,2 l/m² 6,4 km/h (2 Bft) O-NO 78 ° 0 min 0 W/m² 5,7 °C 6,6 °C 11,3 km/h (2 Bft)
16.11.2022 16:59 21,9 °C 6,6 °C 54 % 94 % 1003,5 hPa 0,0 l/m² 6,4 km/h (2 Bft) O-NO 67 ° 0 min 0 W/m² 5,7 °C 6,6 °C 8,0 km/h (2 Bft)
16.11.2022 17:00 21,9 °C 6,7 °C 55 % 94 % 1003,5 hPa 0,0 l/m² 6,4 km/h (2 Bft) NO 45 ° 0 min 0 W/m² 5,8 °C 6,7 °C 11,3 km/h (2 Bft)
16.11.2022 17:07 21,9 °C 6,6 °C 54 % 94 % 1003,4 hPa 0,2 l/m² 3,0 km/h (1 Bft) O-NO 72 ° 0 min 0 W/m² 5,7 °C 6,6 °C 4,8 km/h (1 Bft)
16.11.2022 17:08 21,9 °C 6,6 °C 54 % 94 % 1003,4 hPa 0,0 l/m² 3,7 km/h (1 Bft) O-NO 76 ° 0 min 0 W/m² 5,7 °C 6,6 °C 4,8 km/h (1 Bft)
16.11.2022 17:09 21,9 °C 6,6 °C 54 % 94 % 1003,5 hPa 0,0 l/m² 5,8 km/h (2 Bft) O 80 ° 0 min 0 W/m² 5,7 °C 6,6 °C 12,9 km/h (3 Bft)
16.11.2022 17:11 21,9 °C 6,6 °C 54 % 94 % 1003,5 hPa 0,2 l/m² 6,8 km/h (2 Bft) O-NO 78 ° 0 min 0 W/m² 5,7 °C 6,3 °C 14,5 km/h (3 Bft)
16.11.2022 17:13 21,9 °C 6,6 °C 54 % 94 % 1003,5 hPa 0,0 l/m² 7,5 km/h (2 Bft) NO 53 ° 0 min 0 W/m² 5,7 °C 5,7 °C 14,5 km/h (3 Bft)
16.11.2022 17:14 21,9 °C 6,6 °C 54 % 94 % 1003,5 hPa 0,0 l/m² 8,4 km/h (2 Bft) O 81 ° 0 min 0 W/m² 5,7 °C 5,0 °C 11,3 km/h (2 Bft)
16.11.2022 17:15 21,9 °C 6,6 °C 54 % 94 % 1003,5 hPa 0,0 l/m² 5,9 km/h (2 Bft) O 84 ° 0 min 0 W/m² 5,7 °C 6,6 °C 8,0 km/h (2 Bft)
16.11.2022 17:17 21,9 °C 6,6 °C 54 % 94 % 1003,5 hPa 0,0 l/m² 7,0 km/h (2 Bft) O 87 ° 0 min 0 W/m² 5,7 °C 6,1 °C 12,9 km/h (3 Bft)
16.11.2022 17:19 21,9 °C 6,6 °C 54 % 94 % 1003,5 hPa 0,0 l/m² 5,9 km/h (2 Bft) O-NO 73 ° 0 min 0 W/m² 5,7 °C 6,6 °C 9,7 km/h (2 Bft)
16.11.2022 17:20 21,9 °C 6,6 °C 54 % 94 % 1003,5 hPa 0,0 l/m² 9,1 km/h (2 Bft) NO 40 ° 0 min 0 W/m² 5,7 °C 4,5 °C 11,3 km/h (2 Bft)
16.11.2022 17:21 21,9 °C 6,6 °C 54 % 94 % 1003,5 hPa 0,0 l/m² 5,2 km/h (1 Bft) O 86 ° 0 min 0 W/m² 5,7 °C 6,6 °C 8,0 km/h (2 Bft)
16.11.2022 17:22 21,9 °C 6,6 °C 54 % 94 % 1003,5 hPa 0,0 l/m² 10,7 km/h (2 Bft) O 80 ° 0 min 0 W/m² 5,7 °C 3,4 °C 14,5 km/h (3 Bft)
16.11.2022 17:23 21,9 °C 6,6 °C 54 % 94 % 1003,5 hPa 0,0 l/m² 6,9 km/h (2 Bft) O-NO 60 ° 0 min 0 W/m² 5,7 °C 6,2 °C 11,3 km/h (2 Bft)
16.11.2022 17:24 21,9 °C 6,6 °C 54 % 94 % 1003,5 hPa 0,0 l/m² 5,6 km/h (2 Bft) O 82 ° 0 min 0 W/m² 5,7 °C 6,6 °C 8,0 km/h (2 Bft)
16.11.2022 17:26 21,9 °C 6,6 °C 54 % 94 % 1003,4 hPa 0,2 l/m² 4,9 km/h (1 Bft) O-NO 78 ° 0 min 0 W/m² 5,7 °C 6,6 °C 11,3 km/h (2 Bft)
16.11.2022 17:28 21,9 °C 6,6 °C 53 % 94 % 1003,5 hPa 0,0 l/m² 5,5 km/h (2 Bft) O 79 ° 0 min 0 W/m² 5,7 °C 6,6 °C 9,7 km/h (2 Bft)
16.11.2022 17:30 21,9 °C 6,6 °C 53 % 94 % 1003,5 hPa 0,0 l/m² 4,3 km/h (1 Bft) O 94 ° 0 min 0 W/m² 5,7 °C 6,6 °C 8,0 km/h (2 Bft)
16.11.2022 17:31 21,9 °C 6,6 °C 53 % 94 % 1003,5 hPa 0,0 l/m² 6,1 km/h (2 Bft) O-NO 77 ° 0 min 0 W/m² 5,7 °C 6,6 °C 8,0 km/h (2 Bft)
16.11.2022 17:32 21,9 °C 6,6 °C 53 % 94 % 1003,4 hPa 0,0 l/m² 5,2 km/h (1 Bft) O 86 ° 0 min 0 W/m² 5,7 °C 6,6 °C 8,0 km/h (2 Bft)
16.11.2022 17:33 21,8 °C 6,6 °C 53 % 94 % 1003,4 hPa 0,0 l/m² 6,0 km/h (2 Bft) O-NO 78 ° 0 min 0 W/m² 5,7 °C 6,6 °C 8,0 km/h (2 Bft)
16.11.2022 17:34 21,9 °C 6,6 °C 53 % 94 % 1003,5 hPa 0,0 l/m² 6,2 km/h (2 Bft) O 92 ° 0 min 0 W/m² 5,7 °C 6,6 °C 8,0 km/h (2 Bft)
16.11.2022 17:36 21,8 °C 6,6 °C 53 % 94 % 1003,5 hPa 0,0 l/m² 3,0 km/h (1 Bft) O-NO 78 ° 0 min 0 W/m² 5,7 °C 6,6 °C 4,8 km/h (1 Bft)
16.11.2022 17:38 21,8 °C 6,6 °C 53 % 94 % 1003,5 hPa 0,0 l/m² 6,3 km/h (2 Bft) O 96 ° 0 min 0 W/m² 5,7 °C 6,6 °C 9,7 km/h (2 Bft)
16.11.2022 17:40 21,8 °C 6,6 °C 54 % 94 % 1003,5 hPa 0,0 l/m² 5,4 km/h (2 Bft) O-NO 58 ° 0 min 0 W/m² 5,7 °C 6,6 °C 9,7 km/h (2 Bft)
16.11.2022 17:41 21,8 °C 6,6 °C 54 % 94 % 1003,6 hPa 0,0 l/m² 8,3 km/h (2 Bft) O-NO 77 ° 0 min 0 W/m² 5,7 °C 5,1 °C 14,5 km/h (3 Bft)
16.11.2022 17:42 21,8 °C 6,6 °C 54 % 94 % 1003,5 hPa 0,0 l/m² 7,4 km/h (2 Bft) O-NO 67 ° 0 min 0 W/m² 5,7 °C 5,8 °C 12,9 km/h (3 Bft)
16.11.2022 17:43 21,8 °C 6,6 °C 54 % 94 % 1003,6 hPa 0,0 l/m² 6,0 km/h (2 Bft) NO 55 ° 0 min 0 W/m² 5,7 °C 6,6 °C 8,0 km/h (2 Bft)
16.11.2022 17:44 21,8 °C 6,6 °C 54 % 94 % 1003,6 hPa 0,0 l/m² 5,2 km/h (1 Bft) O-NO 69 ° 0 min 0 W/m² 5,7 °C 6,6 °C 8,0 km/h (2 Bft)
16.11.2022 17:46 21,8 °C 6,6 °C 54 % 95 % 1003,6 hPa 0,0 l/m² 9,4 km/h (2 Bft) O 84 ° 0 min 0 W/m² 5,9 °C 4,2 °C 12,9 km/h (3 Bft)
16.11.2022 17:48 21,8 °C 6,6 °C 54 % 95 % 1003,5 hPa 0,0 l/m² 8,6 km/h (2 Bft) NO 55 ° 0 min 0 W/m² 5,9 °C 4,8 °C 12,9 km/h (3 Bft)
16.11.2022 17:50 21,8 °C 6,5 °C 54 % 95 % 1003,6 hPa 0,0 l/m² 5,5 km/h (2 Bft) O-NO 70 ° 0 min 0 W/m² 5,8 °C 6,5 °C 11,3 km/h (2 Bft)
16.11.2022 17:51 21,9 °C 6,6 °C 54 % 94 % 1003,6 hPa 0,0 l/m² 7,9 km/h (2 Bft) NO 51 ° 0 min 0 W/m² 5,7 °C 5,4 °C 12,9 km/h (3 Bft)
16.11.2022 17:52 21,8 °C 6,5 °C 54 % 95 % 1003,6 hPa 0,0 l/m² 6,9 km/h (2 Bft) O 80 ° 0 min 0 W/m² 5,8 °C 6,1 °C 9,7 km/h (2 Bft)
16.11.2022 17:53 21,9 °C 6,5 °C 54 % 95 % 1003,6 hPa 0,0 l/m² 3,9 km/h (1 Bft) O-NO 65 ° 0 min 0 W/m² 5,8 °C 6,5 °C 8,0 km/h (2 Bft)
16.11.2022 17:54 21,8 °C 6,6 °C 54 % 95 % 1003,5 hPa 0,0 l/m² 5,5 km/h (2 Bft) O-NO 76 ° 0 min 0 W/m² 5,9 °C 6,6 °C 6,4 km/h (2 Bft)
16.11.2022 17:56 21,8 °C 6,5 °C 54 % 95 % 1003,5 hPa 0,0 l/m² 7,7 km/h (2 Bft) NO 55 ° 0 min 0 W/m² 5,8 °C 5,4 °C 11,3 km/h (2 Bft)
16.11.2022 17:58 21,9 °C 6,6 °C 54 % 95 % 1003,5 hPa 0,2 l/m² 3,8 km/h (1 Bft) O-NO 59 ° 0 min 0 W/m² 5,9 °C 6,6 °C 6,4 km/h (2 Bft)
16.11.2022 18:00 21,8 °C 6,6 °C 54 % 95 % 1003,5 hPa 0,0 l/m² 5,1 km/h (1 Bft) O-NO 77 ° 0 min 0 W/m² 5,9 °C 6,6 °C 11,3 km/h (2 Bft)
16.11.2022 18:01 21,8 °C 6,6 °C 54 % 95 % 1003,5 hPa 0,0 l/m² 5,1 km/h (1 Bft) O-NO 57 ° 0 min 0 W/m² 5,9 °C 6,6 °C 8,0 km/h (2 Bft)
16.11.2022 18:02 21,8 °C 6,5 °C 54 % 95 % 1003,5 hPa 0,0 l/m² 5,1 km/h (1 Bft) O-NO 58 ° 0 min 0 W/m² 5,8 °C 6,5 °C 8,0 km/h (2 Bft)
16.11.2022 18:03 21,8 °C 6,5 °C 54 % 95 % 1003,6 hPa 0,0 l/m² 2,1 km/h (1 Bft) O-NO 57 ° 0 min 0 W/m² 5,8 °C 6,5 °C 4,8 km/h (1 Bft)
16.11.2022 18:04 21,8 °C 6,6 °C 54 % 95 % 1003,5 hPa 0,0 l/m² 2,7 km/h (1 Bft) O 82 ° 0 min 0 W/m² 5,9 °C 6,6 °C 4,8 km/h (1 Bft)
16.11.2022 18:06 21,8 °C 6,5 °C 54 % 95 % 1003,6 hPa 0,0 l/m² 5,1 km/h (1 Bft) NO 49 ° 0 min 0 W/m² 5,8 °C 6,5 °C 12,9 km/h (3 Bft)
16.11.2022 18:08 21,8 °C 6,6 °C 54 % 95 % 1003,5 hPa 0,0 l/m² 5,0 km/h (1 Bft) O 79 ° 0 min 0 W/m² 5,9 °C 6,6 °C 11,3 km/h (2 Bft)
16.11.2022 18:10 21,8 °C 6,5 °C 54 % 95 % 1003,5 hPa 0,2 l/m² 2,5 km/h (1 Bft) O-NO 61 ° 0 min 0 W/m² 5,8 °C 6,5 °C 6,4 km/h (2 Bft)
16.11.2022 18:11 21,8 °C 6,5 °C 54 % 95 % 1003,6 hPa 0,0 l/m² 3,3 km/h (1 Bft) O-NO 74 ° 0 min 0 W/m² 5,8 °C 6,5 °C 6,4 km/h (2 Bft)
16.11.2022 18:12 21,8 °C 6,6 °C 54 % 95 % 1003,6 hPa 0,0 l/m² 5,1 km/h (1 Bft) O-NO 61 ° 0 min 0 W/m² 5,9 °C 6,6 °C 8,0 km/h (2 Bft)
16.11.2022 18:13 21,8 °C 6,6 °C 54 % 95 % 1003,6 hPa 0,0 l/m² 4,3 km/h (1 Bft) O-NO 61 ° 0 min 0 W/m² 5,9 °C 6,6 °C 6,4 km/h (2 Bft)
16.11.2022 18:14 21,8 °C 6,5 °C 54 % 95 % 1003,6 hPa 0,0 l/m² 6,6 km/h (2 Bft) O-NO 74 ° 0 min 0 W/m² 5,8 °C 6,4 °C 11,3 km/h (2 Bft)
16.11.2022 18:16 21,8 °C 6,5 °C 54 % 95 % 1003,5 hPa 0,0 l/m² 5,8 km/h (2 Bft) O-NO 61 ° 0 min 0 W/m² 5,8 °C 6,5 °C 9,7 km/h (2 Bft)
16.11.2022 18:18 21,8 °C 6,5 °C 55 % 95 % 1003,6 hPa 0,0 l/m² 6,3 km/h (2 Bft) NO 55 ° 0 min 0 W/m² 5,8 °C 6,5 °C 11,3 km/h (2 Bft)
16.11.2022 18:20 21,8 °C 6,6 °C 55 % 95 % 1003,5 hPa 0,0 l/m² 6,0 km/h (2 Bft) O-NO 68 ° 0 min 0 W/m² 5,9 °C 6,6 °C 9,7 km/h (2 Bft)
16.11.2022 18:21 21,8 °C 6,5 °C 55 % 95 % 1003,5 hPa 0,0 l/m² 4,7 km/h (1 Bft) O-NO 69 ° 0 min 0 W/m² 5,8 °C 6,5 °C 8,0 km/h (2 Bft)
16.11.2022 18:22 21,8 °C 6,6 °C 55 % 95 % 1003,6 hPa 0,0 l/m² 4,3 km/h (1 Bft) O-NO 69 ° 0 min 0 W/m² 5,9 °C 6,6 °C 6,4 km/h (2 Bft)
16.11.2022 18:23 21,8 °C 6,5 °C 55 % 95 % 1003,5 hPa 0,0 l/m² 6,2 km/h (2 Bft) NO 56 ° 0 min 0 W/m² 5,8 °C 6,5 °C 8,0 km/h (2 Bft)
16.11.2022 18:24 21,8 °C 6,5 °C 55 % 95 % 1003,5 hPa 0,0 l/m² 8,6 km/h (2 Bft) O-NO 73 ° 0 min 0 W/m² 5,8 °C 4,7 °C 12,9 km/h (3 Bft)
16.11.2022 18:26 21,8 °C 6,5 °C 55 % 95 % 1003,5 hPa 0,0 l/m² 9,1 km/h (2 Bft) O-NO 69 ° 0 min 0 W/m² 5,8 °C 4,4 °C 14,5 km/h (3 Bft)
16.11.2022 18:28 21,8 °C 6,5 °C 55 % 95 % 1003,5 hPa 0,0 l/m² 7,2 km/h (2 Bft) O-NO 57 ° 0 min 0 W/m² 5,8 °C 5,8 °C 11,3 km/h (2 Bft)
16.11.2022 18:30 21,8 °C 6,5 °C 55 % 95 % 1003,5 hPa 0,0 l/m² 6,8 km/h (2 Bft) O-NO 72 ° 0 min 0 W/m² 5,8 °C 6,2 °C 12,9 km/h (3 Bft)
16.11.2022 18:31 21,8 °C 6,5 °C 55 % 95 % 1003,5 hPa 0,0 l/m² 7,3 km/h (2 Bft) NO 52 ° 0 min 0 W/m² 5,8 °C 5,7 °C 12,9 km/h (3 Bft)
16.11.2022 18:32 21,8 °C 6,5 °C 55 % 95 % 1003,5 hPa 0,0 l/m² 4,4 km/h (1 Bft) N-NO 30 ° 0 min 0 W/m² 5,8 °C 6,5 °C 11,3 km/h (2 Bft)
16.11.2022 18:33 21,8 °C 6,5 °C 56 % 95 % 1003,5 hPa 0,0 l/m² 4,8 km/h (1 Bft) O-NO 75 ° 0 min 0 W/m² 5,8 °C 6,5 °C 6,4 km/h (2 Bft)
16.11.2022 18:35 21,8 °C 6,5 °C 56 % 94 % 1003,6 hPa 0,0 l/m² 5,1 km/h (1 Bft) O-NO 61 ° 0 min 0 W/m² 5,6 °C 6,5 °C 11,3 km/h (2 Bft)
16.11.2022 18:36 21,8 °C 6,5 °C 56 % 95 % 1003,6 hPa 0,0 l/m² 5,4 km/h (2 Bft) O-NO 76 ° 0 min 0 W/m² 5,8 °C 6,5 °C 6,4 km/h (2 Bft)
16.11.2022 18:38 21,8 °C 6,5 °C 56 % 95 % 1003,6 hPa 0,0 l/m² 7,0 km/h (2 Bft) O-NO 69 ° 0 min 0 W/m² 5,8 °C 6,0 °C 11,3 km/h (2 Bft)
16.11.2022 18:40 21,8 °C 6,5 °C 56 % 94 % 1003,7 hPa 0,0 l/m² 6,0 km/h (2 Bft) O-NO 77 ° 0 min 0 W/m² 5,6 °C 6,5 °C 11,3 km/h (2 Bft)
16.11.2022 18:41 21,8 °C 6,5 °C 57 % 95 % 1003,7 hPa 0,0 l/m² 4,9 km/h (1 Bft) O-NO 61 ° 0 min 0 W/m² 5,8 °C 6,5 °C 9,7 km/h (2 Bft)
16.11.2022 18:42 21,8 °C 6,5 °C 57 % 95 % 1003,6 hPa 0,0 l/m² 3,0 km/h (1 Bft) O-NO 71 ° 0 min 0 W/m² 5,8 °C 6,5 °C 4,8 km/h (1 Bft)
16.11.2022 18:43 21,8 °C 6,5 °C 57 % 94 % 1003,6 hPa 0,0 l/m² 5,6 km/h (2 Bft) NO 50 ° 0 min 0 W/m² 5,6 °C 6,5 °C 8,0 km/h (2 Bft)
16.11.2022 18:44 21,8 °C 6,5 °C 57 % 95 % 1003,6 hPa 0,0 l/m² 6,9 km/h (2 Bft) O-NO 73 ° 0 min 0 W/m² 5,8 °C 6,1 °C 11,3 km/h (2 Bft)
16.11.2022 18:47 21,8 °C 6,5 °C 57 % 94 % 1003,7 hPa 0,0 l/m² 4,9 km/h (1 Bft) O-NO 72 ° 0 min 0 W/m² 5,6 °C 6,5 °C 11,3 km/h (2 Bft)
16.11.2022 18:49 21,8 °C 6,4 °C 57 % 95 % 1003,7 hPa 0,2 l/m² 2,2 km/h (1 Bft) O-NO 58 ° 0 min 0 W/m² 5,7 °C 6,4 °C 6,4 km/h (2 Bft)
16.11.2022 18:50 21,8 °C 6,5 °C 57 % 95 % 1003,7 hPa 0,0 l/m² 2,2 km/h (1 Bft) O-NO 66 ° 0 min 0 W/m² 5,8 °C 6,5 °C 4,8 km/h (1 Bft)
16.11.2022 18:51 21,8 °C 6,5 °C 57 % 95 % 1003,6 hPa 0,0 l/m² 6,8 km/h (2 Bft) O-NO 71 ° 0 min 0 W/m² 5,8 °C 6,2 °C 8,0 km/h (2 Bft)
16.11.2022 18:52 21,8 °C 6,5 °C 57 % 95 % 1003,7 hPa 0,0 l/m² 5,8 km/h (2 Bft) NO 50 ° 0 min 0 W/m² 5,8 °C 6,5 °C 8,0 km/h (2 Bft)
16.11.2022 18:53 21,8 °C 6,5 °C 57 % 95 % 1003,7 hPa 0,0 l/m² 2,1 km/h (1 Bft) O-NO 74 ° 0 min 0 W/m² 5,8 °C 6,5 °C 8,0 km/h (2 Bft)
16.11.2022 18:54 21,8 °C 6,5 °C 57 % 95 % 1003,7 hPa 0,0 l/m² 6,7 km/h (2 Bft) NO 53 ° 0 min 0 W/m² 5,8 °C 6,3 °C 9,7 km/h (2 Bft)
16.11.2022 18:56 21,8 °C 6,5 °C 58 % 95 % 1003,7 hPa 0,0 l/m² 4,4 km/h (1 Bft) O-NO 61 ° 0 min 0 W/m² 5,8 °C 6,5 °C 9,7 km/h (2 Bft)
16.11.2022 18:58 21,8 °C 6,4 °C 58 % 95 % 1003,8 hPa 0,0 l/m² 3,5 km/h (1 Bft) O-NO 67 ° 0 min 0 W/m² 5,7 °C 6,4 °C 6,4 km/h (2 Bft)
16.11.2022 19:00 21,8 °C 6,5 °C 58 % 95 % 1003,7 hPa 0,0 l/m² 5,8 km/h (2 Bft) O-NO 72 ° 0 min 0 W/m² 5,8 °C 6,5 °C 11,3 km/h (2 Bft)
16.11.2022 19:01 21,9 °C 6,5 °C 58 % 95 % 1003,7 hPa 0,0 l/m² 5,9 km/h (2 Bft) O-NO 77 ° 0 min 0 W/m² 5,8 °C 6,5 °C 8,0 km/h (2 Bft)
16.11.2022 19:02 21,9 °C 6,5 °C 58 % 95 % 1003,8 hPa 0,0 l/m² 7,5 km/h (2 Bft) O-NO 78 ° 0 min 0 W/m² 5,8 °C 5,6 °C 11,3 km/h (2 Bft)
16.11.2022 19:03 21,9 °C 6,5 °C 58 % 95 % 1003,8 hPa 0,0 l/m² 7,6 km/h (2 Bft) O-NO 74 ° 0 min 0 W/m² 5,8 °C 5,5 °C 11,3 km/h (2 Bft)
16.11.2022 19:04 21,8 °C 6,5 °C 58 % 95 % 1003,8 hPa 0,0 l/m² 6,0 km/h (2 Bft) O-NO 77 ° 0 min 0 W/m² 5,8 °C 6,5 °C 8,0 km/h (2 Bft)
16.11.2022 19:06 21,9 °C 6,4 °C 58 % 95 % 1003,8 hPa 0,0 l/m² 4,0 km/h (1 Bft) O-NO 78 ° 0 min 0 W/m² 5,7 °C 6,4 °C 6,4 km/h (2 Bft)
16.11.2022 19:08 21,9 °C 6,4 °C 58 % 95 % 1003,8 hPa 0,0 l/m² 3,6 km/h (1 Bft) NO 47 ° 0 min 0 W/m² 5,7 °C 6,4 °C 8,0 km/h (2 Bft)
16.11.2022 19:10 21,9 °C 6,4 °C 58 % 95 % 1003,8 hPa 0,0 l/m² 5,7 km/h (2 Bft) O-NO 77 ° 0 min 0 W/m² 5,7 °C 6,4 °C 11,3 km/h (2 Bft)
16.11.2022 19:11 21,9 °C 6,4 °C 58 % 95 % 1003,8 hPa 0,0 l/m² 5,7 km/h (2 Bft) O 92 ° 0 min 0 W/m² 5,7 °C 6,4 °C 8,0 km/h (2 Bft)
16.11.2022 19:12 21,9 °C 6,4 °C 58 % 95 % 1003,8 hPa 0,0 l/m² 3,8 km/h (1 Bft) O-NO 70 ° 0 min 0 W/m² 5,7 °C 6,4 °C 6,4 km/h (2 Bft)
16.11.2022 19:13 21,9 °C 6,4 °C 58 % 95 % 1003,8 hPa 0,0 l/m² 2,5 km/h (1 Bft) O-NO 58 ° 0 min 0 W/m² 5,7 °C 6,4 °C 6,4 km/h (2 Bft)
16.11.2022 19:14 21,9 °C 6,4 °C 58 % 95 % 1003,8 hPa 0,0 l/m² 3,3 km/h (1 Bft) O-NO 66 ° 0 min 0 W/m² 5,7 °C 6,4 °C 6,4 km/h (2 Bft)
16.11.2022 19:16 21,8 °C 6,4 °C 58 % 95 % 1003,7 hPa 0,0 l/m² 4,6 km/h (1 Bft) O-NO 77 ° 0 min 0 W/m² 5,7 °C 6,4 °C 8,0 km/h (2 Bft)
16.11.2022 19:18 21,9 °C 6,4 °C 58 % 95 % 1003,8 hPa 0,2 l/m² 3,1 km/h (1 Bft) NO 46 ° 0 min 0 W/m² 5,7 °C 6,4 °C 6,4 km/h (2 Bft)
16.11.2022 19:20 21,9 °C 6,4 °C 58 % 95 % 1003,7 hPa 0,0 l/m² 5,1 km/h (1 Bft) NO 42 ° 0 min 0 W/m² 5,7 °C 6,4 °C 9,7 km/h (2 Bft)
16.11.2022 19:21 21,9 °C 6,4 °C 58 % 95 % 1003,7 hPa 0,0 l/m² 6,1 km/h (2 Bft) O-NO 76 ° 0 min 0 W/m² 5,7 °C 6,4 °C 8,0 km/h (2 Bft)
16.11.2022 19:22 21,9 °C 6,4 °C 58 % 95 % 1003,7 hPa 0,0 l/m² 6,6 km/h (2 Bft) O-NO 59 ° 0 min 0 W/m² 5,7 °C 6,3 °C 9,7 km/h (2 Bft)
16.11.2022 19:24 21,8 °C 6,4 °C 58 % 95 % 1003,7 hPa 0,0 l/m² 4,8 km/h (1 Bft) O-NO 57 ° 0 min 0 W/m² 5,7 °C 6,4 °C 9,7 km/h (2 Bft)
16.11.2022 19:25 21,9 °C 6,4 °C 58 % 95 % 1003,6 hPa 0,0 l/m² 6,8 km/h (2 Bft) NO 40 ° 0 min 0 W/m² 5,7 °C 6,1 °C 9,7 km/h (2 Bft)
16.11.2022 19:27 21,9 °C 6,4 °C 58 % 95 % 1003,6 hPa 0,0 l/m² 5,0 km/h (1 Bft) N-NO 30 ° 0 min 0 W/m² 5,7 °C 6,4 °C 11,3 km/h (2 Bft)
16.11.2022 19:29 21,9 °C 6,4 °C 58 % 95 % 1003,6 hPa 0,0 l/m² 7,0 km/h (2 Bft) NO 55 ° 0 min 0 W/m² 5,7 °C 5,9 °C 14,5 km/h (3 Bft)
16.11.2022 19:30 21,8 °C 6,4 °C 58 % 95 % 1003,6 hPa 0,2 l/m² 4,1 km/h (1 Bft) O-NO 60 ° 0 min 0 W/m² 5,7 °C 6,4 °C 6,4 km/h (2 Bft)
16.11.2022 19:31 21,9 °C 6,4 °C 58 % 95 % 1003,6 hPa 0,0 l/m² 5,2 km/h (1 Bft) O-NO 61 ° 0 min 0 W/m² 5,7 °C 6,4 °C 12,9 km/h (3 Bft)
16.11.2022 19:32 21,9 °C 6,4 °C 58 % 95 % 1003,6 hPa 0,0 l/m² 7,2 km/h (2 Bft) NO 51 ° 0 min 0 W/m² 5,7 °C 5,7 °C 16,1 km/h (3 Bft)
16.11.2022 19:33 21,9 °C 6,4 °C 58 % 95 % 1003,6 hPa 0,0 l/m² 8,0 km/h (2 Bft) O-NO 71 ° 0 min 0 W/m² 5,7 °C 5,1 °C 14,5 km/h (3 Bft)
16.11.2022 19:34 21,9 °C 6,4 °C 58 % 95 % 1003,7 hPa 0,0 l/m² 3,5 km/h (1 Bft) NO 53 ° 0 min 0 W/m² 5,7 °C 6,4 °C 6,4 km/h (2 Bft)
16.11.2022 19:36 21,9 °C 6,4 °C 58 % 95 % 1003,6 hPa 0,0 l/m² 6,7 km/h (2 Bft) NO 44 ° 0 min 0 W/m² 5,7 °C 6,2 °C 11,3 km/h (2 Bft)
16.11.2022 19:38 21,9 °C 6,4 °C 58 % 95 % 1003,6 hPa 0,0 l/m² 5,9 km/h (2 Bft) NO 42 ° 0 min 0 W/m² 5,7 °C 6,4 °C 11,3 km/h (2 Bft)
16.11.2022 19:40 21,9 °C 6,4 °C 58 % 95 % 1003,6 hPa 0,0 l/m² 5,8 km/h (2 Bft) O-NO 73 ° 0 min 0 W/m² 5,7 °C 6,4 °C 8,0 km/h (2 Bft)
16.11.2022 19:41 21,9 °C 6,3 °C 58 % 95 % 1003,6 hPa 0,0 l/m² 6,1 km/h (2 Bft) O-NO 67 ° 0 min 0 W/m² 5,6 °C 6,3 °C 9,7 km/h (2 Bft)
16.11.2022 19:42 21,9 °C 6,4 °C 58 % 95 % 1003,7 hPa 0,0 l/m² 3,6 km/h (1 Bft) O-NO 67 ° 0 min 0 W/m² 5,7 °C 6,4 °C 6,4 km/h (2 Bft)
16.11.2022 19:43 21,9 °C 6,4 °C 58 % 95 % 1003,6 hPa 0,0 l/m² 7,6 km/h (2 Bft) O 98 ° 0 min 0 W/m² 5,7 °C 5,4 °C 14,5 km/h (3 Bft)
16.11.2022 19:44 21,9 °C 6,4 °C 58 % 95 % 1003,5 hPa 0,0 l/m² 7,0 km/h (2 Bft) O-NO 73 ° 0 min 0 W/m² 5,7 °C 5,9 °C 12,9 km/h (3 Bft)
16.11.2022 19:46 21,9 °C 6,4 °C 58 % 95 % 1003,6 hPa 0,0 l/m² 5,7 km/h (2 Bft) NO 40 ° 0 min 0 W/m² 5,7 °C 6,4 °C 9,7 km/h (2 Bft)
16.11.2022 19:48 21,9 °C 6,4 °C 58 % 95 % 1003,5 hPa 0,0 l/m² 8,1 km/h (2 Bft) N-NO 30 ° 0 min 0 W/m² 5,7 °C 5,0 °C 12,9 km/h (3 Bft)
16.11.2022 19:50 21,9 °C 6,3 °C 58 % 95 % 1003,5 hPa 0,0 l/m² 7,0 km/h (2 Bft) O-NO 72 ° 0 min 0 W/m² 5,6 °C 5,8 °C 14,5 km/h (3 Bft)
16.11.2022 19:51 21,9 °C 6,4 °C 58 % 95 % 1003,5 hPa 0,0 l/m² 7,2 km/h (2 Bft) O-NO 76 ° 0 min 0 W/m² 5,7 °C 5,7 °C 14,5 km/h (3 Bft)
16.11.2022 19:52 21,9 °C 6,3 °C 58 % 95 % 1003,5 hPa 0,0 l/m² 7,7 km/h (2 Bft) O-NO 67 ° 0 min 0 W/m² 5,6 °C 5,2 °C 11,3 km/h (2 Bft)
16.11.2022 19:53 21,9 °C 6,3 °C 58 % 95 % 1003,6 hPa 0,0 l/m² 9,8 km/h (2 Bft) O-NO 69 ° 0 min 0 W/m² 5,6 °C 3,6 °C 14,5 km/h (3 Bft)
16.11.2022 19:54 21,9 °C 6,3 °C 58 % 95 % 1003,6 hPa 0,0 l/m² 6,6 km/h (2 Bft) O-NO 67 ° 0 min 0 W/m² 5,6 °C 6,2 °C 12,9 km/h (3 Bft)
16.11.2022 19:56 21,9 °C 6,3 °C 58 % 95 % 1003,6 hPa 0,0 l/m² 2,9 km/h (1 Bft) O 97 ° 0 min 0 W/m² 5,6 °C 6,3 °C 11,3 km/h (2 Bft)
16.11.2022 19:58 21,9 °C 6,3 °C 58 % 95 % 1003,5 hPa 0,0 l/m² 5,2 km/h (1 Bft) O-NO 57 ° 0 min 0 W/m² 5,6 °C 6,3 °C 9,7 km/h (2 Bft)
16.11.2022 20:00 21,9 °C 6,3 °C 58 % 95 % 1003,6 hPa 0,0 l/m² 3,0 km/h (1 Bft) O-NO 74 ° 0 min 0 W/m² 5,6 °C 6,3 °C 6,4 km/h (2 Bft)
16.11.2022 20:01 22,0 °C 6,4 °C 58 % 95 % 1003,6 hPa 0,0 l/m² 4,8 km/h (1 Bft) NO 38 ° 0 min 0 W/m² 5,7 °C 6,4 °C 11,3 km/h (2 Bft)
16.11.2022 20:02 21,9 °C 6,3 °C 58 % 95 % 1003,6 hPa 0,0 l/m² 7,4 km/h (2 Bft) O-NO 61 ° 0 min 0 W/m² 5,6 °C 5,5 °C 11,3 km/h (2 Bft)
16.11.2022 20:04 22,0 °C 6,3 °C 58 % 95 % 1003,6 hPa 0,0 l/m² 7,9 km/h (2 Bft) NO 37 ° 0 min 0 W/m² 5,6 °C 5,0 °C 14,5 km/h (3 Bft)
16.11.2022 20:05 21,9 °C 6,3 °C 58 % 95 % 1003,6 hPa 0,0 l/m² 5,5 km/h (2 Bft) NO 46 ° 0 min 0 W/m² 5,6 °C 6,3 °C 12,9 km/h (3 Bft)
16.11.2022 20:07 21,9 °C 6,3 °C 58 % 95 % 1003,6 hPa 0,0 l/m² 4,3 km/h (1 Bft) NO 51 ° 0 min 0 W/m² 5,6 °C 6,3 °C 11,3 km/h (2 Bft)
16.11.2022 20:09 21,9 °C 6,3 °C 57 % 95 % 1003,5 hPa 0,0 l/m² 6,0 km/h (2 Bft) O-NO 63 ° 0 min 0 W/m² 5,6 °C 6,3 °C 12,9 km/h (3 Bft)
16.11.2022 20:10 21,9 °C 6,3 °C 57 % 95 % 1003,6 hPa 0,0 l/m² 8,5 km/h (2 Bft) O 86 ° 0 min 0 W/m² 5,6 °C 4,6 °C 14,5 km/h (3 Bft)
16.11.2022 20:11 21,9 °C 6,3 °C 57 % 95 % 1003,5 hPa 0,0 l/m² 7,8 km/h (2 Bft) O-NO 76 ° 0 min 0 W/m² 5,6 °C 5,1 °C 12,9 km/h (3 Bft)
16.11.2022 20:12 21,9 °C 6,3 °C 57 % 95 % 1003,5 hPa 0,0 l/m² 9,0 km/h (2 Bft) O-NO 71 ° 0 min 0 W/m² 5,6 °C 4,2 °C 12,9 km/h (3 Bft)
16.11.2022 20:13 21,9 °C 6,3 °C 57 % 95 % 1003,6 hPa 0,0 l/m² 6,7 km/h (2 Bft) NO 54 ° 0 min 0 W/m² 5,6 °C 6,1 °C 11,3 km/h (2 Bft)
16.11.2022 20:14 21,9 °C 6,3 °C 57 % 95 % 1003,6 hPa 0,0 l/m² 11,2 km/h (2 Bft) O 84 ° 0 min 0 W/m² 5,6 °C 2,7 °C 17,7 km/h (3 Bft)
16.11.2022 20:16 21,9 °C 6,3 °C 57 % 95 % 1003,5 hPa 0,0 l/m² 7,6 km/h (2 Bft) O 85 ° 0 min 0 W/m² 5,6 °C 5,3 °C 14,5 km/h (3 Bft)
16.11.2022 20:18 21,9 °C 6,3 °C 57 % 95 % 1003,5 hPa 0,0 l/m² 4,9 km/h (1 Bft) NO 55 ° 0 min 0 W/m² 5,6 °C 6,3 °C 11,3 km/h (2 Bft)
16.11.2022 20:20 21,9 °C 6,3 °C 57 % 95 % 1003,5 hPa 0,0 l/m² 5,1 km/h (1 Bft) NO 43 ° 0 min 0 W/m² 5,6 °C 6,3 °C 16,1 km/h (3 Bft)
16.11.2022 20:21 21,9 °C 6,3 °C 57 % 95 % 1003,5 hPa 0,0 l/m² 7,2 km/h (2 Bft) O-NO 59 ° 0 min 0 W/m² 5,6 °C 5,6 °C 11,3 km/h (2 Bft)
16.11.2022 20:22 21,9 °C 6,3 °C 57 % 95 % 1003,5 hPa 0,0 l/m² 7,5 km/h (2 Bft) O-NO 58 ° 0 min 0 W/m² 5,6 °C 5,4 °C 11,3 km/h (2 Bft)
16.11.2022 20:23 21,9 °C 6,3 °C 57 % 95 % 1003,5 hPa 0,0 l/m² 10,1 km/h (2 Bft) O-NO 64 ° 0 min 0 W/m² 5,6 °C 3,4 °C 12,9 km/h (3 Bft)
16.11.2022 20:24 21,9 °C 6,3 °C 57 % 95 % 1003,4 hPa 0,0 l/m² 5,5 km/h (2 Bft) O-NO 74 ° 0 min 0 W/m² 5,6 °C 6,3 °C 8,0 km/h (2 Bft)
16.11.2022 20:26 21,9 °C 6,3 °C 57 % 95 % 1003,5 hPa 0,2 l/m² 6,3 km/h (2 Bft) NO 47 ° 0 min 0 W/m² 5,6 °C 6,3 °C 14,5 km/h (3 Bft)
16.11.2022 20:28 21,9 °C 6,3 °C 58 % 95 % 1003,5 hPa 0,0 l/m² 6,9 km/h (2 Bft) NO 45 ° 0 min 0 W/m² 5,6 °C 5,9 °C 14,5 km/h (3 Bft)
16.11.2022 20:30 21,9 °C 6,3 °C 58 % 95 % 1003,4 hPa 0,0 l/m² 7,7 km/h (2 Bft) NO 44 ° 0 min 0 W/m² 5,6 °C 5,2 °C 11,3 km/h (2 Bft)
16.11.2022 20:31 21,9 °C 6,3 °C 58 % 95 % 1003,4 hPa 0,0 l/m² 8,0 km/h (2 Bft) O-NO 58 ° 0 min 0 W/m² 5,6 °C 5,0 °C 14,5 km/h (3 Bft)
16.11.2022 20:32 21,9 °C 6,3 °C 58 % 95 % 1003,4 hPa 0,0 l/m² 4,8 km/h (1 Bft) NO 53 ° 0 min 0 W/m² 5,6 °C 6,3 °C 8,0 km/h (2 Bft)
16.11.2022 20:33 21,9 °C 6,2 °C 58 % 95 % 1003,4 hPa 0,0 l/m² 7,1 km/h (2 Bft) O-NO 72 ° 0 min 0 W/m² 5,5 °C 5,6 °C 11,3 km/h (2 Bft)
16.11.2022 20:34 21,9 °C 6,2 °C 58 % 95 % 1003,4 hPa 0,0 l/m² 6,6 km/h (2 Bft) NO 49 ° 0 min 0 W/m² 5,5 °C 6,1 °C 11,3 km/h (2 Bft)
16.11.2022 20:36 21,9 °C 6,2 °C 58 % 95 % 1003,4 hPa 0,0 l/m² 7,1 km/h (2 Bft) NO 42 ° 0 min 0 W/m² 5,5 °C 5,6 °C 14,5 km/h (3 Bft)
16.11.2022 20:38 21,9 °C 6,2 °C 58 % 95 % 1003,4 hPa 0,0 l/m² 9,1 km/h (2 Bft) O-NO 73 ° 0 min 0 W/m² 5,5 °C 4,0 °C 14,5 km/h (3 Bft)
16.11.2022 20:40 22,0 °C 6,2 °C 58 % 95 % 1003,5 hPa 0,0 l/m² 10,5 km/h (2 Bft) NO 56 ° 0 min 0 W/m² 5,5 °C 3,1 °C 16,1 km/h (3 Bft)
16.11.2022 20:41 22,0 °C 6,2 °C 58 % 95 % 1003,4 hPa 0,0 l/m² 8,7 km/h (2 Bft) O-NO 70 ° 0 min 0 W/m² 5,5 °C 4,3 °C 12,9 km/h (3 Bft)
16.11.2022 20:42 22,0 °C 6,2 °C 58 % 95 % 1003,4 hPa 0,0 l/m² 10,0 km/h (2 Bft) O 79 ° 0 min 0 W/m² 5,5 °C 3,4 °C 16,1 km/h (3 Bft)
16.11.2022 20:43 22,0 °C 6,2 °C 58 % 95 % 1003,5 hPa 0,0 l/m² 8,2 km/h (2 Bft) O-NO 66 ° 0 min 0 W/m² 5,5 °C 4,7 °C 12,9 km/h (3 Bft)
16.11.2022 20:44 22,0 °C 6,2 °C 58 % 95 % 1003,6 hPa 0,0 l/m² 9,5 km/h (2 Bft) O-NO 76 ° 0 min 0 W/m² 5,5 °C 3,7 °C 14,5 km/h (3 Bft)
16.11.2022 20:46 22,1 °C 6,2 °C 58 % 95 % 1003,5 hPa 0,0 l/m² 6,4 km/h (2 Bft) NO 42 ° 0 min 0 W/m² 5,5 °C 6,2 °C 12,9 km/h (3 Bft)
16.11.2022 20:48 22,0 °C 6,1 °C 58 % 95 % 1003,6 hPa 0,0 l/m² 6,3 km/h (2 Bft) O 81 ° 0 min 0 W/m² 5,4 °C 6,1 °C 12,9 km/h (3 Bft)
16.11.2022 20:50 22,1 °C 6,1 °C 58 % 95 % 1003,6 hPa 0,0 l/m² 7,5 km/h (2 Bft) O 81 ° 0 min 0 W/m² 5,4 °C 5,2 °C 11,3 km/h (2 Bft)
16.11.2022 20:51 22,1 °C 6,2 °C 58 % 95 % 1003,6 hPa 0,0 l/m² 7,4 km/h (2 Bft) O 86 ° 0 min 0 W/m² 5,5 °C 5,4 °C 14,5 km/h (3 Bft)
16.11.2022 20:52 22,1 °C 6,1 °C 58 % 95 % 1003,6 hPa 0,0 l/m² 7,2 km/h (2 Bft) O-NO 76 ° 0 min 0 W/m² 5,4 °C 5,4 °C 8,0 km/h (2 Bft)
16.11.2022 20:53 22,1 °C 6,1 °C 58 % 95 % 1003,6 hPa 0,0 l/m² 11,9 km/h (2 Bft) O-NO 57 ° 0 min 0 W/m² 5,4 °C 2,1 °C 17,7 km/h (3 Bft)
16.11.2022 20:54 22,1 °C 6,1 °C 58 % 95 % 1003,6 hPa 0,0 l/m² 7,5 km/h (2 Bft) O-NO 66 ° 0 min 0 W/m² 5,4 °C 5,2 °C 12,9 km/h (3 Bft)
16.11.2022 20:56 22,1 °C 6,1 °C 59 % 95 % 1003,6 hPa 0,0 l/m² 8,7 km/h (2 Bft) O-NO 76 ° 0 min 0 W/m² 5,4 °C 4,2 °C 14,5 km/h (3 Bft)
16.11.2022 20:58 22,1 °C 6,1 °C 59 % 95 % 1003,6 hPa 0,0 l/m² 7,4 km/h (2 Bft) O-NO 67 ° 0 min 0 W/m² 5,4 °C 5,3 °C 12,9 km/h (3 Bft)
16.11.2022 21:00 22,1 °C 6,1 °C 59 % 95 % 1003,5 hPa 0,0 l/m² 7,4 km/h (2 Bft) O-NO 65 ° 0 min 0 W/m² 5,4 °C 5,3 °C 14,5 km/h (3 Bft)
16.11.2022 21:01 22,1 °C 6,1 °C 59 % 95 % 1003,5 hPa 0,0 l/m² 6,4 km/h (2 Bft) O 81 ° 0 min 0 W/m² 5,4 °C 6,1 °C 14,5 km/h (3 Bft)
16.11.2022 21:02 22,1 °C 6,1 °C 59 % 95 % 1003,5 hPa 0,0 l/m² 6,1 km/h (2 Bft) O 83 ° 0 min 0 W/m² 5,4 °C 6,1 °C 12,9 km/h (3 Bft)
16.11.2022 21:04 22,1 °C 6,1 °C 59 % 95 % 1003,6 hPa 0,0 l/m² 6,5 km/h (2 Bft) O 79 ° 0 min 0 W/m² 5,4 °C 6,0 °C 14,5 km/h (3 Bft)
16.11.2022 21:05 22,1 °C 6,1 °C 59 % 95 % 1003,6 hPa 0,0 l/m² 5,3 km/h (1 Bft) O-NO 69 ° 0 min 0 W/m² 5,4 °C 6,1 °C 9,7 km/h (2 Bft)
16.11.2022 21:08 22,2 °C 6,1 °C 59 % 95 % 1003,7 hPa 0,0 l/m² 7,4 km/h (2 Bft) NO 52 ° 0 min 0 W/m² 5,4 °C 5,3 °C 14,5 km/h (3 Bft)
16.11.2022 21:10 22,2 °C 6,1 °C 59 % 95 % 1003,6 hPa 0,0 l/m² 7,7 km/h (2 Bft) O-NO 61 ° 0 min 0 W/m² 5,4 °C 5,0 °C 14,5 km/h (3 Bft)
16.11.2022 21:11 22,2 °C 6,1 °C 59 % 95 % 1003,6 hPa 0,0 l/m² 9,1 km/h (2 Bft) NO 56 ° 0 min 0 W/m² 5,4 °C 3,9 °C 14,5 km/h (3 Bft)
16.11.2022 21:12 22,2 °C 6,1 °C 59 % 95 % 1003,5 hPa 0,0 l/m² 8,4 km/h (2 Bft) O-NO 59 ° 0 min 0 W/m² 5,4 °C 4,4 °C 11,3 km/h (2 Bft)
16.11.2022 21:13 22,2 °C 6,1 °C 59 % 95 % 1003,5 hPa 0,0 l/m² 8,9 km/h (2 Bft) O-NO 68 ° 0 min 0 W/m² 5,4 °C 4,1 °C 17,7 km/h (3 Bft)
16.11.2022 21:14 22,2 °C 6,0 °C 59 % 95 % 1003,5 hPa 0,0 l/m² 13,5 km/h (3 Bft) O-NO 59 ° 0 min 0 W/m² 5,3 °C 1,1 °C 19,3 km/h (3 Bft)
16.11.2022 21:16 22,2 °C 6,0 °C 59 % 95 % 1003,4 hPa 0,0 l/m² 13,4 km/h (3 Bft) O 80 ° 0 min 0 W/m² 5,3 °C 1,1 °C 19,3 km/h (3 Bft)
16.11.2022 21:18 22,2 °C 5,9 °C 59 % 95 % 1003,6 hPa 0,0 l/m² 9,7 km/h (2 Bft) O-NO 69 ° 0 min 0 W/m² 5,2 °C 3,3 °C 16,1 km/h (3 Bft)
16.11.2022 21:20 22,2 °C 5,9 °C 59 % 95 % 1003,6 hPa 0,0 l/m² 12,1 km/h (2 Bft) O-NO 67 ° 0 min 0 W/m² 5,2 °C 1,7 °C 20,9 km/h (4 Bft)
16.11.2022 21:21 22,2 °C 5,9 °C 59 % 95 % 1003,6 hPa 0,0 l/m² 10,1 km/h (2 Bft) O-NO 66 ° 0 min 0 W/m² 5,2 °C 3,0 °C 16,1 km/h (3 Bft)
16.11.2022 21:22 22,2 °C 5,9 °C 59 % 95 % 1003,5 hPa 0,0 l/m² 5,7 km/h (2 Bft) O 90 ° 0 min 0 W/m² 5,2 °C 5,9 °C 12,9 km/h (3 Bft)
16.11.2022 21:24 22,3 °C 5,9 °C 59 % 95 % 1003,6 hPa 0,0 l/m² 11,4 km/h (2 Bft) N-NO 33 ° 0 min 0 W/m² 5,2 °C 2,2 °C 17,7 km/h (3 Bft)
16.11.2022 21:25 22,3 °C 5,9 °C 59 % 95 % 1003,6 hPa 0,0 l/m² 10,1 km/h (2 Bft) O 92 ° 0 min 0 W/m² 5,2 °C 3,0 °C 17,7 km/h (3 Bft)
16.11.2022 21:27 22,3 °C 5,9 °C 59 % 95 % 1003,6 hPa 0,0 l/m² 9,2 km/h (2 Bft) O-NO 58 ° 0 min 0 W/m² 5,2 °C 3,6 °C 20,9 km/h (4 Bft)
16.11.2022 21:29 22,3 °C 5,8 °C 59 % 95 % 1003,6 hPa 0,0 l/m² 11,5 km/h (2 Bft) O-NO 62 ° 0 min 0 W/m² 5,1 °C 2,0 °C 16,1 km/h (3 Bft)
16.11.2022 21:30 22,3 °C 5,9 °C 59 % 95 % 1003,7 hPa 0,0 l/m² 8,0 km/h (2 Bft) O 98 ° 0 min 0 W/m² 5,2 °C 4,5 °C 12,9 km/h (3 Bft)
16.11.2022 21:31 22,3 °C 5,8 °C 59 % 95 % 1003,6 hPa 0,0 l/m² 14,1 km/h (3 Bft) O-NO 73 ° 0 min 0 W/m² 5,1 °C 0,5 °C 19,3 km/h (3 Bft)
16.11.2022 21:32 22,3 °C 5,8 °C 59 % 95 % 1003,7 hPa 0,0 l/m² 7,8 km/h (2 Bft) NO 44 ° 0 min 0 W/m² 5,1 °C 4,6 °C 11,3 km/h (2 Bft)
16.11.2022 21:34 22,3 °C 5,8 °C 59 % 95 % 1003,7 hPa 0,0 l/m² 8,8 km/h (2 Bft) O-NO 65 ° 0 min 0 W/m² 5,1 °C 3,8 °C 14,5 km/h (3 Bft)
16.11.2022 21:35 22,3 °C 5,8 °C 59 % 95 % 1003,7 hPa 0,0 l/m² 10,6 km/h (2 Bft) O 99 ° 0 min 0 W/m² 5,1 °C 2,6 °C 14,5 km/h (3 Bft)
16.11.2022 21:37 22,3 °C 5,8 °C 59 % 95 % 1003,6 hPa 0,0 l/m² 11,1 km/h (2 Bft) O-NO 78 ° 0 min 0 W/m² 5,1 °C 2,2 °C 16,1 km/h (3 Bft)
16.11.2022 21:39 22,3 °C 5,8 °C 59 % 95 % 1003,7 hPa 0,0 l/m² 9,4 km/h (2 Bft) O-NO 67 ° 0 min 0 W/m² 5,1 °C 3,4 °C 14,5 km/h (3 Bft)
16.11.2022 21:40 22,3 °C 5,8 °C 59 % 95 % 1003,7 hPa 0,0 l/m² 8,9 km/h (2 Bft) NO 51 ° 0 min 0 W/m² 5,1 °C 3,7 °C 14,5 km/h (3 Bft)
16.11.2022 21:41 22,3 °C 5,8 °C 59 % 95 % 1003,7 hPa 0,0 l/m² 16,2 km/h (3 Bft) O 86 ° 0 min 0 W/m² 5,1 °C -0,5 °C 20,9 km/h (4 Bft)
16.11.2022 21:42 22,3 °C 5,8 °C 59 % 95 % 1003,7 hPa 0,0 l/m² 12,7 km/h (3 Bft) O 88 ° 0 min 0 W/m² 5,1 °C 1,3 °C 16,1 km/h (3 Bft)
16.11.2022 21:44 22,3 °C 5,8 °C 59 % 95 % 1003,7 hPa 0,0 l/m² 11,2 km/h (2 Bft) O 79 ° 0 min 0 W/m² 5,1 °C 2,2 °C 16,1 km/h (3 Bft)
16.11.2022 21:47 22,3 °C 5,8 °C 59 % 95 % 1003,7 hPa 0,0 l/m² 11,7 km/h (2 Bft) O-NO 78 ° 0 min 0 W/m² 5,1 °C 1,9 °C 19,3 km/h (3 Bft)
16.11.2022 21:49 22,3 °C 5,8 °C 59 % 95 % 1003,7 hPa 0,0 l/m² 10,0 km/h (2 Bft) O-NO 76 ° 0 min 0 W/m² 5,1 °C 3,0 °C 19,3 km/h (3 Bft)
16.11.2022 21:50 22,3 °C 5,8 °C 59 % 95 % 1003,7 hPa 0,0 l/m² 12,1 km/h (2 Bft) O-NO 57 ° 0 min 0 W/m² 5,1 °C 1,6 °C 16,1 km/h (3 Bft)
16.11.2022 21:51 22,3 °C 5,8 °C 59 % 95 % 1003,8 hPa 0,0 l/m² 13,9 km/h (3 Bft) O-NO 62 ° 0 min 0 W/m² 5,1 °C 0,6 °C 17,7 km/h (3 Bft)
16.11.2022 21:52 22,3 °C 5,7 °C 59 % 95 % 1003,8 hPa 0,0 l/m² 15,4 km/h (3 Bft) O-NO 78 ° 0 min 0 W/m² 5,0 °C -0,3 °C 19,3 km/h (3 Bft)
16.11.2022 21:54 22,3 °C 5,8 °C 59 % 95 % 1003,7 hPa 0,0 l/m² 11,3 km/h (2 Bft) O-NO 76 ° 0 min 0 W/m² 5,1 °C 2,1 °C 19,3 km/h (3 Bft)
16.11.2022 21:55 22,3 °C 5,7 °C 59 % 95 % 1003,7 hPa 0,0 l/m² 13,2 km/h (3 Bft) O 86 ° 0 min 0 W/m² 5,0 °C 0,9 °C 17,7 km/h (3 Bft)
16.11.2022 21:57 22,3 °C 5,8 °C 59 % 95 % 1003,7 hPa 0,0 l/m² 9,4 km/h (2 Bft) NO 56 ° 0 min 0 W/m² 5,1 °C 3,4 °C 16,1 km/h (3 Bft)
16.11.2022 21:59 22,3 °C 5,8 °C 59 % 95 % 1003,6 hPa 0,0 l/m² 14,6 km/h (3 Bft) O 92 ° 0 min 0 W/m² 5,1 °C 0,2 °C 22,5 km/h (4 Bft)
16.11.2022 22:00 22,3 °C 5,8 °C 59 % 94 % 1003,6 hPa 0,0 l/m² 14,0 km/h (3 Bft) O-NO 76 ° 0 min 0 W/m² 4,9 °C 0,6 °C 19,3 km/h (3 Bft)
16.11.2022 22:01 22,3 °C 5,7 °C 59 % 94 % 1003,7 hPa 0,0 l/m² 13,1 km/h (3 Bft) O 92 ° 0 min 0 W/m² 4,8 °C 0,9 °C 22,5 km/h (4 Bft)
16.11.2022 22:02 22,3 °C 5,8 °C 59 % 94 % 1003,7 hPa 0,0 l/m² 12,8 km/h (3 Bft) O-NO 59 ° 0 min 0 W/m² 4,9 °C 1,2 °C 19,3 km/h (3 Bft)
16.11.2022 22:03 22,3 °C 5,7 °C 59 % 94 % 1003,7 hPa 0,0 l/m² 13,9 km/h (3 Bft) O-NO 63 ° 0 min 0 W/m² 4,8 °C 0,5 °C 17,7 km/h (3 Bft)
16.11.2022 22:04 22,3 °C 5,8 °C 59 % 94 % 1003,7 hPa 0,0 l/m² 12,7 km/h (3 Bft) O-NO 68 ° 0 min 0 W/m² 4,9 °C 1,3 °C 17,7 km/h (3 Bft)
16.11.2022 22:06 22,3 °C 5,8 °C 59 % 94 % 1003,7 hPa 0,0 l/m² 9,0 km/h (2 Bft) O-NO 78 ° 0 min 0 W/m² 4,9 °C 3,7 °C 16,1 km/h (3 Bft)
16.11.2022 22:08 22,3 °C 5,7 °C 59 % 94 % 1003,8 hPa 0,0 l/m² 8,9 km/h (2 Bft) O-NO 78 ° 0 min 0 W/m² 4,8 °C 3,6 °C 16,1 km/h (3 Bft)
16.11.2022 22:10 22,3 °C 5,7 °C 59 % 94 % 1003,7 hPa 0,0 l/m² 8,5 km/h (2 Bft) O-NO 63 ° 0 min 0 W/m² 4,8 °C 3,9 °C 16,1 km/h (3 Bft)
16.11.2022 22:11 22,3 °C 5,7 °C 59 % 94 % 1003,8 hPa 0,0 l/m² 10,3 km/h (2 Bft) O 87 ° 0 min 0 W/m² 4,8 °C 2,6 °C 17,7 km/h (3 Bft)
16.11.2022 22:12 22,3 °C 5,7 °C 59 % 94 % 1003,8 hPa 0,0 l/m² 8,3 km/h (2 Bft) O-NO 61 ° 0 min 0 W/m² 4,8 °C 4,1 °C 12,9 km/h (3 Bft)
16.11.2022 22:13 22,3 °C 5,7 °C 59 % 94 % 1003,8 hPa 0,0 l/m² 11,5 km/h (2 Bft) O-NO 71 ° 0 min 0 W/m² 4,8 °C 1,9 °C 17,7 km/h (3 Bft)
16.11.2022 22:14 22,3 °C 5,7 °C 59 % 94 % 1003,7 hPa 0,0 l/m² 11,9 km/h (2 Bft) O-NO 74 ° 0 min 0 W/m² 4,8 °C 1,6 °C 16,1 km/h (3 Bft)
16.11.2022 22:16 22,3 °C 5,7 °C 59 % 94 % 1003,7 hPa 0,0 l/m² 12,7 km/h (3 Bft) O-NO 74 ° 0 min 0 W/m² 4,8 °C 1,2 °C 20,9 km/h (4 Bft)
16.11.2022 22:18 22,3 °C 5,7 °C 59 % 94 % 1003,7 hPa 0,0 l/m² 8,2 km/h (2 Bft) O-NO 76 ° 0 min 0 W/m² 4,8 °C 4,2 °C 14,5 km/h (3 Bft)
16.11.2022 22:20 22,3 °C 5,7 °C 59 % 94 % 1003,7 hPa 0,0 l/m² 12,6 km/h (3 Bft) O 92 ° 0 min 0 W/m² 4,8 °C 1,2 °C 17,7 km/h (3 Bft)
16.11.2022 22:21 22,3 °C 5,7 °C 59 % 94 % 1003,8 hPa 0,0 l/m² 14,1 km/h (3 Bft) O-NO 71 ° 0 min 0 W/m² 4,8 °C 0,4 °C 20,9 km/h (4 Bft)
16.11.2022 22:22 22,3 °C 5,7 °C 59 % 94 % 1003,8 hPa 0,0 l/m² 9,9 km/h (2 Bft) O-NO 78 ° 0 min 0 W/m² 4,8 °C 2,9 °C 14,5 km/h (3 Bft)
16.11.2022 22:23 22,4 °C 5,7 °C 59 % 94 % 1003,8 hPa 0,0 l/m² 10,1 km/h (2 Bft) O 82 ° 0 min 0 W/m² 4,8 °C 2,8 °C 14,5 km/h (3 Bft)
16.11.2022 22:24 22,3 °C 5,7 °C 59 % 94 % 1003,7 hPa 0,0 l/m² 11,1 km/h (2 Bft) O-NO 65 ° 0 min 0 W/m² 4,8 °C 2,1 °C 17,7 km/h (3 Bft)
16.11.2022 22:26 22,3 °C 5,7 °C 59 % 94 % 1003,8 hPa 0,0 l/m² 11,3 km/h (2 Bft) NO 56 ° 0 min 0 W/m² 4,8 °C 2,0 °C 17,7 km/h (3 Bft)
16.11.2022 22:28 22,4 °C 5,7 °C 59 % 94 % 1003,8 hPa 0,0 l/m² 10,7 km/h (2 Bft) O-NO 74 ° 0 min 0 W/m² 4,8 °C 2,4 °C 16,1 km/h (3 Bft)
16.11.2022 22:30 22,3 °C 5,7 °C 59 % 94 % 1003,8 hPa 0,0 l/m² 10,3 km/h (2 Bft) O 87 ° 0 min 0 W/m² 4,8 °C 2,6 °C 16,1 km/h (3 Bft)
16.11.2022 22:31 22,3 °C 5,7 °C 59 % 94 % 1003,9 hPa 0,0 l/m² 12,7 km/h (3 Bft) O-NO 57 ° 0 min 0 W/m² 4,8 °C 1,2 °C 19,3 km/h (3 Bft)
16.11.2022 22:32 22,3 °C 5,7 °C 59 % 94 % 1003,9 hPa 0,0 l/m² 9,6 km/h (2 Bft) NO 51 ° 0 min 0 W/m² 4,8 °C 3,1 °C 14,5 km/h (3 Bft)
16.11.2022 22:33 22,3 °C 5,7 °C 59 % 94 % 1003,8 hPa 0,0 l/m² 8,5 km/h (2 Bft) O-NO 69 ° 0 min 0 W/m² 4,8 °C 3,9 °C 12,9 km/h (3 Bft)
16.11.2022 22:34 22,3 °C 5,7 °C 59 % 94 % 1003,8 hPa 0,0 l/m² 8,0 km/h (2 Bft) NO 55 ° 0 min 0 W/m² 4,8 °C 4,3 °C 14,5 km/h (3 Bft)
16.11.2022 22:36 22,3 °C 5,7 °C 59 % 94 % 1003,9 hPa 0,0 l/m² 10,4 km/h (2 Bft) O-NO 69 ° 0 min 0 W/m² 4,8 °C 2,6 °C 14,5 km/h (3 Bft)
16.11.2022 22:38 22,3 °C 5,7 °C 59 % 94 % 1003,9 hPa 0,0 l/m² 8,0 km/h (2 Bft) O-NO 68 ° 0 min 0 W/m² 4,8 °C 4,3 °C 14,5 km/h (3 Bft)
16.11.2022 22:40 22,3 °C 5,7 °C 59 % 94 % 1003,8 hPa 0,0 l/m² 11,5 km/h (2 Bft) O 85 ° 0 min 0 W/m² 4,8 °C 1,9 °C 16,1 km/h (3 Bft)
16.11.2022 22:41 22,3 °C 5,7 °C 59 % 94 % 1003,9 hPa 0,0 l/m² 11,4 km/h (2 Bft) O-NO 70 ° 0 min 0 W/m² 4,8 °C 1,9 °C 16,1 km/h (3 Bft)
16.11.2022 22:42 22,3 °C 5,7 °C 59 % 94 % 1003,9 hPa 0,0 l/m² 10,9 km/h (2 Bft) O-NO 65 ° 0 min 0 W/m² 4,8 °C 2,2 °C 17,7 km/h (3 Bft)
16.11.2022 22:44 22,3 °C 5,7 °C 59 % 94 % 1003,8 hPa 0,0 l/m² 10,2 km/h (2 Bft) O-NO 71 ° 0 min 0 W/m² 4,8 °C 2,7 °C 19,3 km/h (3 Bft)
16.11.2022 22:45 22,3 °C 5,7 °C 59 % 94 % 1003,9 hPa 0,0 l/m² 11,6 km/h (2 Bft) O-NO 78 ° 0 min 0 W/m² 4,8 °C 1,8 °C 16,1 km/h (3 Bft)
16.11.2022 22:47 22,3 °C 5,6 °C 59 % 94 % 1003,9 hPa 0,0 l/m² 11,0 km/h (2 Bft) O-NO 70 ° 0 min 0 W/m² 4,7 °C 2,1 °C 16,1 km/h (3 Bft)
16.11.2022 22:49 22,3 °C 5,7 °C 59 % 94 % 1003,8 hPa 0,0 l/m² 11,1 km/h (2 Bft) O 80 ° 0 min 0 W/m² 4,8 °C 2,1 °C 20,9 km/h (4 Bft)
16.11.2022 22:50 22,3 °C 5,7 °C 59 % 94 % 1003,9 hPa 0,0 l/m² 14,8 km/h (3 Bft) O 79 ° 0 min 0 W/m² 4,8 °C 0,0 °C 20,9 km/h (4 Bft)
16.11.2022 22:51 22,3 °C 5,7 °C 59 % 94 % 1003,9 hPa 0,0 l/m² 9,7 km/h (2 Bft) O-NO 64 ° 0 min 0 W/m² 4,8 °C 3,1 °C 14,5 km/h (3 Bft)
16.11.2022 22:52 22,3 °C 5,7 °C 59 % 94 % 1003,9 hPa 0,0 l/m² 12,8 km/h (3 Bft) O-NO 57 ° 0 min 0 W/m² 4,8 °C 1,1 °C 17,7 km/h (3 Bft)
16.11.2022 22:54 22,3 °C 5,7 °C 59 % 94 % 1003,9 hPa 0,0 l/m² 8,1 km/h (2 Bft) O 84 ° 0 min 0 W/m² 4,8 °C 4,3 °C 12,9 km/h (3 Bft)
16.11.2022 22:55 22,3 °C 5,7 °C 59 % 94 % 1003,9 hPa 0,0 l/m² 12,8 km/h (3 Bft) O 79 ° 0 min 0 W/m² 4,8 °C 1,1 °C 16,1 km/h (3 Bft)
16.11.2022 22:57 22,2 °C 5,7 °C 59 % 94 % 1003,9 hPa 0,0 l/m² 11,2 km/h (2 Bft) O-NO 73 ° 0 min 0 W/m² 4,8 °C 2,1 °C 16,1 km/h (3 Bft)
16.11.2022 22:59 22,2 °C 5,7 °C 59 % 94 % 1003,9 hPa 0,0 l/m² 8,1 km/h (2 Bft) NO 51 ° 0 min 0 W/m² 4,8 °C 4,3 °C 16,1 km/h (3 Bft)
16.11.2022 23:00 22,2 °C 5,7 °C 59 % 94 % 1003,9 hPa 0,0 l/m² 8,2 km/h (2 Bft) NO 56 ° 0 min 0 W/m² 4,8 °C 4,2 °C 12,9 km/h (3 Bft)
16.11.2022 23:01 22,2 °C 5,6 °C 59 % 94 % 1003,8 hPa 0,0 l/m² 8,7 km/h (2 Bft) O-NO 65 ° 0 min 0 W/m² 4,7 °C 3,7 °C 16,1 km/h (3 Bft)
16.11.2022 23:02 22,2 °C 5,7 °C 59 % 94 % 1003,8 hPa 0,0 l/m² 6,9 km/h (2 Bft) NO 38 ° 0 min 0 W/m² 4,8 °C 5,3 °C 11,3 km/h (2 Bft)
16.11.2022 23:04 22,2 °C 5,6 °C 59 % 94 % 1003,7 hPa 0,0 l/m² 9,1 km/h (2 Bft) O-NO 74 ° 0 min 0 W/m² 4,7 °C 3,4 °C 14,5 km/h (3 Bft)
16.11.2022 23:05 22,2 °C 5,7 °C 59 % 94 % 1003,7 hPa 0,0 l/m² 10,8 km/h (2 Bft) O 80 ° 0 min 0 W/m² 4,8 °C 2,3 °C 14,5 km/h (3 Bft)
16.11.2022 23:07 22,2 °C 5,7 °C 59 % 94 % 1003,7 hPa 0,0 l/m² 8,6 km/h (2 Bft) O-NO 74 ° 0 min 0 W/m² 4,8 °C 3,9 °C 12,9 km/h (3 Bft)
16.11.2022 23:09 22,2 °C 5,6 °C 59 % 94 % 1003,7 hPa 0,0 l/m² 12,5 km/h (2 Bft) O-NO 74 ° 0 min 0 W/m² 4,7 °C 1,2 °C 16,1 km/h (3 Bft)
16.11.2022 23:10 22,2 °C 5,6 °C 59 % 94 % 1003,6 hPa 0,0 l/m² 12,3 km/h (2 Bft) O 84 ° 0 min 0 W/m² 4,7 °C 1,3 °C 14,5 km/h (3 Bft)
16.11.2022 23:11 22,2 °C 5,6 °C 59 % 94 % 1003,7 hPa 0,0 l/m² 9,6 km/h (2 Bft) O-NO 78 ° 0 min 0 W/m² 4,7 °C 3,0 °C 12,9 km/h (3 Bft)
16.11.2022 23:12 22,2 °C 5,6 °C 58 % 94 % 1003,6 hPa 0,0 l/m² 7,3 km/h (2 Bft) O-NO 75 ° 0 min 0 W/m² 4,7 °C 4,8 °C 12,9 km/h (3 Bft)
16.11.2022 23:14 22,2 °C 5,7 °C 58 % 94 % 1003,6 hPa 0,0 l/m² 10,4 km/h (2 Bft) O-NO 76 ° 0 min 0 W/m² 4,8 °C 2,6 °C 19,3 km/h (3 Bft)
16.11.2022 23:15 22,2 °C 5,7 °C 58 % 94 % 1003,6 hPa 0,0 l/m² 9,2 km/h (2 Bft) O 86 ° 0 min 0 W/m² 4,8 °C 3,4 °C 12,9 km/h (3 Bft)
16.11.2022 23:16 22,2 °C 5,7 °C 58 % 94 % 1003,6 hPa 0,0 l/m² 8,0 km/h (2 Bft) O 90 ° 0 min 0 W/m² 4,8 °C 4,3 °C 11,3 km/h (2 Bft)
16.11.2022 23:23 22,2 °C 5,6 °C 58 % 94 % 1003,6 hPa 0,0 l/m² 8,9 km/h (2 Bft) O-NO 63 ° 0 min 0 W/m² 4,7 °C 3,5 °C 11,3 km/h (2 Bft)
16.11.2022 23:25 22,1 °C 5,7 °C 58 % 94 % 1003,7 hPa 0,0 l/m² 7,9 km/h (2 Bft) O-NO 71 ° 0 min 0 W/m² 4,8 °C 4,4 °C 14,5 km/h (3 Bft)
16.11.2022 23:27 22,1 °C 5,6 °C 58 % 94 % 1003,7 hPa 0,0 l/m² 9,9 km/h (2 Bft) O-NO 69 ° 0 min 0 W/m² 4,7 °C 2,8 °C 16,1 km/h (3 Bft)
16.11.2022 23:29 22,1 °C 5,6 °C 58 % 94 % 1003,7 hPa 0,0 l/m² 11,4 km/h (2 Bft) O-NO 70 ° 0 min 0 W/m² 4,7 °C 1,8 °C 16,1 km/h (3 Bft)
16.11.2022 23:30 22,1 °C 5,6 °C 58 % 94 % 1003,7 hPa 0,0 l/m² 9,8 km/h (2 Bft) O-NO 61 ° 0 min 0 W/m² 4,7 °C 2,9 °C 16,1 km/h (3 Bft)
16.11.2022 23:31 22,1 °C 5,6 °C 58 % 94 % 1003,6 hPa 0,0 l/m² 8,1 km/h (2 Bft) O-NO 76 ° 0 min 0 W/m² 4,7 °C 4,2 °C 14,5 km/h (3 Bft)
16.11.2022 23:32 22,1 °C 5,6 °C 58 % 94 % 1003,6 hPa 0,0 l/m² 11,7 km/h (2 Bft) O-NO 76 ° 0 min 0 W/m² 4,7 °C 1,6 °C 17,7 km/h (3 Bft)
16.11.2022 23:34 22,1 °C 5,6 °C 58 % 94 % 1003,7 hPa 0,0 l/m² 8,0 km/h (2 Bft) O 88 ° 0 min 0 W/m² 4,7 °C 4,2 °C 12,9 km/h (3 Bft)
16.11.2022 23:35 22,1 °C 5,6 °C 58 % 94 % 1003,7 hPa 0,0 l/m² 8,2 km/h (2 Bft) NO 51 ° 0 min 0 W/m² 4,7 °C 4,1 °C 14,5 km/h (3 Bft)
16.11.2022 23:37 22,1 °C 5,6 °C 58 % 94 % 1003,7 hPa 0,0 l/m² 11,3 km/h (2 Bft) O-NO 65 ° 0 min 0 W/m² 4,7 °C 1,9 °C 19,3 km/h (3 Bft)
16.11.2022 23:39 22,1 °C 5,6 °C 58 % 94 % 1003,7 hPa 0,0 l/m² 11,3 km/h (2 Bft) O 87 ° 0 min 0 W/m² 4,7 °C 1,9 °C 16,1 km/h (3 Bft)
16.11.2022 23:40 22,1 °C 5,6 °C 58 % 94 % 1003,7 hPa 0,0 l/m² 6,9 km/h (2 Bft) O-NO 78 ° 0 min 0 W/m² 4,7 °C 5,2 °C 12,9 km/h (3 Bft)
16.11.2022 23:41 22,1 °C 5,6 °C 58 % 94 % 1003,7 hPa 0,0 l/m² 8,8 km/h (2 Bft) O-NO 69 ° 0 min 0 W/m² 4,7 °C 3,6 °C 16,1 km/h (3 Bft)
16.11.2022 23:42 22,1 °C 5,6 °C 58 % 94 % 1003,8 hPa 0,0 l/m² 12,1 km/h (2 Bft) O 90 ° 0 min 0 W/m² 4,7 °C 1,4 °C 14,5 km/h (3 Bft)
16.11.2022 23:44 22,1 °C 5,6 °C 58 % 94 % 1003,8 hPa 0,0 l/m² 11,1 km/h (2 Bft) O-NO 65 ° 0 min 0 W/m² 4,7 °C 2,0 °C 19,3 km/h (3 Bft)
16.11.2022 23:45 22,1 °C 5,6 °C 58 % 94 % 1003,8 hPa 0,0 l/m² 11,0 km/h (2 Bft) O-NO 71 ° 0 min 0 W/m² 4,7 °C 2,1 °C 16,1 km/h (3 Bft)
16.11.2022 23:47 22,1 °C 5,6 °C 58 % 94 % 1003,7 hPa 0,0 l/m² 14,0 km/h (3 Bft) O 90 ° 0 min 0 W/m² 4,7 °C 0,3 °C 20,9 km/h (4 Bft)
16.11.2022 23:49 22,1 °C 5,6 °C 58 % 94 % 1003,7 hPa 0,0 l/m² 12,3 km/h (2 Bft) O 90 ° 0 min 0 W/m² 4,7 °C 1,3 °C 19,3 km/h (3 Bft)
16.11.2022 23:50 22,1 °C 5,6 °C 58 % 94 % 1003,7 hPa 0,0 l/m² 10,3 km/h (2 Bft) O-NO 65 ° 0 min 0 W/m² 4,7 °C 2,5 °C 17,7 km/h (3 Bft)
16.11.2022 23:51 22,1 °C 5,6 °C 58 % 94 % 1003,8 hPa 0,0 l/m² 16,7 km/h (3 Bft) O 92 ° 0 min 0 W/m² 4,7 °C -1,0 °C 22,5 km/h (4 Bft)
16.11.2022 23:52 22,1 °C 5,6 °C 58 % 94 % 1003,7 hPa 0,0 l/m² 15,0 km/h (3 Bft) O-NO 69 ° 0 min 0 W/m² 4,7 °C -0,2 °C 24,1 km/h (4 Bft)
16.11.2022 23:54 22,1 °C 5,6 °C 58 % 94 % 1003,8 hPa 0,0 l/m² 17,0 km/h (3 Bft) O 88 ° 0 min 0 W/m² 4,7 °C -1,1 °C 24,1 km/h (4 Bft)
16.11.2022 23:55 22,1 °C 5,5 °C 58 % 93 % 1003,9 hPa 0,0 l/m² 18,4 km/h (3 Bft) O-NO 78 ° 0 min 0 W/m² 4,5 °C -1,9 °C 25,7 km/h (4 Bft)
16.11.2022 23:57 22,1 °C 5,5 °C 58 % 93 % 1003,8 hPa 0,0 l/m² 12,4 km/h (2 Bft) NO 53 ° 0 min 0 W/m² 4,5 °C 1,1 °C 19,3 km/h (3 Bft)
16.11.2022 23:59 22,0 °C 5,5 °C 58 % 93 % 1003,8 hPa 0,0 l/m² 13,2 km/h (3 Bft) O-NO 76 ° 0 min 0 W/m² 4,5 °C 0,6 °C 19,3 km/h (3 Bft)
_ Min-Zeit 19:30 07:06 17:38 05:05 21:16 - 01:43 - - - - 06:33 23:55 01:43
Minimum _ 21,8 °C 4,8 °C 53 % 90 % 1003,4 hPa - 0,0 km/h (0 Bft) - - - - 3,5 °C -1,9 °C 0,0 km/h (0 Bft)
_ Max-Zeit 22:28 13:46 23:11 21:59 00:00 20:26 23:55 - - 13:52 12:08 13:46 13:42 23:55
Maximum _ 22,4 °C 7,4 °C 59 % 95 % 1006,5 hPa 0,2 l/m² 18,4 km/h
O-NO (3 Bft)
- - 2 min 128 W/m² 6,3 °C 7,4 °C 25,7 km/h
O-NO (4 Bft)
Durchschnitt _ 22,0 °C 6,1 °C 56 % 93 % 1004,2 hPa #4,4 l/m² 7,8 km/h (2 Bft) O-NO - #2:48 h 16 W/m² 5,1 °C 4,5 °C 12,6 km/h (2 Bft)
© 2009 Mathias Hoßbach